[[{"header":{"parameterUnit":"m.s-1","parameterCategory":1,"la1":30.6,"la2":28.766,"lo1":-90.7593,"lo2":-88.6598,"dy":0.0162,"dx":0.0183,"nx":116,"ny":114,"refTime":"2023-10-14T00:00:00:Z","depth":0,"parameterNumber":2,"parameterNumberName":"U-component_of_WINDS"},"data":[0.0,0.0,0.0,0.0,0.0,0.0,0.0,0.0,0.0,0.0,0.0,0.0,0.0,0.0,0.0,0.0,0.0,0.0,0.0,0.0,0.0,0.0,0.0,0.0,0.0,0.0,0.0,0.0,0.0,0.0,0.0,0.0,0.0,0.0,0.0,0.0,0.0,0.0,0.0,0.0,0.0,0.0,0.0,0.0,0.0,0.0,0.0,0.0,0.0,0.0,0.0,0.0,0.0,0.0,0.0,0.0,0.0,0.0,0.0,0.0,0.0,0.0,0.0,0.0,0.0,0.0,0.0,0.0,0.0,0.0,0.0,0.0,0.0,0.0,0.0,0.0,0.0,0.0,0.0,0.0,0.0,0.0,0.0,0.0,0.0,0.0,0.0,0.0,0.0,0.0,0.0,0.0,0.0,0.0,0.0,0.0,0.0,0.0,0.0,0.0,0.0,0.0,0.0,0.0,0.0,0.0,0.0,0.0,0.0,0.0,0.0,0.0,0.0,0.0,0.0,0.0,0.0,0.0,0.0,0.0,0.0,0.0,0.0,0.0,0.0,0.0,0.0,0.0,0.0,0.0,0.0,0.0,0.0,0.0,0.0,0.0,0.0,0.0,0.0,0.0,0.0,0.0,0.0,0.0,0.0,0.0,0.0,0.0,0.0,0.0,0.0,0.0,0.0,0.0,0.0,0.0,0.0,0.0,0.0,0.0,0.0,0.0,0.0,0.0,0.0,0.0,0.0,0.0,0.0,0.0,0.0,0.0,0.0,0.0,0.0,0.0,0.0,0.0,0.0,0.0,0.0,0.0,0.0,0.0,0.0,0.0,0.0,0.0,0.0,0.0,0.0,0.0,0.0,0.0,0.0,0.0,0.0,0.0,0.0,0.0,0.0,0.0,0.0,0.0,0.0,0.0,0.0,0.0,0.0,0.0,0.0,0.0,0.0,0.0,0.0,0.0,0.0,0.0,0.0,0.0,0.0,0.0,0.0,0.0,0.0,0.0,0.0,0.0,0.0,0.0,0.0,0.0,0.0,0.0,0.0,0.0,0.0,0.0,0.0,0.0,0.0,0.0,0.0,0.0,0.0,0.0,0.0,0.0,0.0,0.0,0.0,0.0,0.0,0.0,0.0,0.0,0.0,0.0,0.0,0.0,0.0,0.0,0.0,0.0,0.0,0.0,0.0,0.0,0.0,0.0,0.0,0.0,0.0,0.0,0.0,0.0,0.0,0.0,0.0,0.0,0.0,0.0,0.0,0.0,0.0,0.0,0.0,0.0,0.0,0.0,0.0,0.0,0.0,0.0,0.0,0.0,0.0,0.0,0.0,0.0,0.0,0.0,0.0,0.0,0.0,0.0,0.0,0.0,0.0,0.0,0.0,0.0,0.0,0.0,0.0,0.0,0.0,0.0,0.0,0.0,0.0,0.0,0.0,0.0,0.0,0.0,0.0,0.0,0.0,0.0,0.0,0.0,0.0,0.0,0.0,0.0,0.0,0.0,0.0,0.0,0.0,0.0,0.0,0.0,0.0,0.0,0.0,0.0,0.0,0.0,0.0,0.0,0.0,0.0,0.0,0.0,0.0,0.0,0.0,0.0,0.0,0.0,0.0,0.0,0.0,0.0,0.0,0.0,0.0,0.0,0.0,0.0,0.0,0.0,0.0,0.0,0.0,0.0,0.0,0.0,0.0,0.0,0.0,0.0,0.0,0.0,0.0,0.0,0.0,0.0,0.0,0.0,0.0,0.0,0.0,0.0,0.0,0.0,0.0,0.0,0.0,0.0,0.0,0.0,0.0,0.0,0.0,0.0,0.0,0.0,0.0,0.0,0.0,0.0,0.0,0.0,0.0,0.0,0.0,0.0,0.0,0.0,0.0,0.0,0.0,0.0,0.0,0.0,0.0,0.0,0.0,0.0,0.0,0.0,0.0,0.0,0.0,0.0,0.0,0.0,0.0,0.0,0.0,0.0,0.0,0.0,0.0,0.0,0.0,0.0,0.0,0.0,0.0,0.0,0.0,0.0,0.0,0.0,0.0,0.0,0.0,0.0,0.0,0.0,0.0,0.0,0.0,0.0,0.0,0.0,0.0,0.0,0.0,0.0,0.0,0.0,0.0,0.0,0.0,0.0,0.0,0.0,0.0,0.0,0.0,0.0,0.0,0.0,0.0,0.0,0.0,0.0,0.0,0.0,0.0,0.0,0.0,0.0,0.0,0.0,0.0,0.0,0.0,0.0,0.0,0.0,0.0,0.0,0.0,0.0,0.0,0.0,0.0,0.0,0.0,0.0,0.0,0.0,0.0,0.0,0.0,0.0,0.0,0.0,0.0,0.0,0.0,0.0,0.0,0.0,0.0,0.0,0.0,0.0,0.0,0.0,0.0,0.0,0.0,0.0,0.0,0.0,0.0,0.0,0.0,0.0,0.0,0.0,0.0,0.0,0.0,0.0,0.0,0.0,0.0,0.0,0.0,0.0,0.0,0.0,0.0,0.0,0.0,0.0,0.0,0.0,0.0,0.0,0.0,0.0,0.0,0.0,0.0,0.0,0.0,0.0,0.0,0.0,0.0,0.0,0.0,0.0,0.0,0.0,0.0,0.0,0.0,0.0,0.0,0.0,0.0,0.0,0.0,0.0,0.0,0.0,0.0,0.0,0.0,0.0,0.0,0.0,0.0,0.0,0.0,0.0,0.0,0.0,0.0,0.0,0.0,0.0,0.0,0.0,0.0,0.0,0.0,0.0,0.0,0.0,0.0,0.0,0.0,0.0,0.0,0.0,0.0,0.0,0.0,0.0,0.0,0.0,0.0,0.0,0.0,0.0,0.0,0.0,0.0,0.0,0.0,0.0,0.0,0.0,0.0,0.0,0.0,0.0,0.0,0.0,0.0,0.0,0.0,0.0,0.0,0.0,0.0,0.0,0.0,0.0,0.0,0.0,0.0,0.0,0.0,0.0,0.0,0.0,0.0,0.0,0.0,0.0,0.0,0.0,0.0,0.0,0.0,0.0,0.0,0.0,0.0,0.0,0.0,0.0,0.0,0.0,0.0,0.0,0.0,0.0,0.0,0.0,0.0,0.0,0.0,0.0,0.0,0.0,0.0,0.0,0.0,0.0,0.0,0.0,0.0,0.0,0.0,0.0,0.0,0.0,0.0,0.0,0.0,0.0,0.0,0.0,0.0,0.0,0.0,0.0,0.0,0.0,0.0,0.0,0.0,0.0,0.0,0.0,0.0,0.0,0.0,0.0,0.0,0.0,0.0,0.0,0.0,0.0,0.0,0.0,0.0,0.0,0.0,0.0,0.0,0.0,0.0,0.0,0.0,0.0,0.0,0.0,0.0,0.0,0.0,0.0,0.0,0.0,0.0,0.0,0.0,0.0,0.0,0.0,0.0,0.0,0.0,0.0,0.0,0.0,0.0,0.0,0.0,0.0,0.0,0.0,0.0,0.0,0.0,0.0,0.0,0.0,0.0,0.0,0.0,0.0,0.0,0.0,0.0,0.0,0.0,0.0,0.0,0.0,0.0,0.0,0.0,0.0,0.0,0.0,0.0,0.0,0.0,0.0,0.0,0.0,0.0,0.0,0.0,0.0,0.0,0.0,0.0,0.0,0.0,0.0,0.0,0.0,0.0,0.0,0.0,0.0,0.0,0.0,0.0,0.0,0.0,0.0,0.0,0.0,0.0,0.0,0.0,0.0,0.0,0.0,0.0,0.0,0.0,0.0,0.0,0.0,0.0,0.0,0.0,0.0,0.0,0.0,0.0,0.0,0.0,0.0,0.0,0.0,0.0,0.0,0.0,0.0,0.0,0.0,0.0,0.0,0.0,0.0,0.0,0.0,0.0,0.0,0.0,0.0,0.0,0.0,0.0,0.0,0.0,0.0,0.0,0.0,0.0,0.0,0.0,0.0,0.0,0.0,0.0,0.0,0.0,0.0,0.0,0.0,0.0,0.0,0.0,0.0,0.0,0.0,0.0,0.0,0.0,0.0,0.0,0.0,0.0,0.0,0.0,0.0,0.0,0.0,0.0,0.0,0.0,0.0,0.0,0.0,0.0,0.0,0.0,0.0,0.0,0.0,0.0,0.0,0.0,0.0,0.0,0.0,0.0,0.0,0.0,0.0,0.0,0.0,0.0,0.0,0.0,0.0,0.0,0.0,0.0,0.0,0.0,0.0,0.0,0.0,0.0,0.0,0.0,0.0,0.0,0.0,0.0,0.0,0.0,0.0,0.0,0.0,0.0,0.0,0.0,0.0,0.0,0.0,0.0,0.0,0.0,0.0,0.0,0.0,0.0,0.0,0.0,0.0,0.0,0.0,0.0,0.0,0.0,0.0,0.0,0.0,0.0,0.0,0.0,0.0,0.0,0.0,0.0,0.0,0.0,0.0,0.0,0.0,0.0,0.0,0.0,0.0,0.0,0.0,0.0,0.0,0.0,0.0,0.0,0.0,0.0,0.0,0.0,0.0,0.0,0.0,0.0,0.0,0.0,0.0,0.0,0.0,0.0,0.0,0.0,0.0,0.0,0.0,0.0,0.0,0.0,0.0,0.0,0.0,0.0,0.0,0.0,0.0,0.0,0.0,0.0,0.0,0.0,0.0,0.0,0.0,0.0,0.0,0.0,0.0,0.0,0.0,0.0,0.0,0.0,0.0,0.0,0.0,0.0,0.0,0.0,0.0,0.0,0.0,0.0,0.0,0.0,0.0,0.0,0.0,0.0,0.0,0.0,0.0,0.0,0.0,0.0,0.0,0.0,0.0,0.0,0.0,0.0,0.0,0.0,0.0,0.0,0.0,0.0,0.0,0.0,0.0,0.0,0.0,0.0,0.0,0.0,0.0,0.0,0.0,0.0,0.0,0.0,0.0,0.0,0.0,0.0,0.0,0.0,0.0,0.0,0.0,0.0,0.0,0.0,0.0,0.0,0.0,0.0,0.0,0.0,0.0,0.0,0.0,0.0,0.0,0.0,0.0,0.0,0.0,0.0,0.0,0.0,0.0,0.0,0.0,0.0,0.0,0.0,0.0,0.0,0.0,0.0,0.0,0.0,0.0,0.0,0.0,0.0,0.0,0.0,0.0,0.0,0.0,0.0,0.0,0.0,0.0,0.0,0.0,0.0,0.0,0.0,0.0,0.0,0.0,0.0,0.0,0.0,0.0,0.0,0.0,0.0,0.0,0.0,0.0,0.0,0.0,0.0,0.0,0.0,0.0,0.0,0.0,0.0,0.0,0.0,0.0,0.0,0.0,0.0,0.0,0.0,0.0,0.0,0.0,0.0,0.0,0.0,0.0,0.0,0.0,0.0,0.0,0.0,0.0,0.0,0.0,0.0,0.0,0.0,0.0,0.0,0.0,0.0,0.0,0.0,0.0,0.0,0.0,0.0,0.0,0.0,0.0,0.0,0.0,0.0,0.0,0.0,0.0,0.0,0.0,0.0,0.0,0.0,0.0,0.0,0.0,0.0,0.0,0.0,0.0,0.0,0.0,0.0,0.0,0.0,0.0,0.0,0.0,0.0,0.0,0.0,0.0,0.0,0.0,0.0,0.0,0.0,0.0,0.0,0.0,0.0,0.0,0.0,0.0,0.0,0.0,0.0,0.0,0.0,0.0,0.0,0.0,0.0,0.0,0.0,0.0,0.0,0.0,0.0,0.0,0.0,0.0,0.0,0.0,0.0,0.0,0.0,0.0,0.0,0.0,0.0,0.0,0.0,0.0,0.0,0.0,0.0,0.0,0.0,0.0,0.0,0.0,0.0,0.0,0.0,0.0,0.0,0.0,0.0,0.0,0.0,0.0,0.0,0.0,0.0,0.0,0.0,0.0,0.0,0.0,0.0,0.0,0.0,0.0,0.0,0.0,0.0,0.0,0.0,0.0,0.0,0.0,0.0,0.0,0.0,0.0,0.0,0.0,0.0,0.0,0.0,0.0,0.0,0.0,0.0,0.0,0.0,0.0,0.0,0.0,0.0,0.0,0.0,0.0,0.0,0.0,0.0,0.0,0.0,0.0,0.0,0.0,0.0,0.0,0.0,0.0,0.0,0.0,0.0,0.0,0.0,0.0,0.0,0.0,0.0,0.0,0.0,0.0,0.0,0.0,0.0,0.0,0.0,0.0,-2.553,0.0,0.0,0.0,0.0,0.0,0.0,0.0,0.0,0.0,0.0,0.0,0.0,0.0,0.0,0.0,0.0,0.0,0.0,0.0,0.0,0.0,0.0,0.0,0.0,0.0,0.0,0.0,0.0,0.0,0.0,0.0,0.0,0.0,0.0,0.0,0.0,0.0,0.0,0.0,-2.3514,-2.3514,-2.3551,-2.547,-2.6629,-2.7105,0.0,0.0,0.0,0.0,0.0,0.0,0.0,0.0,0.0,0.0,0.0,0.0,0.0,0.0,0.0,0.0,0.0,0.0,0.0,0.0,0.0,0.0,0.0,0.0,0.0,0.0,0.0,0.0,0.0,0.0,0.0,0.0,0.0,0.0,0.0,0.0,0.0,0.0,0.0,0.0,0.0,0.0,0.0,0.0,0.0,0.0,0.0,0.0,0.0,0.0,0.0,0.0,0.0,0.0,0.0,0.0,0.0,0.0,0.0,0.0,0.0,0.0,0.0,0.0,0.0,0.0,0.0,0.0,0.0,0.0,0.0,-2.4851,0.0,0.0,0.0,0.0,0.0,0.0,0.0,0.0,0.0,0.0,0.0,0.0,0.0,0.0,0.0,0.0,0.0,0.0,0.0,0.0,0.0,0.0,0.0,0.0,0.0,0.0,0.0,0.0,0.0,0.0,0.0,0.0,0.0,0.0,0.0,0.0,0.0,0.0,-2.2999,-2.2999,-2.301,-2.3147,-2.3672,-2.4528,-2.5546,0.0,0.0,0.0,0.0,0.0,0.0,0.0,0.0,0.0,0.0,0.0,0.0,0.0,0.0,0.0,0.0,0.0,0.0,0.0,0.0,0.0,0.0,0.0,0.0,0.0,0.0,0.0,0.0,0.0,0.0,0.0,0.0,0.0,0.0,0.0,0.0,0.0,0.0,0.0,0.0,0.0,0.0,0.0,0.0,0.0,0.0,0.0,0.0,0.0,0.0,0.0,0.0,0.0,0.0,0.0,0.0,0.0,0.0,0.0,0.0,0.0,0.0,0.0,0.0,-2.1525,-2.2457,-2.1436,-2.1534,-2.2457,-2.2457,-2.2589,-2.2818,0.0,0.0,0.0,0.0,0.0,0.0,0.0,0.0,0.0,0.0,0.0,0.0,0.0,0.0,0.0,0.0,0.0,0.0,0.0,0.0,0.0,0.0,0.0,0.0,0.0,0.0,0.0,0.0,0.0,0.0,0.0,0.0,0.0,0.0,-2.0972,-2.0972,-2.0972,-2.0972,-2.0972,-2.1011,-2.1811,-2.2253,-2.244,-2.3441,-2.394,-2.4122,0.0,0.0,0.0,0.0,0.0,0.0,0.0,0.0,0.0,0.0,0.0,0.0,0.0,0.0,0.0,0.0,0.0,0.0,0.0,0.0,0.0,0.0,0.0,0.0,0.0,0.0,0.0,0.0,0.0,0.0,0.0,0.0,0.0,0.0,0.0,0.0,0.0,0.0,0.0,0.0,0.0,-1.7923,-1.7923,0.0,0.0,0.0,0.0,0.0,0.0,0.0,0.0,0.0,0.0,0.0,0.0,0.0,0.0,-1.9649,-1.9691,-1.9716,-1.9716,-1.9716,-1.9807,-1.9951,-1.9807,-1.9807,-1.9951,-1.9951,0.0,-2.1614,-2.2677,0.0,0.0,0.0,0.0,0.0,0.0,0.0,0.0,0.0,0.0,0.0,0.0,0.0,0.0,0.0,0.0,0.0,0.0,0.0,0.0,0.0,0.0,0.0,0.0,0.0,0.0,0.0,0.0,0.0,0.0,0.0,0.0,-1.8749,-1.8749,-1.8749,-1.8749,-1.8749,-1.8749,-1.8749,-1.9149,-1.97,-2.0343,-2.0787,-2.192,-2.3514,-2.3963,0.0,0.0,0.0,0.0,0.0,0.0,0.0,0.0,0.0,0.0,0.0,0.0,0.0,0.0,0.0,0.0,0.0,0.0,0.0,0.0,0.0,0.0,0.0,0.0,0.0,0.0,0.0,0.0,0.0,0.0,0.0,0.0,0.0,0.0,0.0,0.0,0.0,0.0,0.0,-1.8029,-1.7302,-1.7302,-1.7738,-1.8115,0.0,0.0,0.0,0.0,0.0,0.0,0.0,0.0,0.0,-1.9204,-1.9406,-1.9177,-1.8503,-1.8645,-1.8691,-1.8699,-1.8886,-1.9304,-1.9958,-1.9257,-1.9352,-1.9958,-1.9257,-1.9146,-1.9592,-2.0626,-2.0764,-2.035,0.0,0.0,0.0,0.0,0.0,-2.0215,0.0,0.0,0.0,0.0,0.0,0.0,0.0,0.0,0.0,0.0,0.0,0.0,0.0,0.0,0.0,-1.855,0.0,0.0,0.0,0.0,0.0,0.0,0.0,-1.7302,-1.7302,-1.7302,-1.7302,-1.7302,-1.7302,-1.7302,-1.7302,-1.7302,-1.7747,-1.8598,-1.8877,-2.042,-2.2776,-2.2999,-2.311,0.0,0.0,0.0,0.0,0.0,0.0,0.0,0.0,0.0,0.0,0.0,0.0,0.0,0.0,0.0,0.0,0.0,0.0,0.0,0.0,0.0,0.0,0.0,0.0,0.0,0.0,0.0,0.0,0.0,0.0,0.0,0.0,0.0,0.0,0.0,0.0,0.0,0.0,-1.7172,-1.6517,-1.657,-1.6779,-1.7064,0.0,0.0,0.0,0.0,0.0,0.0,-1.8494,-1.8194,-1.8176,-1.8526,-1.862,-1.8256,-1.7348,-1.7613,-1.7717,-1.7724,-1.7956,-1.855,-1.9416,-1.8452,-1.855,-1.9416,-1.8452,-1.7934,-1.7841,-1.9089,-1.9396,-1.9085,-1.936,-1.9497,-1.9451,-1.9131,-1.9039,-1.8993,0.0,0.0,0.0,0.0,0.0,0.0,0.0,0.0,0.0,0.0,0.0,0.0,0.0,0.0,-1.7383,-1.7383,-1.7334,-1.7302,0.0,0.0,0.0,0.0,0.0,-1.7302,-1.7302,-1.7302,-1.7302,-1.7302,-1.7302,-1.7302,-1.7302,-1.7302,-1.7342,-1.7423,-1.8519,-1.9638,-2.0789,-2.1707,-2.2065,-2.2178,0.0,0.0,0.0,0.0,0.0,0.0,0.0,0.0,0.0,0.0,0.0,0.0,0.0,0.0,0.0,0.0,0.0,0.0,0.0,0.0,0.0,0.0,0.0,0.0,0.0,0.0,0.0,0.0,0.0,0.0,0.0,0.0,0.0,0.0,0.0,0.0,0.0,0.0,0.0,-1.4586,-1.5317,0.0,0.0,0.0,0.0,-1.8737,-1.7716,-1.7242,-1.774,-1.6593,-1.5954,-1.6015,-1.6292,-1.6441,-1.6343,-1.6639,-1.678,-1.678,-1.6794,-1.68,-1.69,-1.68,-1.685,-1.69,-1.68,-1.6794,-1.6953,-1.9018,-1.9066,-1.7917,-1.9039,-1.9497,-1.936,-1.8234,-1.7777,-1.7638,0.0,0.0,0.0,0.0,0.0,0.0,0.0,0.0,0.0,0.0,0.0,0.0,0.0,-1.6683,-1.6273,-1.6273,-1.5636,-1.5228,-1.5228,0.0,0.0,0.0,0.0,-1.5228,-1.5228,-1.5228,-1.5228,-1.5228,-1.5228,-1.5228,-1.5228,-1.5228,-1.5587,-1.6273,-1.6715,-1.7488,-1.8581,-2.0362,-2.1116,-2.1116,-2.1489,-2.201,0.0,0.0,0.0,0.0,0.0,0.0,0.0,0.0,0.0,0.0,0.0,0.0,0.0,0.0,0.0,0.0,0.0,0.0,0.0,0.0,0.0,0.0,0.0,0.0,0.0,0.0,0.0,0.0,0.0,0.0,0.0,0.0,0.0,0.0,0.0,0.0,0.0,-1.4482,-1.4761,0.0,0.0,-1.6071,-1.6442,-1.6821,-1.6486,-1.6308,-1.6473,-1.6062,-1.5919,-1.6112,-1.6219,-1.6359,-1.6553,-1.6898,-1.7038,-1.7045,-1.7181,-1.7268,-1.7268,-1.7268,-1.7268,-1.7268,-1.7268,-1.7161,-1.7082,-1.7853,-1.7725,-1.71,-1.7316,-1.7428,-1.7351,-1.6739,-1.648,-1.6433,0.0,0.0,0.0,0.0,0.0,0.0,0.0,0.0,0.0,0.0,0.0,-1.6206,-1.6206,-1.5587,-1.5005,-1.4601,-1.3915,-1.3336,-1.2954,0.0,0.0,0.0,-1.33,-1.3688,-1.4088,-1.4088,-1.4088,-1.4088,-1.4088,-1.4088,-1.4088,-1.4088,-1.4489,-1.5179,-1.5538,-1.6108,-1.6887,-1.87,-1.9717,-2.0079,-2.044,-2.0972,-2.1517,0.0,0.0,0.0,0.0,0.0,0.0,0.0,0.0,0.0,0.0,0.0,0.0,0.0,0.0,0.0,0.0,0.0,0.0,0.0,0.0,0.0,0.0,0.0,0.0,0.0,0.0,0.0,0.0,0.0,0.0,0.0,0.0,0.0,0.0,0.0,-1.4489,-1.4776,-1.473,-1.4903,-1.5484,-1.5451,-1.5518,-1.5758,-1.5784,-1.5784,-1.5784,-1.5925,-1.6072,-1.6315,-1.6516,-1.671,-1.6854,-1.7199,-1.7347,-1.7347,-1.7548,-1.7582,-1.7582,-1.7582,-1.7582,-1.7582,-1.7582,-1.7475,-1.7347,-1.7347,-1.7181,-1.6961,-1.6573,-1.642,-1.6386,-1.6086,-1.5979,-1.5965,0.0,0.0,0.0,0.0,0.0,0.0,0.0,0.0,0.0,0.0,-1.4692,-1.4046,-1.3997,-1.3997,-1.3512,-1.237,-1.2242,-1.1766,-1.0654,-1.1638,0.0,0.0,-1.1638,-1.2808,-1.3955,-1.3997,-1.3997,-1.4039,-1.4039,-1.4046,-1.4088,-1.4088,-1.4088,-1.413,-1.5179,-1.5655,-1.5737,-1.6805,-1.7908,-1.8997,-2.0079,-2.0489,-2.0489,0.0,0.0,0.0,0.0,0.0,0.0,0.0,0.0,0.0,0.0,0.0,0.0,0.0,0.0,0.0,0.0,0.0,0.0,0.0,0.0,0.0,0.0,0.0,0.0,0.0,0.0,0.0,0.0,0.0,0.0,0.0,0.0,0.0,-1.5015,-1.4963,-1.507,-1.5364,-1.5144,-1.5152,-1.5724,-1.5571,-1.5524,-1.5758,-1.5784,-1.5784,-1.5798,-1.6119,-1.6328,-1.6348,-1.6854,-1.7154,-1.7161,-1.7389,-1.7529,-1.7529,-1.7582,-1.7582,-1.7529,-1.7582,-1.7582,-1.7529,-1.7529,-1.7529,-1.7529,-1.747,-1.7477,-1.7417,-1.6897,-1.672,-1.6687,-1.6393,-1.6286,-1.6246,0.0,0.0,0.0,0.0,0.0,0.0,0.0,0.0,0.0,0.0,-1.2972,-1.2462,-1.1649,-1.1563,-1.1429,-1.1085,-1.108,-1.0907,-1.0611,0.0,0.0,0.0,-1.0907,-1.1214,-1.1563,-1.1563,-1.1949,-1.2808,-1.2808,-1.3245,-1.4088,-1.4088,-1.4088,-1.413,-1.4412,-1.4531,-1.4615,-1.5662,-1.6314,-1.6715,-1.7779,-1.8221,-1.8221,0.0,0.0,0.0,0.0,0.0,0.0,0.0,0.0,0.0,0.0,0.0,0.0,0.0,0.0,0.0,0.0,0.0,0.0,0.0,0.0,0.0,0.0,0.0,0.0,0.0,0.0,0.0,0.0,0.0,0.0,0.0,0.0,-1.4114,-1.49,-1.4173,-1.3996,-1.5265,-1.4469,-1.4372,-1.569,-1.5711,-1.5745,-1.5771,-1.5784,-1.5925,-1.6139,-1.6226,-1.6516,-1.6945,-1.6067,-1.571,-1.5899,-1.5972,-1.6015,-1.6009,-1.7094,-1.7041,-1.6068,-1.7094,-1.7041,-1.6015,-1.6015,-1.6015,-1.5902,-1.4883,-1.4502,-1.4635,-1.6381,-1.7079,-1.7038,-1.67,-1.6587,-1.6547,0.0,0.0,0.0,0.0,0.0,0.0,0.0,0.0,0.0,0.0,-1.2285,-1.1858,-1.074,-1.0611,-1.0394,-0.9923,-0.9879,-0.9662,-0.9183,0.0,0.0,-1.0567,-1.0135,-1.0091,-1.0611,-1.0611,-1.0907,-1.1595,-1.1595,-1.1949,-1.265,-1.265,-1.265,-1.265,-1.3124,-1.3336,-1.3421,-1.4552,-1.5019,-1.5095,-1.5711,-1.6486,-1.7302,-1.7302,-1.7706,-1.827,-1.827,-1.8709,-1.9234,-1.9234,0.0,0.0,0.0,0.0,0.0,0.0,0.0,0.0,0.0,0.0,0.0,0.0,0.0,0.0,0.0,0.0,0.0,0.0,0.0,0.0,0.0,0.0,0.0,0.0,-1.2749,-1.2989,-1.3607,-1.3013,-1.2877,-1.3838,-1.3229,-1.3138,-1.4064,-1.4178,-1.4418,-1.4949,-1.5105,-1.5486,-1.6259,-1.5948,-1.5916,-1.6291,-1.4984,-1.4364,-1.4502,-1.4502,-1.4502,-1.4556,-1.5364,-1.537,-1.4556,-1.5423,-1.531,0.0,-1.4502,-1.4502,-1.4449,-1.3642,-1.3318,0.0,0.0,0.0,0.0,0.0,-1.5935,-1.5708,0.0,0.0,0.0,0.0,0.0,0.0,0.0,0.0,0.0,0.0,0.0,-1.1466,-1.0351,-1.0221,-0.9792,-0.8803,-0.8715,-0.8237,0.0,0.0,-0.8009,-1.0091,-0.9231,-0.9192,-1.0178,-1.0221,-1.0265,-1.0394,-1.0394,-1.0481,-1.0611,-1.0611,-1.0611,-1.0654,-1.1638,-1.2114,-1.22,-1.3252,-1.3779,-1.3913,-1.3913,-1.5137,-1.6935,-1.6935,-1.7009,-1.7131,-1.7131,-1.7212,-1.7302,-1.7302,0.0,0.0,0.0,0.0,0.0,0.0,0.0,0.0,0.0,0.0,0.0,0.0,0.0,0.0,0.0,0.0,0.0,0.0,0.0,0.0,0.0,0.0,0.0,0.0,-1.1707,-1.1604,-1.1458,-1.1458,-1.1556,-1.1848,-1.175,-1.175,-1.1896,-1.1896,-1.2393,-1.3624,-1.3929,-1.4586,-1.5862,0.0,0.0,0.0,0.0,-1.3048,-1.3048,-1.3048,-1.3048,-1.3048,-1.321,-1.321,-1.3053,-1.321,-1.321,-1.3048,-1.3048,-1.3048,-1.3048,-1.2891,-1.2886,-1.321,-1.4609,-1.515,-1.5115,-1.4862,-1.4648,0.0,0.0,0.0,0.0,0.0,0.0,0.0,0.0,0.0,0.0,-1.108,-1.0139,-0.91,-0.7925,-0.7793,-0.7705,-0.7448,-0.7445,-0.7356,0.0,-0.7095,-0.7316,-0.7749,-0.7577,-0.7533,-0.7793,-0.7793,-0.8273,-0.9235,-0.9235,-0.9705,-1.0611,-1.0611,-1.0611,-1.0611,-1.0826,-1.0907,-1.0956,-1.1171,-1.1821,-1.2632,-1.2632,-1.3493,-1.4699,-1.4699,-1.5262,-1.6026,-1.6026,-1.656,-1.7302,-1.7302,-1.7464,-1.7676,-1.7937,0.0,0.0,0.0,0.0,0.0,0.0,0.0,0.0,0.0,0.0,0.0,0.0,0.0,0.0,0.0,0.0,0.0,0.0,0.0,0.0,-1.0583,-1.0386,-0.9998,-0.892,-0.8775,-0.9558,-1.1653,-1.0974,-1.0779,-1.1804,-1.1896,-1.207,-1.2485,-1.2592,-1.288,-1.3459,-1.3304,0.0,-1.3623,-1.2271,-1.1538,-1.1538,-1.1538,-1.1538,-1.1538,0.0,0.0,-1.1592,-1.2783,-1.2674,-1.1538,-1.1538,-1.1538,-1.1433,-1.0241,-1.0457,-1.1647,-1.3156,-1.3696,-1.367,-1.3329,-1.334,-1.3486,0.0,0.0,0.0,0.0,0.0,0.0,0.0,0.0,0.0,0.0,-0.9235,-0.8452,-0.7228,-0.7095,-0.7095,-0.7095,-0.7095,0.0,-0.7095,-0.7095,-0.7095,-0.7095,-0.7095,-0.7095,-0.7095,-0.7095,-0.7401,-0.8017,-0.8017,-0.8273,-0.8834,-0.8834,-0.8834,-0.8877,-0.9488,-0.9749,-0.9792,-1.0351,-1.0907,-1.1466,-1.1466,-1.1821,-1.2473,-1.3646,-1.4454,-1.4894,-1.4894,-1.522,-1.5718,-1.5718,-1.6148,-1.6719,-1.6891,-1.7728,-1.8633,0.0,0.0,0.0,0.0,0.0,0.0,0.0,0.0,0.0,0.0,0.0,0.0,0.0,0.0,-1.2522,0.0,0.0,-1.0534,-0.9217,-0.9019,-0.8775,-0.8088,-0.8106,-0.8621,-0.9813,-0.941,-0.9262,-0.9899,-1.0033,-1.0421,-1.1157,-1.1406,-1.1921,-1.2763,-1.2244,-1.203,-1.2186,-1.0781,-1.0025,-1.0025,-1.0025,-1.0025,-1.0025,-1.0731,-1.0731,-1.0021,-1.0781,-1.0672,-1.0025,-1.0025,-1.0025,-0.9915,-0.921,-0.9316,-1.0076,-1.0836,-1.2023,-1.32,-1.2285,-1.2048,-1.2064,0.0,0.0,0.0,0.0,0.0,0.0,0.0,0.0,0.0,0.0,-0.8715,-0.8189,-0.7183,-0.7095,-0.7095,0.0,0.0,0.0,-0.7095,-0.7095,-0.7095,-0.7095,-0.7095,-0.7095,-0.7095,-0.7095,-0.7095,-0.7095,-0.7095,-0.7095,-0.7095,-0.7095,-0.7095,-0.7139,-0.8101,-0.854,-0.8627,-0.9531,-1.0048,-1.0269,-1.0269,-1.0394,-1.0826,-1.2693,-1.3561,-1.3779,-1.3997,-1.4088,-1.4095,-1.4155,-1.49,-1.5827,-1.5908,-1.6955,-1.8166,-1.829,-1.7835,0.0,0.0,0.0,0.0,0.0,0.0,0.0,0.0,0.0,-1.3151,-1.1799,-1.1512,-1.113,-0.99,-0.9661,-0.9329,-0.827,-0.8076,-0.8076,-0.8076,-0.8231,-0.8265,-0.814,-0.8076,-0.8076,-0.8076,-0.8238,-0.8779,-0.9812,-1.0237,-1.0946,-1.1989,-1.1188,-1.0676,-1.0676,-0.9537,-0.8885,-0.8885,-0.8885,-0.8885,-0.8885,-0.8885,-0.8885,-0.8885,-0.8885,-0.8885,-0.8885,-0.8885,-0.8885,-0.8885,-0.8885,-0.8885,-0.8885,-0.8885,-1.0347,-1.2295,-1.1105,-1.0676,-1.0511,0.0,0.0,0.0,0.0,0.0,0.0,0.0,0.0,0.0,0.0,0.0,0.0,0.0,0.0,0.0,0.0,0.0,-0.7095,-0.7095,-0.7095,-0.7095,-0.7095,-0.7095,-0.7095,-0.7095,-0.7095,-0.7095,-0.7095,-0.7095,-0.7095,-0.7095,-0.7095,-0.7095,-0.7095,-0.7228,-0.7316,-0.7316,-0.7445,-0.8101,-0.9104,-0.9104,-0.971,-1.0611,-1.0869,-1.1601,-1.2632,-1.3737,-1.4088,-1.4128,-1.4382,-1.4532,-1.4778,-1.5305,-1.5606,-1.5853,-1.6067,0.0,-1.6015,-1.6015,-1.592,-1.5534,-1.4411,-1.4118,-1.3782,0.0,0.0,-1.175,-1.0485,-1.0194,-0.9855,-0.8722,-0.8496,-0.8487,-0.8463,-0.8431,-0.8431,-0.8431,-0.8445,-0.8452,-0.8435,-0.8431,-0.8431,-0.8431,-0.8448,-0.8565,-0.8859,-0.8904,-0.9035,-0.934,-0.9199,-0.9154,-0.9154,-0.8992,-0.8885,-0.8885,-0.8885,-0.8885,-0.8885,-0.8885,-0.8885,-0.8885,-0.8885,-0.8885,-0.8885,-0.8885,-0.8885,-0.8885,-0.8885,-0.8885,-0.8885,-0.8885,-0.9099,-0.9372,-0.921,-0.9154,-0.9103,0.0,0.0,0.0,0.0,0.0,0.0,0.0,0.0,0.0,0.0,0.0,0.0,0.0,0.0,0.0,0.0,-0.7095,-0.7095,-0.7095,-0.7095,-0.7095,-0.7095,-0.7095,-0.7095,-0.7095,-0.7095,-0.7095,-0.7095,-0.7095,-0.7095,-0.7095,-0.7095,-0.7095,-0.7095,-0.7095,-0.7095,-0.7095,-0.7095,-0.7404,-0.7841,-0.7841,-0.8145,-0.8619,-0.9362,-0.9923,-1.0567,-1.2382,-1.3175,0.0,0.0,-1.4743,-1.507,-1.5317,-1.5511,-1.5671,-1.5792,-1.5784,0.0,-1.4902,-1.4704,-1.4364,0.0,-1.2721,-1.2377,-1.1068,-1.0779,-1.0471,-0.9249,-0.9024,-0.887,-0.847,-0.8394,-0.8414,0.0,-0.8482,-0.8482,-0.8482,-0.856,-0.8615,-0.8615,-0.8693,-0.8676,-0.8499,-0.8564,-0.8642,-0.8706,-0.8794,-0.8817,-0.8878,-0.8885,-0.8885,-0.8885,-0.8885,-0.8885,-0.8885,-0.8885,-0.8885,-0.8885,-0.8885,-0.8885,-0.8885,-0.8885,-0.8885,-0.8885,-0.8885,-0.8885,-0.8885,-0.8885,-0.8885,-0.8885,-0.8885,-0.8885,-0.8885,-0.8885,-0.8885,-0.8885,0.0,0.0,0.0,0.0,0.0,0.0,0.0,0.0,0.0,0.0,0.0,0.0,0.0,0.0,0.0,0.0,-0.7095,-0.7095,-0.7095,-0.7095,-0.7095,-0.7095,-0.7095,-0.7095,-0.7095,-0.7095,-0.7095,-0.7095,-0.7095,-0.7095,-0.7095,-0.7095,-0.7095,-0.7095,-0.7095,-0.7095,-0.7095,-0.7095,-0.7095,-0.7095,-0.7095,-0.7095,-0.7183,-0.8057,-0.8408,-0.8711,-1.0994,-1.1971,0.0,0.0,-1.391,-1.4266,-1.4422,-1.4555,-1.4711,-1.4711,-1.4997,-1.5045,-1.4166,0.0,0.0,-1.1799,-1.1365,-1.1023,-0.9752,-0.95,-0.9276,-0.8449,-0.8354,-0.8374,-0.852,-0.8547,-0.856,-0.8601,-0.8608,-0.8608,-0.8608,-0.8703,-0.8774,-0.8774,-0.8817,-0.8852,-0.8628,-0.871,-0.8774,-0.8774,-0.8821,-0.8885,-0.8885,-0.8885,-0.8885,-0.8885,-0.8885,-0.8885,-0.8885,-0.8885,-0.8885,-0.8885,-0.8885,-0.8885,-0.8885,-0.8885,-0.8885,-0.8885,-0.8885,-0.8885,-0.8885,-0.8885,-0.8885,-0.8885,-0.8885,-0.8885,-0.8885,-0.8885,-0.8885,-0.8885,0.0,0.0,0.0,0.0,0.0,0.0,0.0,0.0,0.0,0.0,0.0,0.0,0.0,0.0,0.0,-0.7095,-0.7095,-0.7095,-0.7095,-0.7095,-0.7095,-0.7095,-0.7095,-0.7095,-0.7095,-0.7095,-0.7095,-0.7095,-0.7095,-0.7095,-0.7095,-0.7095,-0.7095,-0.7095,-0.7095,-0.7095,-0.7095,-0.7095,-0.7095,-0.7095,-0.7095,-0.7095,-0.7095,-0.7139,-0.7139,-0.7445,-0.9831,0.0,0.0,0.0,-1.1421,-1.1508,-1.1895,-1.1989,0.0,-1.1999,-1.2958,-1.3974,0.0,0.0,-1.3295,-1.0676,-1.0047,-0.9706,-0.8382,-0.8207,-0.8367,-0.832,-0.8381,-0.8523,-0.8676,-0.8703,-0.8754,-0.8844,-0.8868,-0.8868,-0.8868,-0.8871,-0.8875,-0.8875,-0.8881,-0.8878,0.0,-0.8875,-0.8875,-0.8875,-0.8881,-0.8885,-0.8885,-0.8885,-0.8885,-0.8885,-0.8885,-0.8885,-0.8885,-0.8885,-0.8885,-0.8885,-0.8885,-0.8885,-0.8885,-0.8885,-0.8885,-0.8885,-0.8885,-0.8885,-0.8885,-0.8885,-0.8885,-0.8885,-0.8885,-0.8885,-0.8885,-0.8885,-0.8885,-0.8885,0.0,0.0,0.0,0.0,0.0,0.0,0.0,0.0,0.0,0.0,0.0,0.0,0.0,0.0,0.0,0.0,-0.7095,-0.7095,-0.7095,-0.7095,-0.7095,-0.7095,-0.7095,-0.7095,-0.7095,-0.634,-0.5983,-0.5983,-0.5983,-0.5983,-0.5983,-0.6738,-0.7095,-0.7095,-0.7095,-0.7095,-0.7095,-0.7095,-0.7095,-0.7095,-0.7095,-0.7095,-0.7095,-0.7095,-0.7095,-0.7183,0.0,0.0,0.0,-1.0954,-1.1425,-1.1598,-1.1854,0.0,-1.1896,-1.1896,-1.2237,-1.2382,-1.1551,0.0,-1.0872,-0.9114,-0.8676,-0.8606,-0.8268,-0.8235,-0.8326,-0.8523,-0.8601,-0.8679,-0.8832,-0.8807,-0.8824,-0.8875,-0.8885,-0.8885,-0.8885,-0.8885,-0.8885,-0.8885,-0.8885,0.0,0.0,0.0,0.0,-0.8885,-0.8885,-0.8885,-0.8885,-0.8885,-0.8885,-0.8885,-0.8885,-0.8885,-0.8885,-0.8885,-0.8885,-0.8885,-0.8885,-0.8885,-0.8885,-0.8885,-0.8885,-0.8885,-0.8885,-0.8885,-0.8885,-0.8885,-0.8885,-0.8885,-0.8885,-0.8885,-0.8885,-0.8885,-0.8885,-0.8885,0.0,0.0,0.0,0.0,0.0,0.0,0.0,0.0,0.0,0.0,0.0,0.0,0.0,0.0,0.0,0.0,0.0,-0.7095,-0.7095,-0.7095,-0.7095,-0.7095,-0.7095,-0.6918,-0.6517,-0.5761,-0.5179,-0.4776,-0.4776,-0.4776,-0.4776,-0.5487,-0.6065,-0.6473,-0.6473,-0.6738,-0.7095,-0.7095,-0.7129,-0.7217,-0.7119,-0.7129,-0.7217,-0.7119,-0.7095,0.0,0.0,0.0,0.0,-0.9594,-1.0065,-1.0263,-1.0412,-1.0476,-1.0583,-1.1068,-1.1219,-1.1023,-1.0243,-0.9998,-0.9657,-0.8333,-0.8029,-0.8147,-0.8248,-0.835,-0.8482,-0.8672,-0.8754,-0.8821,-0.8865,-0.8885,-0.8885,-0.8885,-0.8885,-0.8885,-0.8885,-0.8885,-0.8885,-0.8885,-0.8885,0.0,0.0,0.0,0.0,-0.8885,-0.8885,-0.8885,-0.8885,-0.8885,-0.8885,-0.8885,-0.8885,-0.8885,-0.8885,-0.8885,-0.8885,-0.8885,-0.8885,-0.8885,-0.8885,-0.8885,-0.8885,-0.8885,-0.8885,-0.8885,-0.8885,-0.8885,-0.8885,-0.8885,-0.8885,-0.8885,-0.8885,-0.8885,-0.8885,-0.8885,0.0,0.0,0.0,0.0,0.0,0.0,0.0,0.0,0.0,0.0,0.0,0.0,0.0,0.0,0.0,0.0,0.0,0.0,-0.7095,-0.7095,-0.7095,-0.7095,-0.7095,-0.6561,-0.5403,-0.5359,-0.4732,-0.3525,-0.3525,-0.3525,-0.3614,-0.3659,-0.433,-0.5492,-0.5492,-0.6071,-0.7095,-0.7095,-0.7224,-0.7346,-0.72,-0.7227,-0.7343,-0.7197,0.0,0.0,0.0,0.0,0.0,-0.7319,0.0,-0.7634,-0.7777,-0.7923,-0.8237,-0.9509,-0.9903,-0.9903,-0.9903,-0.9903,-0.9608,-0.8333,-0.8157,-0.8323,-0.833,-0.8506,-0.8713,-0.872,-0.8835,-0.8885,0.0,0.0,-0.8885,-0.8885,-0.8885,-0.8885,-0.8885,-0.8885,-0.8885,0.0,0.0,0.0,0.0,0.0,0.0,-0.8885,0.0,-0.8885,-0.8885,-0.8885,-0.8885,-0.8885,-0.8885,-0.8885,-0.8885,-0.8885,-0.8885,-0.8885,-0.8885,-0.8885,-0.8885,-0.8885,-0.8885,-0.8885,-0.8885,-0.8885,-0.8885,-0.8885,-0.8885,-0.8885,-0.8885,-0.8885,-0.8885,-0.8885,-0.8885,-0.8885,0.0,0.0,0.0,0.0,0.0,0.0,0.0,0.0,0.0,0.0,0.0,0.0,0.0,0.0,0.0,0.0,0.0,0.0,-0.7095,-0.7095,-0.7095,-0.7095,-0.7095,-0.6561,-0.5403,-0.4508,-0.3482,-0.2281,-0.2281,-0.2726,-0.3614,-0.4508,-0.5578,-0.665,-0.665,-0.6827,-0.7095,-0.7095,-0.7119,-0.7149,0.0,-0.7119,-0.7149,0.0,0.0,0.0,0.0,0.0,0.0,0.0,0.0,0.0,0.0,-0.7958,-0.8088,-0.8432,-0.8528,-0.8528,-0.8528,-0.8528,-0.8432,-0.8088,-0.8157,-0.835,-0.8404,-0.8574,-0.8743,-0.8801,-0.8858,-0.8885,0.0,0.0,0.0,-0.8885,-0.8885,0.0,-0.8885,-0.8885,0.0,-0.8885,0.0,-0.8885,-0.8885,-0.8885,0.0,0.0,-0.8885,-0.8885,-0.8885,-0.8885,-0.8885,-0.8885,-0.8885,-0.8885,-0.8885,-0.8885,-0.8885,-0.8885,-0.8885,-0.8885,-0.8885,-0.8885,-0.8885,-0.8885,-0.8885,-0.8885,-0.8885,-0.8885,-0.8885,-0.8885,-0.8885,-0.8885,-0.8885,-0.8885,-0.8885,-0.8885,0.0,0.0,0.0,0.0,0.0,0.0,0.0,0.0,0.0,0.0,0.0,0.0,0.0,0.0,0.0,0.0,0.0,0.0,0.0,-0.7095,-0.7095,-0.7095,-0.7095,-0.6561,-0.5403,-0.4732,-0.3796,-0.2592,-0.2592,0.0,-0.3614,-0.4283,-0.522,-0.634,-0.634,-0.665,-0.7095,-0.7095,0.0,0.0,0.0,0.0,0.0,0.0,0.0,0.0,0.0,0.0,0.0,0.0,0.0,-0.7756,-0.7921,-0.7988,-0.7988,-0.7988,0.0,-0.7988,-0.7988,-0.7988,-0.7988,-0.7988,-0.8201,-0.8384,-0.8465,-0.8652,-0.8835,-0.8865,-0.8885,0.0,0.0,0.0,0.0,0.0,0.0,0.0,-0.8885,-0.8885,-0.8885,0.0,-0.8885,0.0,-0.8885,-0.8885,-0.8885,0.0,-0.8885,-0.8885,-0.8885,-0.8885,-0.8885,-0.8885,-0.8885,-0.8885,-0.8885,-0.8885,-0.8885,-0.8885,-0.8885,-0.8885,-0.8885,-0.8885,-0.8885,-0.8885,0.0,-0.8885,-0.8885,-0.8885,-0.8885,-0.8885,-0.8885,-0.8885,-0.8885,-0.8885,-0.8885,-0.8885,0.0,0.0,0.0,0.0,0.0,0.0,0.0,0.0,0.0,0.0,0.0,0.0,0.0,0.0,0.0,0.0,0.0,0.0,0.0,0.0,0.0,-0.736,-0.7183,-0.6561,-0.5403,-0.5403,-0.4821,-0.3614,-0.3614,0.0,0.0,0.0,0.0,0.0,0.0,0.0,0.0,0.0,0.0,0.0,0.0,0.0,0.0,0.0,0.0,0.0,0.0,0.0,0.0,0.0,-0.7628,-0.7675,-0.7904,-0.7988,-0.7988,-0.7988,-0.7988,-0.7988,-0.7988,-0.7988,-0.7988,-0.7988,-0.8262,-0.8482,-0.8482,-0.872,-0.8885,-0.8885,0.0,-0.8885,-0.8885,-0.8885,-0.8885,-0.8885,0.0,-0.8885,-0.8885,-0.8885,-0.8885,-0.8885,-0.8885,-0.8885,-0.8885,-0.8885,-0.8885,-0.8885,-0.8885,-0.8885,-0.8885,-0.8885,-0.8885,-0.8885,-0.8885,-0.8885,-0.8885,-0.8885,-0.8885,-0.8885,-0.8885,-0.8885,-0.8885,-0.8885,-0.8885,-0.8885,0.0,0.0,-0.8885,-0.8885,-0.8885,-0.8885,-0.8885,-0.8885,-0.8885,-0.8885,-0.8885,-0.8885,0.0,0.0,0.0,0.0,0.0,0.0,0.0,0.0,0.0,0.0,0.0,0.0,0.0,0.0,0.0,0.0,0.0,0.0,0.0,0.0,0.0,0.0,-0.7621,-0.6561,-0.5403,-0.5403,-0.4821,-0.3614,-0.3614,0.0,0.0,0.0,0.0,0.0,0.0,0.0,0.0,0.0,0.0,0.0,0.0,0.0,0.0,0.0,0.0,0.0,0.0,0.0,0.0,-0.7682,-0.7773,-0.7804,-0.7934,-0.7988,-0.7988,-0.7988,-0.7988,-0.7988,-0.7988,-0.7988,-0.7988,-0.7988,-0.8262,-0.8482,-0.8482,-0.872,0.0,0.0,-0.8885,-0.8885,-0.8885,-0.8885,-0.8885,-0.8885,0.0,0.0,0.0,0.0,-0.8885,0.0,0.0,0.0,0.0,0.0,0.0,0.0,0.0,0.0,-0.8885,-0.8885,-0.8885,-0.8885,-0.8885,-0.8885,-0.8885,-0.8885,-0.8885,-0.8885,-0.8885,-0.8885,-0.8885,-0.8885,-0.8885,-0.8885,0.0,0.0,-0.8885,-0.8885,-0.8885,-0.8885,-0.8885,-0.8885,-0.8885,-0.8885,-0.8885,-0.8885,0.0,0.0,0.0,0.0,0.0,0.0,0.0,0.0,0.0,0.0,0.0,0.0,0.0,0.0,0.0,0.0,0.0,0.0,0.0,0.0,0.0,0.0,0.0,0.0,0.0,-0.6293,-0.598,-0.544,0.0,-0.5711,-0.6293,-0.6293,-0.6561,0.0,0.0,0.0,0.0,0.0,0.0,0.0,0.0,0.0,0.0,0.0,0.0,0.0,0.0,0.0,0.0,0.0,-0.7865,-0.7894,-0.7968,-0.7988,-0.7988,-0.7988,-0.7988,-0.7988,-0.7988,-0.7988,-0.7988,-0.7988,-0.8262,-0.8482,-0.8482,0.0,0.0,0.0,-0.8885,-0.8885,-0.8885,-0.8885,0.0,-0.8885,0.0,0.0,0.0,0.0,0.0,0.0,0.0,0.0,0.0,0.0,0.0,0.0,0.0,0.0,-0.8885,-0.8885,-0.8885,-0.8885,-0.8885,-0.8885,-0.8885,-0.8885,-0.8885,-0.8885,-0.8885,-0.8885,-0.8885,-0.8885,-0.8885,-0.8885,-0.8885,0.0,-0.8885,-0.8885,-0.8885,-0.8885,-0.8885,-0.8885,-0.8885,-0.8885,-0.8885,-0.8885,0.0,0.0,0.0,0.0,0.0,0.0,0.0,0.0,0.0,0.0,0.0,0.0,0.0,0.0,0.0,0.0,0.0,0.0,0.0,0.0,0.0,0.0,0.0,0.0,0.0,0.0,0.0,-0.7095,-0.7095,0.0,0.0,0.0,0.0,0.0,-0.7095,-0.7095,0.0,0.0,0.0,0.0,0.0,0.0,0.0,0.0,0.0,0.0,0.0,0.0,0.0,0.0,-0.7891,-0.7988,-0.7988,-0.7988,-0.7988,-0.7988,-0.7988,-0.7988,-0.7988,-0.7988,-0.7988,-0.7988,-0.8262,-0.8482,-0.8482,-0.872,0.0,0.0,-0.8885,-0.8885,-0.8885,-0.8885,-0.8885,0.0,-0.8885,-0.8885,0.0,0.0,0.0,0.0,0.0,0.0,0.0,0.0,0.0,0.0,0.0,0.0,-0.8885,-0.8885,-0.8885,-0.8885,-0.8885,-0.8885,-0.8885,-0.8885,-0.8885,-0.8885,-0.8885,-0.8885,-0.8885,-0.8885,-0.8885,-0.8885,-0.8885,0.0,0.0,-0.8885,-0.8885,-0.8885,-0.8885,-0.8885,-0.8885,-0.8885,-0.8885,-0.8885,0.0,0.0,0.0,0.0,0.0,0.0,0.0,0.0,0.0,0.0,0.0,0.0,0.0,0.0,0.0,0.0,0.0,0.0,0.0,0.0,0.0,0.0,0.0,0.0,0.0,0.0,0.0,-0.7095,-0.7095,0.0,0.0,0.0,0.0,0.0,0.0,-0.7095,-0.7095,0.0,0.0,0.0,0.0,0.0,0.0,0.0,0.0,0.0,0.0,0.0,0.0,0.0,0.0,-0.7988,-0.7988,-0.7988,-0.7988,-0.7988,0.0,0.0,-0.7988,-0.7988,-0.7988,-0.7988,-0.8262,-0.8482,-0.8482,0.0,0.0,-0.8885,-0.8885,-0.8885,-0.8885,-0.8885,-0.8885,0.0,0.0,-0.8885,0.0,0.0,0.0,0.0,0.0,0.0,0.0,0.0,0.0,0.0,0.0,0.0,0.0,-0.8885,-0.8885,-0.8885,-0.8885,-0.8885,-0.8885,-0.8885,-0.8885,-0.8885,-0.8885,-0.8885,-0.8885,-0.8885,-0.8885,-0.8885,0.0,0.0,0.0,-0.8885,-0.8885,-0.8885,-0.8885,-0.8885,-0.8885,-0.8885,-0.8885,-0.8885,0.0,0.0,0.0,0.0,0.0,0.0,0.0,0.0,0.0,0.0,0.0,0.0,0.0,0.0,0.0,0.0,0.0,0.0,0.0,0.0,0.0,0.0,0.0,0.0,0.0,0.0,0.0,-0.9226,-0.9226,0.0,0.0,0.0,0.0,0.0,0.0,-0.7095,-0.7095,0.0,0.0,0.0,0.0,0.0,0.0,0.0,0.0,0.0,0.0,0.0,0.0,0.0,0.0,0.0,-0.7988,-0.7988,0.0,0.0,-0.7988,-0.7988,-0.7988,-0.7988,-0.7988,-0.7988,-0.8197,-0.8357,-0.8357,0.0,-0.8801,-0.8801,-0.8817,-0.8885,-0.8885,-0.8885,-0.8885,0.0,0.0,0.0,-0.9055,0.0,0.0,0.0,0.0,0.0,0.0,0.0,0.0,0.0,0.0,0.0,0.0,-0.8885,-0.8885,-0.8885,-0.8885,-0.8885,-0.8885,-0.8885,-0.8885,-0.8885,-0.8885,-0.8885,-0.8885,-0.8885,-0.8885,-0.8885,0.0,0.0,0.0,-0.8885,-0.8885,-0.8885,-0.8885,-0.8885,-0.8885,-0.8885,-0.8885,-0.8885,0.0,0.0,0.0,0.0,0.0,0.0,0.0,0.0,0.0,0.0,0.0,0.0,0.0,0.0,0.0,0.0,0.0,0.0,0.0,0.0,0.0,0.0,0.0,0.0,0.0,0.0,0.0,-1.0611,-1.0611,-1.0611,0.0,0.0,-0.9235,-0.8846,0.0,0.0,0.0,0.0,0.0,0.0,0.0,0.0,0.0,0.0,0.0,0.0,0.0,0.0,0.0,0.0,0.0,0.0,0.0,-0.7988,-0.7988,0.0,-0.7988,-0.7988,-0.7988,-0.7988,-0.7988,-0.7988,-0.8157,-0.8323,0.0,0.0,-0.8655,-0.8703,-0.8798,-0.8828,-0.8875,-0.8885,-0.8885,-0.8885,0.0,-0.8988,-0.919,0.0,0.0,0.0,0.0,0.0,0.0,0.0,0.0,0.0,0.0,0.0,0.0,-0.8885,-0.8885,-0.8885,-0.8885,-0.8885,-0.8885,-0.8885,-0.8885,-0.8885,-0.8885,-0.8885,-0.8885,-0.8885,-0.8885,-0.8885,0.0,0.0,0.0,-0.8885,-0.8885,-0.8885,-0.8885,-0.8885,-0.8885,-0.8885,-0.8885,-0.8885,0.0,0.0,0.0,0.0,0.0,0.0,0.0,0.0,0.0,0.0,0.0,0.0,0.0,0.0,0.0,0.0,0.0,0.0,0.0,0.0,0.0,0.0,0.0,0.0,0.0,0.0,0.0,0.0,0.0,-1.0611,-1.0611,-1.0611,-0.9966,-0.889,0.0,0.0,0.0,0.0,0.0,0.0,0.0,0.0,0.0,0.0,0.0,0.0,0.0,0.0,0.0,0.0,0.0,0.0,0.0,-0.7988,-0.7988,-0.7988,-0.7988,-0.7988,-0.7988,-0.7988,-0.7988,-0.7988,-0.8157,-0.8323,0.0,-0.8381,-0.8526,-0.8679,-0.8713,-0.876,-0.8854,-0.8885,-0.8885,-0.8885,-0.8885,0.0,-0.919,0.0,0.0,0.0,0.0,0.0,0.0,0.0,0.0,0.0,0.0,0.0,0.0,-0.8885,-0.8885,-0.8885,-0.8885,-0.8885,-0.8885,-0.8885,-0.8885,-0.8885,-0.8885,-0.8885,-0.8885,-0.8885,-0.8885,0.0,0.0,0.0,0.0,-0.8885,-0.8885,-0.8885,-0.8885,-0.8885,-0.8885,-0.8885,-0.8885,-0.8885,0.0,0.0,0.0,0.0,0.0,0.0,0.0,0.0,0.0,0.0,0.0,0.0,0.0,0.0,0.0,0.0,0.0,0.0,0.0,0.0,0.0,0.0,0.0,0.0,0.0,0.0,0.0,0.0,0.0,0.0,0.0,0.0,-1.1552,-1.1171,-1.0394,0.0,0.0,0.0,0.0,0.0,0.0,0.0,0.0,0.0,0.0,0.0,0.0,0.0,0.0,0.0,0.0,0.0,0.0,0.0,0.0,-0.7988,-0.7988,-0.7988,-0.7988,-0.7988,-0.7988,-0.7988,-0.8025,-0.8113,-0.8113,-0.8228,-0.8377,-0.8523,-0.8638,-0.8757,-0.8854,-0.8885,-0.8885,-0.8885,-0.9022,0.0,0.0,0.0,0.0,0.0,0.0,0.0,0.0,0.0,0.0,0.0,0.0,0.0,0.0,-0.8885,-0.8885,-0.8885,-0.8885,-0.8885,-0.8885,-0.8835,-0.8781,-0.8781,-0.8676,-0.8625,-0.8628,-0.8733,0.0,0.0,0.0,0.0,0.0,-0.8885,-0.8885,-0.8885,-0.8885,-0.8885,-0.8885,-0.8885,-0.8885,-0.8885,0.0,0.0,0.0,0.0,0.0,0.0,0.0,0.0,0.0,0.0,0.0,0.0,0.0,0.0,0.0,0.0,0.0,0.0,0.0,0.0,0.0,0.0,0.0,0.0,0.0,0.0,0.0,0.0,0.0,0.0,0.0,0.0,0.0,0.0,-1.1552,0.0,0.0,0.0,0.0,0.0,0.0,0.0,-0.84,0.0,0.0,0.0,0.0,0.0,0.0,0.0,0.0,0.0,0.0,0.0,0.0,0.0,-0.7988,-0.7988,-0.7988,-0.7988,-0.7988,-0.7988,-0.7988,0.0,-0.8113,-0.8201,-0.8326,-0.8526,-0.8645,-0.8757,-0.8854,-0.8885,-0.8885,-0.8885,-0.9059,0.0,0.0,0.0,0.0,0.0,0.0,0.0,0.0,0.0,0.0,0.0,0.0,0.0,0.0,0.0,-0.8797,-0.8797,-0.8797,-0.8797,-0.8797,-0.8703,-0.8625,-0.8621,-0.8526,-0.8482,-0.8486,-0.8581,0.0,0.0,0.0,0.0,0.0,-0.8885,-0.8885,-0.8885,-0.8885,-0.8885,-0.8885,-0.8885,-0.8885,-0.8885,0.0,0.0,0.0,0.0,0.0,0.0,0.0,0.0,0.0,0.0,0.0,0.0,0.0,0.0,0.0,0.0,0.0,0.0,0.0,0.0,0.0,0.0,0.0,0.0,0.0,0.0,0.0,-1.4088,-1.4088,-1.4088,-1.4088,0.0,0.0,0.0,0.0,0.0,0.0,0.0,0.0,0.0,-1.0611,-1.0611,0.0,0.0,0.0,0.0,0.0,0.0,0.0,0.0,0.0,0.0,0.0,0.0,0.0,0.0,0.0,0.0,0.0,-0.7988,-0.7988,0.0,0.0,0.0,-0.8235,-0.8323,0.0,-0.8648,-0.871,-0.8757,-0.8854,-0.8885,-0.8885,-0.8885,-0.9069,0.0,0.0,0.0,0.0,0.0,0.0,0.0,0.0,0.0,0.0,0.0,0.0,0.0,0.0,0.0,-0.8706,-0.8696,-0.8682,-0.8682,-0.8696,-0.8543,-0.8465,-0.8465,-0.8455,-0.8448,-0.8448,-0.8462,0.0,0.0,0.0,0.0,0.0,-0.8878,-0.8885,-0.8885,-0.8885,-0.8885,-0.8885,-0.8885,-0.8885,-0.8885,0.0,0.0,0.0,0.0,0.0,0.0,0.0,0.0,0.0,0.0,0.0,0.0,0.0,0.0,0.0,0.0,0.0,0.0,0.0,0.0,0.0,0.0,0.0,0.0,0.0,0.0,0.0,-1.4088,-1.4088,-1.4088,-1.4088,-1.4088,0.0,0.0,0.0,-1.3519,-1.3215,0.0,0.0,0.0,-1.0956,-1.0611,0.0,0.0,0.0,0.0,-0.889,-0.8172,0.0,0.0,0.0,0.0,0.0,0.0,0.0,0.0,-0.7988,-0.7988,-0.7988,0.0,-0.7988,-0.7988,-0.7988,-0.8029,0.0,-0.8323,-0.8353,-0.8648,-0.871,-0.8757,-0.8854,-0.8885,-0.8885,-0.8885,-0.9157,0.0,0.0,0.0,0.0,0.0,0.0,0.0,0.0,0.0,0.0,0.0,0.0,0.0,0.0,0.0,-0.8655,-0.854,-0.8431,-0.8425,-0.8533,-0.8391,-0.8371,-0.8371,-0.8201,-0.8093,-0.8147,-0.8265,0.0,0.0,0.0,0.0,-0.8774,-0.8838,-0.8885,-0.8885,-0.8885,-0.8885,-0.8885,-0.8885,-0.8885,-0.8885,0.0,0.0,0.0,0.0,0.0,0.0,0.0,0.0,0.0,0.0,0.0,0.0,0.0,0.0,0.0,0.0,0.0,0.0,0.0,0.0,0.0,0.0,0.0,0.0,0.0,0.0,0.0,0.0,0.0,-1.4088,0.0,0.0,0.0,0.0,0.0,-1.4088,-1.4046,-1.3379,-1.3118,-1.3075,-1.2467,0.0,0.0,0.0,0.0,0.0,-0.9666,-0.8575,0.0,-0.7238,-0.7366,-0.7519,0.0,0.0,0.0,0.0,-0.7988,-0.7988,-0.7988,-0.7988,-0.7988,-0.7988,-0.7988,-0.8046,-0.8316,-0.8367,-0.8452,-0.8754,-0.8815,-0.8842,-0.8868,-0.8885,-0.8885,-0.8885,-0.913,0.0,0.0,0.0,0.0,0.0,0.0,0.0,0.0,0.0,0.0,0.0,0.0,0.0,0.0,0.0,-0.8472,-0.8387,-0.8241,-0.8235,-0.8384,-0.8238,-0.8163,-0.8163,-0.8029,-0.7988,-0.7992,-0.8126,0.0,0.0,0.0,0.0,-0.8716,-0.8801,-0.8821,-0.8885,-0.8885,-0.8885,-0.8885,-0.8885,-0.8885,-0.8885,0.0,0.0,0.0,0.0,0.0,0.0,0.0,0.0,0.0,0.0,0.0,0.0,0.0,0.0,0.0,0.0,0.0,0.0,0.0,0.0,0.0,0.0,0.0,0.0,0.0,0.0,0.0,0.0,0.0,0.0,0.0,0.0,-1.4088,0.0,-1.4088,-1.4088,-1.4088,-1.4088,-1.4088,-1.4088,-1.4088,0.0,0.0,0.0,0.0,0.0,0.0,0.0,0.0,-0.7316,-0.7379,-0.7443,-0.7553,0.0,0.0,0.0,0.0,0.0,-0.7988,-0.7988,-0.7988,-0.7988,-0.7988,-0.8066,-0.8414,-0.8482,-0.8567,-0.8821,0.0,0.0,0.0,-0.8885,0.0,0.0,0.0,0.0,0.0,0.0,0.0,0.0,0.0,0.0,0.0,0.0,0.0,0.0,0.0,0.0,0.0,0.0,0.0,-0.8238,-0.8109,-0.8102,-0.8235,-0.8106,-0.7988,-0.7988,-0.7988,-0.7988,-0.7988,-0.7988,0.0,0.0,0.0,0.0,-0.8676,-0.8703,-0.8801,-0.8885,-0.8885,-0.8885,-0.8885,-0.8885,-0.8885,-0.8885,0.0,0.0,0.0,0.0,0.0,0.0,0.0,0.0,0.0,0.0,0.0,0.0,0.0,0.0,0.0,0.0,0.0,0.0,0.0,0.0,0.0,0.0,0.0,0.0,0.0,0.0,0.0,0.0,0.0,0.0,-1.4088,-1.4088,-1.4088,-1.4088,-1.4088,-1.4088,-1.4088,-1.4088,-1.4088,-1.4088,-1.4088,0.0,0.0,0.0,0.0,0.0,0.0,0.0,0.0,-0.8277,-0.8087,-0.7443,-0.7553,0.0,0.0,0.0,0.0,0.0,-0.7988,-0.7988,-0.7988,-0.7988,-0.7988,-0.8066,-0.8414,-0.8482,-0.8567,0.0,0.0,0.0,0.0,-0.8885,0.0,0.0,0.0,0.0,0.0,0.0,0.0,0.0,0.0,0.0,0.0,0.0,0.0,0.0,0.0,0.0,0.0,0.0,0.0,-0.8029,-0.8002,-0.8002,-0.8025,-0.8002,-0.7988,-0.7988,-0.7988,-0.7988,-0.7988,-0.7988,-0.8002,0.0,0.0,-0.8364,-0.8526,-0.8659,-0.8801,-0.8885,-0.8885,-0.8885,-0.8885,-0.8885,-0.8885,-0.8885,0.0,0.0,0.0,0.0,0.0,0.0,0.0,0.0,0.0,0.0,0.0,0.0,0.0,0.0,0.0,0.0,0.0,0.0,0.0,0.0,0.0,0.0,0.0,0.0,0.0,0.0,0.0,0.0,0.0,-1.4088,-1.4088,-1.4088,-1.4088,-1.4088,-1.4088,-1.4088,-1.4088,-1.4088,-1.4088,-1.4088,0.0,0.0,0.0,0.0,0.0,0.0,0.0,0.0,0.0,0.0,-0.7627,-0.7275,-0.7428,0.0,0.0,0.0,0.0,0.0,-0.7988,-0.7988,-0.7988,-0.7988,-0.8102,-0.8221,-0.8435,-0.8547,-0.8669,0.0,0.0,0.0,0.0,0.0,0.0,0.0,0.0,0.0,0.0,0.0,0.0,0.0,0.0,0.0,0.0,0.0,0.0,0.0,0.0,0.0,0.0,0.0,0.0,0.0,-0.7988,-0.7988,-0.7988,-0.7988,-0.7988,-0.7988,-0.7988,-0.7988,-0.7988,-0.7988,-0.7988,-0.7992,0.0,-0.8272,-0.8486,-0.8557,-0.8726,-0.8885,-0.8885,-0.8885,-0.8885,-0.8885,-0.8885,-0.8885,0.0,0.0,0.0,0.0,0.0,0.0,0.0,0.0,0.0,0.0,0.0,0.0,0.0,0.0,0.0,0.0,0.0,0.0,0.0,0.0,0.0,0.0,0.0,0.0,0.0,0.0,-1.705,-1.5696,-1.4894,-1.4334,-1.4088,-1.4088,-1.4088,-1.4088,-1.4088,-1.4088,-1.4088,-1.4088,-1.4088,-1.4088,0.0,0.0,0.0,0.0,0.0,0.0,0.0,0.0,0.0,0.0,0.0,0.0,0.0,0.0,0.0,-0.7814,-0.7897,-0.7988,-0.7988,-0.7988,-0.7998,-0.8032,-0.8184,-0.8357,-0.8452,-0.8601,-0.8754,0.0,0.0,0.0,0.0,0.0,0.0,0.0,0.0,0.0,0.0,0.0,0.0,0.0,0.0,0.0,0.0,0.0,0.0,0.0,0.0,0.0,0.0,0.0,0.0,0.0,-0.7988,-0.7988,-0.7988,-0.7988,-0.7988,-0.7988,-0.7988,-0.7988,-0.7988,-0.7988,-0.7988,-0.7988,-0.7988,-0.8187,-0.8435,-0.8469,-0.8642,-0.8834,-0.8868,-0.8885,-0.8885,-0.8885,-0.8885,-0.8885,0.0,0.0,0.0,0.0,0.0,0.0,0.0,0.0,0.0,0.0,0.0,0.0,0.0,0.0,0.0,0.0,0.0,0.0,0.0,0.0,0.0,0.0,0.0,0.0,0.0,-1.8917,-1.7819,-1.5696,-1.5621,-1.5095,-1.4088,-1.4088,-1.4088,-1.4088,-1.4088,-1.4088,-1.4088,-1.4088,-1.4088,-1.4088,-1.4088,0.0,0.0,0.0,0.0,0.0,0.0,0.0,0.0,0.0,0.0,0.0,0.0,0.0,-0.7655,-0.7891,-0.7982,-0.7988,-0.7988,-0.7988,-0.8022,-0.8218,-0.8313,-0.8357,-0.8452,-0.8601,-0.8754,-0.8851,0.0,0.0,0.0,0.0,0.0,0.0,0.0,0.0,0.0,0.0,0.0,0.0,0.0,0.0,0.0,0.0,0.0,0.0,0.0,0.0,0.0,0.0,0.0,0.0,0.0,-0.7988,-0.7988,-0.7988,-0.7988,-0.7988,-0.7988,-0.7988,-0.7988,-0.7988,-0.7988,-0.7988,-0.7988,-0.8133,-0.8347,-0.8428,-0.8577,-0.874,-0.8828,-0.8885,-0.8885,-0.8885,-0.8885,-0.8885,0.0,0.0,0.0,0.0,0.0,0.0,0.0,0.0,0.0,0.0,0.0,0.0,0.0,0.0,0.0,0.0,0.0,0.0,0.0,0.0,0.0,0.0,0.0,-2.0079,-1.9036,-1.831,-1.7212,-1.5696,-1.5012,-1.4489,-1.4088,-1.4088,0.0,-1.4088,-1.4088,-1.4088,-1.4088,-1.4088,-1.4088,-1.4088,-1.4088,-1.4088,0.0,0.0,0.0,0.0,0.0,0.0,0.0,0.0,-0.7492,-0.7132,-0.739,-0.7522,-0.7638,-0.7838,-0.7917,-0.7988,-0.7988,-0.7988,-0.8025,-0.8231,-0.8336,-0.8442,-0.8591,-0.8743,-0.8814,-0.8871,-0.8885,0.0,0.0,0.0,0.0,0.0,0.0,0.0,0.0,0.0,0.0,0.0,0.0,0.0,0.0,0.0,0.0,0.0,0.0,0.0,0.0,0.0,0.0,0.0,0.0,-0.7988,-0.7988,-0.7988,-0.7988,-0.7988,-0.7988,-0.7988,-0.7988,-0.7988,-0.7988,-0.7988,-0.7988,-0.8126,-0.8333,-0.8425,-0.857,-0.8726,-0.8824,-0.8885,-0.8885,-0.8885,-0.8885,-0.8885,0.0,0.0,0.0,0.0,0.0,0.0,0.0,0.0,0.0,0.0,0.0,0.0,0.0,0.0,0.0,0.0,0.0,0.0,0.0,0.0,0.0,0.0,0.0,-2.0245,-1.952,-1.8069,-1.6764,-1.5696,-1.4615,-1.4088,-1.4088,0.0,0.0,-1.4088,-1.4088,-1.4088,-1.4088,-1.4088,-1.4088,-1.4088,-1.4088,-1.4088,0.0,0.0,0.0,0.0,0.0,0.0,0.0,0.0,-0.7095,-0.7132,-0.738,-0.7516,-0.7638,-0.7828,-0.7907,-0.7988,-0.7988,-0.8025,-0.8147,-0.8299,-0.8445,-0.8594,-0.8747,-0.8807,-0.8885,-0.8885,-0.8885,0.0,0.0,0.0,0.0,0.0,0.0,0.0,0.0,0.0,0.0,0.0,0.0,0.0,0.0,0.0,0.0,0.0,0.0,0.0,0.0,0.0,0.0,0.0,0.0,0.0,-0.7988,-0.7988,-0.7988,-0.7988,-0.7988,-0.7988,-0.7988,-0.7988,-0.7988,-0.7988,-0.7988,-0.8099,-0.8211,-0.8401,-0.8601,-0.8794,-0.8844,-0.8885,-0.8885,-0.8885,-0.8885,-0.8885,0.0,0.0,0.0,0.0,0.0,0.0,0.0,0.0,0.0,0.0,0.0,0.0,0.0,0.0,0.0,0.0,0.0,0.0,0.0,0.0,0.0,0.0,0.0,-2.0605,-2.0566,-1.843,-1.6764,-1.5696,-1.4615,-1.4088,-1.4088,-1.4088,0.0,-1.4088,-1.4088,-1.4088,-1.4088,-1.4088,-1.4088,-1.4088,-1.4088,-1.4088,-1.3955,0.0,0.0,0.0,0.0,0.0,0.0,0.0,-0.7095,-0.7149,-0.7502,-0.76,-0.7658,-0.7904,-0.7988,-0.7988,-0.7992,-0.8153,-0.8354,-0.8448,-0.8598,-0.875,-0.8848,-0.8885,-0.8885,-0.8885,-0.8885,-0.8885,-0.8885,0.0,0.0,0.0,0.0,0.0,0.0,0.0,0.0,0.0,0.0,0.0,0.0,0.0,0.0,0.0,0.0,0.0,0.0,0.0,0.0,0.0,0.0,0.0,-0.7988,-0.7988,-0.7988,-0.7988,-0.7988,-0.7988,-0.7988,-0.7988,-0.7988,-0.7988,-0.7988,-0.7988,-0.8012,-0.836,-0.8662,-0.8881,-0.8885,-0.8885,-0.8885,-0.8885,-0.8885,-0.8885,0.0,0.0,0.0,0.0,0.0,0.0,0.0,0.0,0.0,0.0,0.0,0.0,0.0,0.0,0.0,0.0,0.0,0.0,0.0,0.0,0.0,0.0,0.0,0.0,0.0,0.0,-1.567,-1.4573,-1.425,-1.4088,0.0,0.0,-1.4088,-1.4088,-1.4088,-1.4088,-1.4088,-1.4088,-1.4088,-1.4088,-1.4088,-1.3597,-1.2808,0.0,0.0,0.0,0.0,0.0,0.0,0.0,0.0,0.0,-0.7502,-0.76,-0.7658,-0.7904,-0.7988,-0.8012,-0.8174,-0.8157,-0.8194,-0.8554,0.0,0.0,0.0,-0.8885,0.0,0.0,-0.8885,-0.8885,0.0,0.0,0.0,0.0,0.0,0.0,0.0,0.0,0.0,0.0,0.0,0.0,0.0,0.0,0.0,0.0,0.0,0.0,0.0,0.0,0.0,0.0,0.0,0.0,-0.7988,-0.7988,-0.7988,-0.7988,-0.7988,-0.7988,-0.7988,-0.7988,-0.7988,-0.7988,-0.7988,-0.7988,-0.8012,-0.836,-0.8601,-0.8791,-0.8841,-0.8885,-0.8885,-0.8885,-0.8885,-0.8885,0.0,0.0,0.0,0.0,0.0,0.0,0.0,0.0,0.0,0.0,-2.0605,-2.0605,0.0,0.0,0.0,0.0,0.0,0.0,0.0,0.0,0.0,0.0,0.0,0.0,0.0,-1.7009,-1.5587,0.0,0.0,0.0,0.0,-1.4088,-1.4088,-1.4088,-1.4088,-1.4088,-1.4088,-1.4088,-1.4088,-1.4088,-1.4088,-1.3646,-1.2899,0.0,0.0,0.0,0.0,0.0,0.0,0.0,0.0,0.0,-0.7522,-0.7638,-0.7729,-0.7921,-0.7988,-0.8008,-0.8153,-0.8197,-0.8279,-0.855,-0.8642,-0.8713,-0.8841,0.0,0.0,0.0,0.0,0.0,0.0,0.0,0.0,0.0,0.0,0.0,0.0,0.0,0.0,0.0,0.0,0.0,0.0,0.0,0.0,0.0,0.0,0.0,0.0,0.0,0.0,0.0,0.0,0.0,-0.7988,-0.7988,-0.7988,-0.7988,-0.7988,-0.7988,-0.7988,-0.7988,-0.7988,-0.7988,-0.7988,-0.8025,-0.815,-0.8384,-0.857,-0.8726,-0.8824,-0.8885,-0.8885,-0.8885,-0.8885,-0.8885,0.0,0.0,0.0,0.0,0.0,0.0,0.0,0.0,0.0,0.0,-2.0605,-2.0605,0.0,0.0,0.0,0.0,0.0,0.0,0.0,0.0,0.0,0.0,0.0,0.0,0.0,0.0,0.0,0.0,0.0,0.0,-1.4088,-1.4088,-1.4088,-1.4088,-1.4088,-1.4088,-1.4088,-1.4088,-1.4088,-1.4088,-1.4088,-1.3955,-1.3561,-1.1391,0.0,0.0,0.0,0.0,0.0,0.0,0.0,0.0,-0.7553,-0.7695,-0.7841,-0.7944,-0.7988,-0.7992,-0.8008,-0.8258,-0.8469,-0.8496,-0.8723,0.0,-0.8885,-0.8871,-0.8861,0.0,0.0,0.0,0.0,0.0,0.0,0.0,0.0,0.0,0.0,0.0,0.0,0.0,0.0,0.0,0.0,0.0,0.0,0.0,0.0,0.0,0.0,0.0,0.0,0.0,0.0,0.0,-0.7988,-0.7988,-0.7988,0.0,-0.7988,-0.7988,-0.7988,-0.7988,-0.7988,-0.7988,-0.7988,-0.8119,-0.8262,-0.8418,-0.8564,-0.8706,-0.8817,-0.8885,-0.8885,-0.8885,-0.8885,-0.8885,0.0,0.0,0.0,0.0,0.0,0.0,0.0,0.0,0.0,0.0,0.0,0.0,0.0,0.0,0.0,0.0,0.0,0.0,0.0,0.0,0.0,0.0,0.0,0.0,0.0,0.0,0.0,0.0,0.0,-1.4088,-1.4088,-1.4088,-1.4088,-1.4088,-1.4088,-1.4088,-1.4088,-1.4088,-1.4088,-1.4088,-1.4088,-1.2997,-1.1305,-1.0783,-0.944,0.0,0.0,0.0,0.0,0.0,0.0,0.0,-0.7553,-0.7695,-0.7841,-0.7944,-0.7988,-0.8015,-0.8187,-0.8265,-0.837,-0.8604,-0.8801,-0.8885,-0.8885,-0.8845,-0.876,0.0,0.0,0.0,0.0,0.0,0.0,0.0,0.0,0.0,0.0,0.0,0.0,0.0,0.0,0.0,0.0,0.0,0.0,0.0,0.0,0.0,0.0,0.0,0.0,0.0,0.0,-0.7988,-0.7988,-0.7988,-0.7988,0.0,-0.7988,-0.7988,-0.7988,-0.7988,-0.7988,-0.7988,-0.7988,-0.8008,-0.8109,-0.8374,-0.8503,-0.8557,-0.8832,-0.8885,-0.8885,-0.8885,-0.8885,-0.8885,0.0,0.0,0.0,0.0,0.0,0.0,0.0,0.0,0.0,0.0,0.0,0.0,0.0,0.0,0.0,0.0,0.0,0.0,0.0,0.0,0.0,0.0,0.0,0.0,0.0,0.0,0.0,0.0,0.0,-1.4088,-1.4088,-1.4088,-1.4088,-1.4088,-1.4088,-1.4088,-1.4088,-1.4088,-1.4088,-1.4088,-1.4088,-1.3392,-1.2169,-1.1042,-0.9831,-0.8619,-0.7489,0.0,0.0,0.0,0.0,0.0,0.0,0.0,-0.7887,-0.7968,-0.7988,-0.8008,-0.8136,-0.8214,-0.834,-0.8635,0.0,-0.8865,-0.8845,-0.8767,0.0,0.0,0.0,0.0,0.0,0.0,0.0,0.0,0.0,0.0,0.0,0.0,0.0,0.0,0.0,0.0,0.0,0.0,0.0,0.0,0.0,0.0,0.0,0.0,0.0,0.0,-0.7988,-0.7988,-0.7988,-0.7988,-0.7988,-0.7988,-0.7988,-0.7988,-0.7988,-0.7988,-0.7988,-0.7988,-0.7988,-0.7988,-0.8012,-0.836,-0.8482,-0.8513,-0.8818,-0.8885,-0.8885,-0.8885,-0.8885,-0.8885,0.0,0.0,0.0,0.0,0.0,0.0,0.0,0.0,0.0,0.0,0.0,0.0,0.0,0.0,0.0,0.0,0.0,0.0,0.0,0.0,0.0,0.0,0.0,0.0,0.0,0.0,0.0,0.0,-1.4615,-1.4088,-1.4088,-1.4088,-1.4088,-1.4088,-1.4088,-1.4088,-1.4088,-1.4088,-1.4088,-1.4088,-1.4088,-1.3997,-1.3561,-1.1391,-1.0481,-1.0005,-0.7878,-0.7112,-0.72,-0.7329,0.0,0.0,0.0,0.0,-0.7988,-0.7988,-0.7988,-0.7995,-0.8022,-0.8191,-0.8367,-0.8611,-0.8767,0.0,-0.8699,-0.8488,0.0,0.0,0.0,0.0,0.0,0.0,0.0,0.0,0.0,0.0,0.0,0.0,0.0,0.0,0.0,0.0,0.0,0.0,0.0,0.0,0.0,0.0,0.0,0.0,-0.7988,-0.7988,-0.7988,-0.7988,-0.7988,-0.7988,-0.7988,-0.7988,-0.7988,-0.7988,-0.7988,-0.7988,-0.7988,-0.7988,-0.7988,-0.7988,-0.8012,-0.8333,-0.8459,-0.8509,-0.8791,-0.8861,-0.8885,-0.8885,-0.8885,-0.8885,0.0,0.0,0.0,0.0,0.0,0.0,0.0,0.0,0.0,0.0,-2.0673,-2.0605,0.0,0.0,0.0,0.0,0.0,0.0,0.0,0.0,0.0,0.0,0.0,0.0,0.0,0.0,0.0,0.0,-1.4615,-1.4088,-1.4088,-1.4088,-1.4088,-1.4088,-1.4088,-1.4088,-1.4088,-1.4088,-1.4088,-1.4088,-1.4088,-1.347,-1.2419,-1.1085,-0.9966,-0.893,-0.7577,-0.7227,-0.7343,-0.7409,-0.7553,0.0,0.0,0.0,-0.7988,-0.7988,-0.7988,-0.8019,-0.8204,-0.8343,-0.8462,0.0,-0.8526,-0.8537,0.0,0.0,0.0,0.0,0.0,0.0,0.0,0.0,0.0,0.0,0.0,0.0,0.0,0.0,0.0,0.0,0.0,0.0,0.0,0.0,0.0,0.0,0.0,0.0,0.0,-0.7988,-0.7988,-0.7988,-0.7988,-0.7988,-0.7988,-0.7988,-0.7988,-0.7988,-0.7988,-0.7988,-0.7988,-0.7988,-0.7988,-0.7988,-0.7988,-0.7988,-0.8005,-0.8228,-0.837,-0.8499,-0.8672,-0.8821,-0.8885,-0.8885,-0.8885,-0.8885,0.0,0.0,0.0,0.0,0.0,0.0,0.0,0.0,0.0,0.0,0.0,-2.0605,0.0,0.0,0.0,0.0,0.0,0.0,0.0,0.0,0.0,0.0,0.0,0.0,0.0,0.0,0.0,-1.6601,-1.5504,-1.4699,-1.4088,-1.4088,-1.4088,-1.4088,-1.4088,-1.4088,-1.4088,-1.4088,-1.4088,-1.4088,-1.4088,-1.3379,-1.2242,-1.1724,-1.0438,0.0,0.0,0.0,-0.7429,-0.7468,-0.7638,-0.7828,-0.7913,0.0,0.0,0.0,-0.7988,-0.8005,-0.8123,-0.8252,-0.8205,0.0,-0.731,-0.7136,-0.6279,0.0,0.0,0.0,0.0,0.0,0.0,0.0,0.0,0.0,0.0,0.0,0.0,0.0,0.0,0.0,0.0,0.0,0.0,0.0,0.0,0.0,0.0,0.0,-0.7939,-0.7988,-0.7988,-0.7988,-0.7988,-0.7988,-0.7988,-0.7988,-0.7988,-0.7988,-0.7988,-0.7988,-0.7988,-0.7988,-0.7988,-0.7988,-0.7988,-0.7988,-0.8002,-0.8208,-0.8353,-0.8499,-0.8652,-0.8804,-0.8885,-0.8885,-0.8885,-0.8885,0.0,0.0,0.0,0.0,0.0,0.0,0.0,0.0,0.0,0.0,0.0,0.0,0.0,0.0,0.0,0.0,0.0,0.0,0.0,0.0,0.0,0.0,0.0,0.0,0.0,0.0,-1.8149,-1.7302,-1.5951,-1.4894,-1.4088,-1.4088,-1.4088,-1.4088,-1.4088,-1.4088,-1.4088,-1.4088,-1.4088,-1.4088,-1.4088,-1.3555,-1.2681,-1.2114,0.0,0.0,0.0,0.0,0.0,0.0,0.0,0.0,0.0,-0.7988,0.0,0.0,0.0,-0.7989,-0.7596,0.0,-0.7479,-0.6052,-0.5796,-0.5575,0.0,0.0,0.0,0.0,0.0,0.0,0.0,0.0,0.0,0.0,0.0,0.0,0.0,0.0,0.0,0.0,0.0,0.0,0.0,0.0,0.0,0.0,0.0,0.0,-0.7889,-0.7988,-0.7988,-0.7988,-0.7988,-0.7988,-0.7988,-0.7988,-0.7988,-0.7988,-0.7988,-0.7988,-0.7988,-0.7988,-0.7988,-0.7988,-0.7988,-0.7988,-0.7998,-0.8163,-0.8319,-0.8492,-0.8608,-0.8771,-0.8885,-0.8885,-0.8885,-0.8885,0.0,0.0,0.0,0.0,0.0,0.0,0.0,0.0,0.0,0.0,0.0,0.0,0.0,0.0,-2.0605,-2.0605,0.0,0.0,0.0,0.0,0.0,0.0,0.0,0.0,0.0,0.0,-1.7374,-1.7302,-1.5228,-1.4166,-1.4088,-1.4088,-1.4088,-1.4088,-1.4088,-1.4088,-1.4088,-1.4088,-1.4088,0.0,0.0,0.0,0.0,0.0,0.0,0.0,0.0,0.0,0.0,0.0,0.0,0.0,0.0,0.0,0.0,0.0,0.0,0.0,0.0,-0.626,0.0,-0.4493,-0.4124,0.0,0.0,0.0,0.0,0.0,0.0,0.0,0.0,0.0,0.0,0.0,0.0,0.0,0.0,0.0,0.0,0.0,0.0,0.0,0.0,0.0,0.0,0.0,0.0,0.0,-0.7839,-0.7988,-0.7988,-0.7988,-0.7988,-0.7988,-0.7988,-0.7988,-0.7988,-0.7988,-0.7988,-0.7988,-0.7988,-0.7988,-0.7988,-0.7988,-0.7988,-0.7988,-0.7988,-0.7998,-0.8221,-0.8482,-0.8489,-0.8676,-0.8885,-0.8885,-0.8885,-0.8885,0.0,0.0,0.0,0.0,0.0,0.0,0.0,0.0,0.0,0.0,0.0,0.0,0.0,-2.0605,-2.0605,-2.0605,-2.0605,0.0,0.0,0.0,0.0,0.0,0.0,0.0,0.0,-1.8798,-1.7698,-1.6273,-1.5504,-1.4776,-1.4088,-1.4088,-1.4088,-1.4088,-1.4088,-1.4088,-1.4088,-1.4088,0.0,0.0,0.0,0.0,0.0,0.0,0.0,0.0,0.0,0.0,0.0,0.0,0.0,0.0,0.0,0.0,0.0,0.0,0.0,-0.669,0.0,0.0,0.0,-0.307,-0.2715,-0.2514,0.0,0.0,0.0,0.0,0.0,0.0,0.0,0.0,0.0,0.0,0.0,0.0,0.0,0.0,0.0,0.0,0.0,0.0,0.0,0.0,0.0,0.0,0.0,0.0,-0.7839,-0.7988,-0.7988,-0.7988,-0.7988,-0.7988,-0.7988,-0.7988,-0.7988,-0.7988,-0.7988,-0.7988,-0.7988,-0.7988,-0.7988,-0.7988,-0.7988,-0.7988,-0.7988,-0.7988,-0.8214,-0.8482,-0.8482,-0.8669,-0.8885,-0.8885,-0.8885,-0.8885,0.0,0.0,0.0,0.0,0.0,0.0,0.0,0.0,0.0,0.0,0.0,0.0,0.0,0.0,-2.0605,-2.0605,-2.0605,-2.0605,-2.0605,-2.0605,0.0,0.0,0.0,0.0,0.0,-1.8261,-1.7163,-1.5696,-1.5338,-1.4817,-1.4088,-1.4088,-1.4088,-1.4088,-1.4088,-1.4088,-1.4088,0.0,0.0,-1.4088,0.0,0.0,-1.2942,0.0,0.0,0.0,0.0,0.0,0.0,0.0,0.0,0.0,0.0,0.0,0.0,0.0,0.0,0.0,-0.6129,0.0,0.0,0.0,-0.1661,-0.1109,0.0,0.0,0.0,0.0,0.0,0.0,0.0,0.0,0.0,0.0,0.0,0.0,0.0,0.0,0.0,0.0,0.0,0.0,0.0,0.0,0.0,0.0,0.0,0.0,-0.7839,-0.7988,-0.7988,-0.7988,-0.7988,-0.7988,-0.7988,-0.7988,-0.7988,-0.7988,-0.7988,-0.7988,-0.7988,-0.7988,-0.7988,-0.7988,-0.7988,-0.7988,-0.7988,-0.7988,-0.8214,-0.8482,-0.8482,-0.8669,-0.8885,-0.8885,-0.8885,-0.8885,0.0,0.0,0.0,0.0,0.0,0.0,0.0,0.0,0.0,0.0,0.0,0.0,0.0,0.0,0.0,-2.0605,-2.0605,-2.0605,-2.0605,-2.0566,0.0,0.0,0.0,0.0,0.0,-1.6797,-1.5696,-1.5655,-1.4608,-1.4088,-1.4088,-1.4088,-1.4088,-1.4088,-1.4088,-1.4088,-1.4088,0.0,-1.4088,-1.4088,0.0,-1.4088,-1.3955,0.0,0.0,0.0,-1.0228,-0.9545,0.0,0.0,0.0,0.0,0.0,0.0,0.0,0.0,0.0,0.0,0.0,0.0,0.0,0.0,0.0,0.0,0.0,0.0,0.0,0.0,0.0,0.0,0.0,0.0,0.0,0.0,0.0,0.0,0.0,0.0,0.0,0.0,0.0,0.0,0.0,0.0,0.0,0.0,0.0,-0.5168,-0.7839,-0.7988,-0.7988,-0.7988,-0.7988,-0.7988,-0.7988,-0.7988,-0.7988,-0.7988,-0.7988,-0.7988,-0.7988,-0.7988,-0.7988,-0.7988,-0.7988,-0.7988,-0.7988,-0.7988,-0.8214,-0.8482,-0.8482,-0.8669,-0.8885,-0.8885,-0.8885,-0.8885,0.0,0.0,0.0,0.0,0.0,0.0,0.0,0.0,0.0,0.0,0.0,0.0,0.0,0.0,-2.0605,-2.0605,-2.0605,-2.0605,-2.0605,-1.9883,-1.9441,-1.9441,-1.839,0.0,0.0,0.0,0.0,0.0,0.0,0.0,0.0,0.0,0.0,0.0,-1.4088,-1.4088,-1.4088,-1.4088,0.0,-1.4088,-1.4088,-1.4088,0.0,0.0,0.0,0.0,0.0,-1.0807,-0.94,0.0,-0.8724,-0.7988,0.0,0.0,0.0,0.0,0.0,0.0,-0.6079,0.0,0.0,0.0,0.0,0.0,-0.0202,0.0,0.0,0.0,0.0,0.0,0.0,0.0,0.0,0.0,0.0,0.0,0.0,0.0,0.0,0.0,0.0,0.0,0.0,0.0,0.0,0.0,-0.4016,-0.5168,-0.7839,-0.7988,-0.7988,-0.7988,-0.7988,-0.7988,-0.7988,-0.7988,-0.7988,-0.7988,-0.7988,-0.7988,-0.7988,-0.7988,-0.7988,-0.7988,-0.7988,-0.7988,-0.7988,-0.7988,-0.8214,-0.8482,-0.8482,-0.8669,-0.8885,-0.8885,-0.8885,-0.8885,0.0,0.0,0.0,0.0,0.0,0.0,0.0,0.0,0.0,0.0,0.0,0.0,0.0,0.0,0.0,-2.0605,-2.0196,-1.9923,-1.9923,-1.8917,-1.831,-1.831,-1.7212,-1.6355,-1.5696,0.0,0.0,0.0,0.0,0.0,0.0,0.0,0.0,0.0,0.0,0.0,0.0,0.0,0.0,0.0,-1.4088,0.0,0.0,-1.4088,-1.3717,0.0,0.0,0.0,-1.0978,-1.0771,-0.9856,0.0,0.0,0.0,0.0,0.0,0.0,0.0,0.0,0.0,0.0,0.0,0.0,0.0,-0.1862,-0.126,-0.0857,0.0,0.0,0.0,0.0,0.0,0.0,0.0,0.0,0.0,0.0,0.0,0.0,0.0,0.0,0.0,0.0,0.0,0.0,0.0,-0.4016,-0.5168,-0.7839,-0.7988,-0.7988,-0.7988,-0.7988,-0.7988,-0.7988,-0.7988,-0.7988,-0.7988,-0.7988,-0.7988,-0.7988,-0.7988,-0.7988,-0.7988,-0.7988,-0.7988,-0.7988,-0.7988,-0.8214,-0.8482,-0.8482,-0.8669,-0.8885,-0.8885,-0.8885,-0.8885,0.0,0.0,0.0,0.0,0.0,0.0,0.0,0.0,0.0,0.0,0.0,0.0,0.0,0.0,0.0,0.0,-1.9353,-1.8798,-1.8798,-1.7738,0.0,-1.7131,-1.6108,-1.5538,-1.5538,0.0,0.0,0.0,0.0,0.0,0.0,0.0,0.0,0.0,0.0,0.0,0.0,0.0,0.0,-1.4088,-1.4088,-1.4088,0.0,0.0,-1.4249,0.0,-1.3509,-1.3302,-1.3205,-1.2245,-1.1068,0.0,0.0,0.0,0.0,0.0,-0.7988,0.0,0.0,0.0,0.0,0.0,0.0,0.0,-0.4016,-0.2964,-0.2013,0.0,0.0,0.0,0.0,0.0,0.0,0.0,0.0,0.0,0.0,0.0,0.0,0.0,0.0,0.0,0.0,0.0,-0.126,-0.3815,-0.4266,-0.547,-0.7889,-0.7988,-0.7988,-0.7988,-0.7988,-0.7988,-0.7988,-0.7988,-0.7988,-0.7988,-0.7988,-0.7988,-0.7988,-0.7988,-0.7988,-0.7988,-0.7988,-0.7988,-0.7988,-0.7988,-0.8214,-0.8482,-0.8482,-0.8669,-0.8885,-0.8885,-0.8885,-0.8885,0.0,0.0,0.0,0.0,0.0,0.0,0.0,0.0,0.0,0.0,0.0,0.0,0.0,0.0,0.0,0.0,-1.7738,-1.7617,-1.7617,-1.6601,-1.6026,-1.6026,-1.4977,-1.4412,-1.4412,-1.4208,0.0,0.0,0.0,0.0,0.0,0.0,0.0,0.0,0.0,0.0,0.0,0.0,0.0,-1.4088,-1.4088,0.0,-1.4088,-1.4088,-1.4122,-1.4242,-1.4497,-1.3927,-1.2974,0.0,-1.1068,-0.9948,0.0,0.0,0.0,0.0,0.0,0.0,0.0,0.0,0.0,0.0,0.0,0.0,-0.4268,-0.2964,-0.2013,0.0,0.0,0.0,0.0,0.0,0.0,0.0,0.0,0.0,0.0,0.0,0.0,0.0,0.0,0.0,0.0,0.0,-0.2264,-0.3865,-0.6022,-0.7434,-0.7988,-0.7988,-0.7988,-0.7988,-0.7988,-0.7988,-0.7988,-0.7988,-0.7988,-0.7988,-0.7988,-0.7988,-0.7988,-0.7988,-0.7988,-0.7988,-0.7988,-0.7988,-0.7988,-0.7988,-0.8214,-0.8482,-0.8482,-0.8669,-0.8885,-0.8885,-0.8885,-0.8885,0.0,0.0,0.0,0.0,0.0,0.0,0.0,0.0,0.0,0.0,0.0,0.0,0.0,0.0,0.0,0.0,0.0,0.0,0.0,0.0,-1.4894,-1.4894,-1.437,-1.4088,-1.4088,-1.4088,-1.4088,0.0,0.0,0.0,0.0,0.0,0.0,0.0,0.0,0.0,0.0,0.0,-1.4088,-1.4088,-1.4088,0.0,-1.4088,-1.4088,-1.4088,-1.4162,-1.4794,-1.4722,-1.4244,-1.3264,-1.2474,0.0,0.0,-1.0047,-0.9019,0.0,-0.8531,-0.7988,0.0,0.0,0.0,-0.7182,0.0,0.0,0.0,-0.497,-0.3819,-0.3115,0.0,0.0,0.0,0.0,0.0,0.0,0.0,0.0,0.0,0.0,0.0,0.0,0.0,0.0,0.0,0.0,-0.3566,-0.492,-0.688,-0.7988,-0.7988,-0.7988,-0.7988,-0.7988,-0.7988,-0.7988,-0.7988,-0.7988,-0.7988,-0.7988,-0.7988,-0.7988,-0.7988,-0.7988,-0.7988,-0.7988,-0.7988,-0.7988,-0.7988,-0.7988,-0.8214,-0.8482,-0.8482,-0.8669,-0.8885,-0.8885,-0.8885,-0.8885,-1.722,0.0,0.0,0.0,0.0,0.0,0.0,0.0,0.0,0.0,0.0,0.0,0.0,0.0,0.0,0.0,0.0,0.0,0.0,0.0,0.0,0.0,-1.4088,-1.4088,-1.4088,-1.4088,-1.4088,0.0,0.0,0.0,0.0,0.0,0.0,0.0,0.0,0.0,0.0,0.0,0.0,-1.4088,0.0,-1.4088,-1.4088,-1.4088,-1.4088,-1.4162,-1.4794,-1.5297,-1.5556,-1.459,0.0,-1.3734,-1.2619,-1.1409,0.0,0.0,0.0,0.0,0.0,0.0,0.0,0.0,0.0,-0.7988,0.0,0.0,0.0,-0.4618,0.0,0.0,0.0,0.0,0.0,0.0,0.0,0.0,0.0,0.0,0.0,0.0,0.0,0.0,0.0,0.0,-0.492,-0.6279,-0.7385,-0.7988,-0.7988,-0.7988,-0.7988,-0.7988,-0.7988,-0.7988,-0.7988,-0.7988,-0.7988,-0.7988,-0.7988,-0.7988,-0.7988,-0.7988,-0.7988,-0.7988,-0.7988,-0.7988,-0.7988,-0.7988,-0.8214,-0.8482,-0.8482,-0.8669,-0.8885,-0.8885,-0.8885,-0.8885,-1.6935,-1.6519,0.0,0.0,0.0,0.0,0.0,0.0,0.0,-1.458,0.0,0.0,0.0,0.0,0.0,0.0,0.0,0.0,-1.4292,0.0,0.0,0.0,0.0,0.0,-1.4088,-1.4088,-1.4088,-1.4088,0.0,0.0,0.0,0.0,0.0,0.0,-1.4088,0.0,0.0,0.0,-1.4088,0.0,-1.4088,-1.4088,0.0,-1.4088,-1.4088,-1.4162,-1.4794,-1.517,-1.5438,0.0,-1.4848,-1.3878,0.0,-1.2764,0.0,0.0,0.0,0.0,0.0,0.0,0.0,0.0,-0.7988,0.0,0.0,0.0,-0.5979,-0.5827,0.0,0.0,0.0,0.0,0.0,0.0,0.0,0.0,0.0,0.0,0.0,0.0,0.0,0.0,0.0,0.0,0.0,-0.7686,-0.7889,-0.7988,-0.7988,-0.7988,-0.7988,-0.7988,-0.7988,-0.7988,-0.7988,-0.7988,-0.7988,-0.7988,-0.7988,-0.7988,-0.7988,-0.7988,-0.7988,-0.7988,-0.7988,-0.7988,-0.7988,-0.7988,-0.8214,-0.8482,-0.8482,-0.8669,-0.8885,-0.8885,-0.8885,-0.8885,-1.5269,-1.5061,0.0,0.0,0.0,0.0,0.0,0.0,0.0,0.0,0.0,0.0,0.0,0.0,0.0,0.0,0.0,-1.4088,0.0,0.0,0.0,0.0,0.0,0.0,0.0,-1.4088,-1.4088,-1.4088,-1.4088,0.0,0.0,0.0,0.0,0.0,-1.4088,0.0,-1.4088,0.0,-1.4088,0.0,0.0,0.0,0.0,-1.4088,-1.4195,-1.4369,-1.4616,-1.5003,-1.5418,0.0,-1.5191,0.0,0.0,0.0,0.0,0.0,0.0,0.0,0.0,0.0,0.0,0.0,0.0,0.0,0.0,0.0,-0.6933,0.0,0.0,0.0,0.0,0.0,0.0,0.0,0.0,0.0,0.0,0.0,0.0,0.0,0.0,0.0,0.0,0.0,0.0,0.0,0.0,-0.7988,-0.7988,-0.7988,-0.7988,-0.7988,-0.7988,-0.7988,-0.7988,-0.7988,-0.7988,-0.7988,-0.7988,-0.7988,-0.7988,-0.7988,-0.7988,-0.7988,-0.7988,-0.7988,-0.7995,-0.8136,-0.8296,-0.8489,-0.8581,-0.8747,-0.8885,-0.8885,-0.8885,-0.8885,-1.4088,0.0,0.0,0.0,0.0,0.0,0.0,0.0,0.0,0.0,0.0,0.0,-1.4088,-1.4088,0.0,0.0,-1.4088,-1.4088,0.0,0.0,-1.4088,0.0,0.0,0.0,0.0,0.0,0.0,-1.4088,0.0,0.0,0.0,0.0,0.0,0.0,0.0,-1.4088,-1.4088,0.0,-1.4088,-1.4088,-1.4088,-1.4088,-1.4088,-1.4088,-1.4215,-1.4409,-1.4489,-1.4796,-1.517,-1.5251,-1.5277,0.0,-1.5618,0.0,0.0,0.0,0.0,0.0,-1.1307,0.0,0.0,0.0,0.0,0.0,0.0,0.0,0.0,0.0,0.0,0.0,0.0,0.0,0.0,0.0,0.0,0.0,0.0,0.0,0.0,0.0,0.0,0.0,0.0,0.0,0.0,0.0,-0.7988,0.0,-0.7988,-0.7988,-0.7988,-0.7988,-0.7988,-0.7988,-0.7988,-0.7988,-0.7988,-0.7988,-0.7988,-0.7988,-0.7988,-0.7988,-0.7988,-0.7988,-0.7988,-0.7988,-0.8002,-0.8208,-0.8353,-0.8499,-0.8652,-0.8804,-0.8885,-0.8885,-0.8885,-0.8885,-1.4088,-1.4088,0.0,0.0,0.0,0.0,0.0,0.0,0.0,0.0,0.0,0.0,0.0,0.0,0.0,0.0,0.0,-1.4088,-1.4088,0.0,-1.4088,0.0,0.0,-1.4088,0.0,0.0,0.0,0.0,0.0,0.0,0.0,0.0,0.0,0.0,0.0,-1.4088,-1.4088,-1.4088,-1.4088,-1.4088,-1.4088,-1.4088,-1.4088,0.0,-1.4095,-1.4135,-1.4422,0.0,0.0,-1.4883,-1.5022,0.0,0.0,0.0,0.0,0.0,0.0,0.0,0.0,0.0,0.0,-1.0243,0.0,0.0,0.0,0.0,-0.7988,0.0,0.0,0.0,0.0,0.0,0.0,0.0,0.0,0.0,0.0,0.0,0.0,0.0,0.0,0.0,0.0,0.0,0.0,-0.7988,-0.7988,0.0,-0.7988,-0.7988,-0.7988,-0.7988,-0.7988,-0.7988,-0.7988,-0.7988,-0.7988,-0.7988,-0.7988,-0.7988,-0.7988,-0.7988,-0.7988,-0.7988,-0.7988,-0.7988,-0.8002,-0.8208,-0.8353,-0.8499,-0.8652,-0.8804,-0.8885,-0.8885,-0.8885,-0.8885,0.0,0.0,0.0,0.0,0.0,0.0,0.0,-1.4088,0.0,0.0,0.0,0.0,0.0,0.0,-1.4088,0.0,0.0,-1.4088,-1.4088,-1.4088,0.0,0.0,0.0,-1.4088,0.0,0.0,0.0,0.0,0.0,0.0,0.0,0.0,0.0,0.0,0.0,-1.4088,0.0,0.0,0.0,0.0,0.0,-1.4549,-1.4355,0.0,0.0,-1.4102,-1.4202,-1.4355,0.0,-1.4636,-1.4669,-1.4723,-1.5062,-1.5156,-1.5209,-1.5458,-1.5342,0.0,0.0,0.0,-1.2909,-1.1604,0.0,0.0,0.0,0.0,0.0,0.0,0.0,0.0,0.0,0.0,0.0,0.0,0.0,0.0,0.0,0.0,0.0,0.0,0.0,0.0,0.0,0.0,0.0,-0.7988,-0.7988,-0.7988,0.0,-0.7988,-0.7988,-0.7988,-0.7988,-0.7988,-0.7988,-0.7988,-0.7988,-0.7988,-0.7988,-0.7988,-0.7988,-0.7988,-0.7988,-0.7988,-0.7988,-0.8099,-0.8204,-0.835,-0.8499,-0.8648,-0.8801,-0.8838,-0.8885,-0.8885,-0.8885,-0.8885,-1.4242,0.0,0.0,0.0,0.0,0.0,0.0,0.0,0.0,0.0,-1.4309,0.0,-1.4242,0.0,-1.4088,0.0,-1.4088,-1.4128,-1.4235,-1.4142,0.0,-1.4235,-1.4142,0.0,0.0,0.0,0.0,0.0,0.0,-1.4142,0.0,0.0,0.0,0.0,0.0,-1.4439,-1.4439,0.0,-1.4509,0.0,0.0,-1.485,0.0,0.0,-1.4269,-1.4088,0.0,-1.4208,-1.4362,-1.4362,-1.4362,-1.4416,-1.471,-1.4803,-1.4863,-1.5157,-1.5444,-1.5483,-1.4662,-1.4487,0.0,0.0,-1.2624,0.0,-1.0974,0.0,0.0,0.0,0.0,0.0,0.0,0.0,0.0,0.0,0.0,0.0,0.0,-0.7988,0.0,0.0,0.0,0.0,0.0,0.0,-0.7988,-0.7988,-0.7988,-0.7988,0.0,0.0,-0.7988,-0.7988,-0.7988,-0.7988,-0.7988,-0.7988,-0.7988,-0.7988,-0.7988,-0.7988,-0.7988,-0.7988,-0.7988,-0.7992,-0.8099,-0.8177,-0.8337,-0.8482,-0.8621,-0.8726,-0.8824,-0.8885,-0.8885,-0.8885,-0.8885,-0.8885,0.0,0.0,0.0,0.0,-1.4694,0.0,0.0,0.0,-1.5008,0.0,-1.4716,-1.4543,-1.4543,-1.4295,-1.4128,-1.4128,-1.4128,0.0,-1.4522,-1.4282,0.0,0.0,-1.4282,-1.4128,-1.4128,0.0,0.0,0.0,0.0,0.0,0.0,0.0,0.0,0.0,-1.5008,0.0,-1.5008,-1.5008,-1.5015,-1.5028,-1.5042,-1.5042,-1.5028,-1.5028,0.0,-1.4128,-1.4115,-1.4095,-1.4088,-1.4088,-1.4088,-1.4135,-1.4409,-1.4509,-1.4576,-1.4863,-1.5157,-1.5398,-1.5398,-1.5611,-1.5486,-1.4316,0.0,0.0,0.0,0.0,-1.0096,0.0,0.0,0.0,0.0,0.0,0.0,0.0,0.0,0.0,0.0,0.0,0.0,0.0,0.0,0.0,0.0,-0.7988,-0.7988,-0.7988,-0.7988,0.0,0.0,0.0,0.0,-0.8002,-0.8002,-0.8005,-0.8012,-0.8012,-0.8012,-0.8012,-0.8012,-0.8012,-0.8012,-0.8012,-0.8012,-0.8019,-0.8218,-0.8337,-0.8316,-0.8594,-0.8716,-0.8737,-0.8828,-0.8885,-0.8885,-0.8885,-0.8885,-0.8885,-1.3375,-1.2843,-1.2387,0.0,-1.3795,-1.5008,0.0,0.0,0.0,0.0,-1.4941,-1.485,-1.485,-1.4827,-1.478,-1.478,-1.478,0.0,0.0,0.0,0.0,-1.4888,-1.4821,-1.478,-1.478,-1.478,0.0,-1.478,0.0,0.0,-1.485,0.0,0.0,0.0,0.0,0.0,-1.5008,-1.5008,-1.5135,-1.5304,-1.5518,-1.5478,0.0,0.0,-1.5102,-1.4754,-1.4489,-1.4269,-1.4088,-1.4088,-1.4088,-1.4102,-1.4175,-1.4349,-1.4536,-1.4609,-1.4997,-1.5398,-1.5398,-1.5611,-1.573,-1.5391,-1.5289,-1.4949,0.0,0.0,0.0,0.0,0.0,0.0,0.0,0.0,0.0,0.0,0.0,0.0,0.0,0.0,0.0,0.0,0.0,0.0,0.0,-0.7988,-0.7988,-0.7988,-0.7988,0.0,0.0,0.0,0.0,-0.8208,-0.8211,-0.8262,-0.8367,-0.8367,-0.8367,-0.8367,-0.8367,-0.8367,-0.8367,-0.8367,-0.8367,-0.837,-0.8411,-0.8492,-0.8604,-0.8679,-0.8777,-0.8828,-0.8868,-0.8885,-0.8885,-0.8885,-0.8885,-0.8885,-1.2341,0.0,0.0,-1.1652,0.0,0.0,-1.4534,0.0,0.0,-1.4442,-1.4381,0.0,-1.4305,-1.4714,-1.5008,-1.5008,-1.5008,0.0,0.0,0.0,0.0,-1.515,-1.5075,-1.5008,-1.5008,-1.5008,0.0,-1.4128,0.0,0.0,-1.3463,-1.4025,0.0,0.0,0.0,-1.5055,-1.4581,-1.5101,-1.5438,-1.5598,-1.5718,0.0,0.0,-1.5585,-1.5404,-1.513,-1.4963,-1.4636,-1.4275,-1.4275,-1.4195,-1.4088,-1.4088,-1.4202,-1.4335,-1.4335,-1.4743,-1.5211,-1.5211,-1.5511,-1.5784,-1.5784,-1.5784,-1.5635,-1.4902,-1.3253,-1.1702,0.0,0.0,0.0,0.0,0.0,0.0,0.0,0.0,0.0,0.0,0.0,0.0,0.0,0.0,0.0,0.0,0.0,-0.7988,0.0,0.0,0.0,0.0,0.0,0.0,-0.836,-0.8364,-0.8401,-0.8482,-0.8482,-0.8482,-0.8482,-0.8482,-0.8482,-0.8482,-0.8482,-0.8482,-0.8486,-0.8554,-0.8632,-0.8716,-0.8781,-0.8807,-0.8885,-0.8885,-0.8885,-0.8885,-0.8885,-0.8885,-0.8885,-1.1149,0.0,0.0,0.0,0.0,0.0,0.0,-1.298,0.0,-1.4022,0.0,-1.3491,-1.3491,-1.4283,-1.4844,-1.4844,0.0,-1.5184,-1.5438,-1.5217,-1.519,-1.5444,-1.5211,-1.5122,-1.5122,-1.5122,0.0,0.0,0.0,-1.2575,-1.1594,-1.2686,0.0,0.0,0.0,0.0,0.0,-1.5092,-1.5635,0.0,-1.5784,-1.5784,-1.5784,-1.5784,-1.5671,-1.5451,-1.5451,-1.5077,-1.4583,-1.4583,-1.4409,-1.4202,-1.4202,-1.4202,-1.4202,-1.4202,-1.4589,-1.5068,-1.5068,-1.5418,-1.5784,-1.5784,-1.5784,-1.5784,-1.5784,-1.3932,-1.2091,-1.1945,-0.9948,0.0,0.0,0.0,0.0,0.0,0.0,0.0,0.0,0.0,0.0,0.0,0.0,0.0,0.0,0.0,0.0,0.0,0.0,0.0,0.0,0.0,0.0,0.0,-0.8513,0.0,-0.854,0.0,-0.854,-0.854,-0.854,-0.854,-0.854,-0.854,-0.854,-0.855,-0.8682,-0.874,-0.875,-0.8828,-0.8885,-0.8885,-0.8885,-0.8885,-0.8885,-0.8885,-0.8885,-0.8885,0.0,0.0,0.0,0.0,0.0,-1.1206,-1.2307,-1.3965,-1.5194,-1.5439,-1.4518,-1.3808,-1.3808,-1.3963,-1.4082,-1.4082,-1.5046,0.0,0.0,0.0,0.0,-1.5752,-1.5705,-1.5678,-1.5678,-1.5678,-1.5046,0.0,0.0,-1.3093,-1.1836,-1.2078,-1.2055,0.0,0.0,0.0,-1.3926,-1.4118,0.0,-1.5784,-1.5784,-1.5784,-1.5784,-1.5784,-1.5751,-1.5752,-1.5752,-1.5384,-1.4928,-1.4928,-1.4901,-1.4854,-1.4854,-1.4854,-1.4854,-1.4854,-1.505,-1.5317,-1.5317,-1.5571,-1.5784,-1.5784,-1.5784,-1.5784,-1.5784,-1.4609,-1.3247,-1.2139,-1.0681,-0.9312,-0.8187,0.0,0.0,0.0,0.0,0.0,0.0,0.0,0.0,0.0,0.0,0.0,0.0,0.0,0.0,0.0,0.0,0.0,0.0,0.0,0.0,0.0,0.0,0.0,0.0,0.0,0.0,-0.8804,-0.8804,-0.8804,-0.8804,-0.8804,-0.8804,-0.8804,-0.8834,-0.8844,-0.8844,-0.8871,-0.8885,-0.8885,-0.8885,-0.8885,-0.8885,-0.8885,-0.8885,-0.8885,0.0,0.0,0.0,0.0,0.0,0.0,0.0,-1.4057,0.0,-1.3884,-1.2668,-1.1891,-1.1891,-1.2474,-1.2861,-1.2861,-1.3397,-1.4076,-1.4752,-1.48,-1.5092,-1.5784,-1.5784,0.0,-1.5784,-1.5784,-1.4854,-1.2861,0.0,-1.1843,-0.9899,-1.0583,-1.0534,-0.9944,0.0,-1.2624,0.0,0.0,0.0,-1.5784,-1.5784,-1.5784,-1.5784,-1.5784,-1.5784,-1.5784,-1.5784,-1.5651,-1.5391,-1.5237,-1.5135,-1.5008,-1.5008,-1.5008,-1.5008,-1.5008,-1.517,-1.5398,-1.5398,-1.5611,-1.5784,-1.5784,-1.5784,-1.5784,-1.5784,-1.48,-1.3728,-1.3054,-1.1891,-1.0583,-0.9266,-0.8482,0.0,0.0,0.0,0.0,0.0,0.0,0.0,0.0,0.0,0.0,0.0,0.0,0.0,0.0,0.0,0.0,0.0,0.0,0.0,0.0,0.0,0.0,0.0,0.0,0.0,-0.8885,-0.8885,-0.8885,-0.8885,-0.8885,-0.8885,-0.8885,-0.8885,-0.8885,-0.8885,-0.8885,-0.8885,-0.8885,-0.8885,-0.8885,-0.8885,-0.8885,-0.8885,-0.8885,0.0,-0.8577,0.0,0.0,-1.0985,0.0,-1.3035,-1.3115,-1.2909,-1.2382,-1.0974,-0.9998,-0.9998,-1.0925,-1.1512,-1.1512,-1.175,-1.2334,-1.3392,-1.3488,-1.3926,-1.4908,-1.5242,-1.5391,-1.5391,-1.5683,-1.4663,0.0,0.0,-1.073,-0.8432,-0.9217,-0.9167,0.0,0.0,0.0,0.0,0.0,-1.554,-1.5784,-1.5784,-1.5784,-1.5784,-1.5784,-1.5784,-1.5784,-1.5784,-1.5784,-1.5792,-1.5565,-1.5337,-1.515,-1.515,-1.515,-1.515,-1.515,-1.5311,-1.5491,-1.5491,-1.5658,-1.5784,-1.5784,-1.5784,-1.5784,-1.5784,-1.4997,-1.4172,-1.359,-1.2183,-1.0774,-0.9756,-0.8726,0.0,0.0,0.0,0.0,0.0,0.0,0.0,0.0,0.0,0.0,0.0,0.0,0.0,0.0,0.0,0.0,0.0,0.0,0.0,0.0,0.0,0.0,-0.8885,0.0,-0.8885,0.0,-0.8885,-0.8885,-0.8885,-0.8885,-0.8885,-0.8885,-0.8885,-0.8885,-0.8885,-0.8885,-0.8885,-0.8885,-0.8885,-0.8885,-0.8885,-0.8885,-0.8885,-0.8885,0.0,0.0,0.0,0.0,0.0,0.0,0.0,-1.051,-1.1161,-1.344,-1.1551,-0.9998,-0.9998,-1.0096,-1.0194,-1.0194,-1.1219,-1.1945,-1.2091,-1.2091,-1.2139,-1.2237,-1.3445,-1.407,-1.407,-1.5194,-1.5092,0.0,0.0,-1.117,-0.9801,-0.8676,-0.8775,0.0,0.0,0.0,0.0,-1.4022,-1.4752,-1.5784,-1.5784,-1.5784,-1.5784,-1.5784,-1.5784,-1.5784,-1.5784,-1.5784,-1.5778,-1.5751,-1.5772,-1.5752,-1.5752,-1.5752,-1.5752,-1.5752,-1.5718,-1.5744,-1.5744,-1.5758,-1.5784,-1.5784,-1.5784,-1.5784,-1.5784,-1.573,-1.4956,-1.2576,-1.0092,-0.8333,-0.8187,-0.8088,-0.7988,0.0,0.0,0.0,0.0,0.0,0.0,0.0,0.0,0.0,0.0,-0.8377,0.0,0.0,0.0,0.0,0.0,0.0,0.0,-0.8885,0.0,-0.8885,-0.8885,-0.8885,0.0,-0.8885,-0.8885,-0.8885,-0.8885,-0.8885,-0.8885,-0.8885,-0.8885,-0.8885,-0.8885,-0.8885,-0.8885,-0.8885,-0.8885,-0.8885,-0.8885,-0.8885,-0.8885,-0.8885,0.0,0.0,0.0,0.0,0.0,0.0,0.0,-1.07,-1.046,-1.1419,-0.9944,-0.8825,-0.8825,-0.8825,-0.8825,-0.8825,-0.9262,-0.9899,-1.073,-1.0779,-1.1121,-1.1853,-1.2431,-1.2716,-1.2716,-1.3974,-1.3632,0.0,0.0,0.0,0.0,-0.9069,0.0,0.0,0.0,-1.2909,-1.3974,-1.4704,-1.4902,-1.4752,-1.5486,-1.5337,-1.4752,-1.5486,-1.5784,-1.5784,-1.5784,-1.5784,-1.5784,-1.5784,-1.5784,-1.5784,-1.5784,-1.5784,-1.5784,-1.5784,-1.5784,-1.5784,-1.5784,-1.5784,-1.5784,-1.5784,-1.5242,-1.4657,-1.4657,-1.4028,-1.3156,-1.2139,-1.0485,-0.9217,-0.9217,-0.8528,-0.7988,0.0,0.0,0.0,0.0,0.0,0.0,0.0,0.0,0.0,0.0,0.0,-0.8645,0.0,0.0,0.0,0.0,0.0,0.0,-0.8885,0.0,-0.8885,-0.8885,-0.8885,-0.8885,-0.8885,-0.8885,-0.8885,-0.8885,-0.8885,-0.8885,-0.8885,-0.8885,-0.8885,-0.8885,-0.8885,-0.8885,-0.8885,-0.8885,-0.8885,-0.8885,-0.8885,-0.8885,-0.8885,-0.921,0.0,-0.9175,0.0,-1.0126,-1.0359,-1.1008,-1.0251,-0.9605,-0.9434,-0.8577,-0.7988,-0.7988,-0.7988,-0.7988,-0.7988,-0.7988,-0.8382,-0.9361,-0.941,-0.9801,-1.0725,-1.1116,0.0,-1.1365,-1.2619,-1.2425,-1.0583,-1.1068,0.0,0.0,0.0,0.0,0.0,-1.3494,-1.3926,-1.3968,-1.4854,-1.4513,-1.3397,-1.4274,-1.4124,-1.3392,-1.4322,-1.4663,-1.4663,-1.4663,-1.4663,-1.4663,-1.4663,-1.4663,-1.4806,-1.554,-1.5784,-1.5784,-1.5784,-1.5784,-1.5784,-1.5784,-1.5534,-1.5242,-1.5242,-1.4268,-1.3295,-1.3295,-1.2576,-1.1799,-1.1414,-1.0288,-0.941,-0.941,-0.8627,-0.7988,0.0,0.0,0.0,0.0,0.0,0.0,0.0,0.0,-0.8391,-0.8533,0.0,0.0,0.0,0.0,0.0,0.0,0.0,0.0,0.0,0.0,0.0,0.0,-0.8885,-0.8885,-0.8885,-0.8885,-0.8885,-0.8885,-0.8885,-0.8885,-0.8885,-0.8885,-0.8885,-0.8885,-0.8885,-0.8885,-0.8885,-0.8885,-0.8885,-0.8885,-0.8885,-0.8885,-0.8885,-0.921,-0.8885,-0.8885,-0.8937,-0.8811,-0.8659,-0.8555,-0.8412,-0.8265,-0.8058,-0.7988,-0.7988,-0.7988,-0.7988,-0.7988,-0.7988,-0.7988,-0.7988,-0.8038,-0.8038,-0.8038,0.0,0.0,-0.9998,-0.9998,-1.1263,-1.1901,-1.1901,0.0,0.0,-0.9998,0.0,-1.1404,-1.3878,-1.3872,-1.3926,-1.3926,-1.3926,-1.3156,-1.1945,-1.1945,-1.1945,-1.1945,-1.1945,-1.195,-1.195,-1.195,-1.195,-1.195,-1.195,-1.195,-1.2382,-1.5003,-1.5784,-1.5784,-1.5784,-1.5784,-1.5784,-1.5784,-1.4902,-1.392,-1.392,-1.2915,-1.1896,-1.1896,-1.1901,-1.1556,-1.0293,-0.897,-0.8038,-0.8038,-0.7988,-0.7988,-0.7988,0.0,0.0,0.0,0.0,0.0,0.0,-0.8394,-0.854,-0.8693,0.0,0.0,0.0,0.0,0.0,0.0,0.0,0.0,-0.8885,-0.8885,0.0,-0.8885,-0.8885,-0.8885,-0.8885,-0.8885,-0.8885,-0.8885,-0.8885,-0.8885,-0.8885,-0.8885,-0.8885,-0.8885,-0.8885,-0.8885,-0.8885,-0.8885,-0.8885,-0.8885,-0.8885,-0.8885,-0.8885,-0.921,-0.8885,-0.8885,-0.8885,-0.8844,-0.8777,-0.852,-0.8442,-0.8323,-0.8022,-0.7988,-0.7988,-0.7988,-0.7988,-0.7988,0.0,-0.7988,-0.7988,0.0,-0.7988,-0.7988,-0.7988,-0.8432,-0.8627,-0.8627,-0.9948,-1.0141,-0.9262,0.0,0.0,0.0,-1.0129,-1.107,-1.2745,-1.2591,-1.2528,-1.2528,-1.2528,-1.1794,-1.0681,-1.1556,-1.1365,-1.0681,-1.156,-1.1896,-1.1896,-1.1896,-1.1896,-1.1896,-1.1896,-1.1896,-1.2042,-1.2866,-1.3156,-1.3156,-1.3156,-1.3156,-1.3156,-1.3156,-1.2866,-1.2528,-1.2528,-1.1556,-1.0583,-1.0583,-0.9899,-0.9114,-0.8726,-0.8287,-0.7988,-0.7988,-0.7988,-0.7988,-0.7988,0.0,0.0,0.0,0.0,0.0,0.0,0.0,-0.8699,0.0,-0.8811,0.0,0.0,0.0,0.0,0.0,0.0,0.0,0.0,-0.8885,0.0,-0.8885,-0.8885,-0.8885,-0.8885,-0.8885,-0.8885,-0.8885,-0.8885,-0.8885,-0.8885,-0.8885,-0.8885,-0.8885,-0.8885,-0.8885,-0.8885,-0.8885,-0.8885,-0.8885,-0.8885,-0.8885,-0.8885,-0.921,-0.8885,-0.8885,-0.8885,-0.8885,-0.8855,-0.8604,-0.852,-0.8397,-0.8157,-0.8025,-0.7988,-0.7988,-0.7988,0.0,-0.7988,-0.7988,-0.7988,-0.7988,-0.7988,-0.7988,-0.7988,-0.7988,-0.7988,-0.7988,0.0,0.0,-0.8126,-0.8978,-0.9708,-1.0268,-1.0268,-1.0977,-1.2284,-1.2063,-1.1722,-1.1274,-1.1198,-1.0435,-0.9312,-1.0145,-0.9948,-0.9312,-1.0145,-1.0435,-1.0435,-1.0435,-1.0435,-1.0435,-1.0435,-1.0435,-1.0435,-1.0435,-1.0435,-1.0632,-1.1604,-1.1896,-1.1896,-1.1896,-1.1556,-1.117,-1.117,-1.0194,-0.9266,-0.9266,-0.8577,-0.7988,-0.7988,-0.7988,-0.7988,-0.7988,-0.8039,-0.8126,-0.8126,0.0,0.0,0.0,0.0,0.0,0.0,0.0,0.0,0.0,-0.8885,0.0,0.0,0.0,0.0,0.0,0.0,0.0,-0.8885,-0.8885,0.0,-0.8885,-0.8885,-0.8885,-0.8885,-0.8885,-0.8885,-0.8885,-0.8885,-0.8885,-0.8885,-0.8885,-0.8885,-0.8885,-0.8885,-0.8885,-0.8885,-0.8885,-0.8885,-0.8885,-0.8885,-0.8885,-0.8885,-0.9154,-0.8885,0.0,0.0,-0.8885,0.0,-0.8733,-0.8587,-0.8442,-0.834,-0.8143,-0.8002,-0.7992,-0.7988,-0.7988,-0.7988,0.0,0.0,0.0,-0.7988,-0.7988,-0.7988,-0.7988,0.0,-0.8005,-0.8197,-0.8327,-0.8337,-0.8428,-0.9119,-1.0304,-1.0304,-1.0928,-1.2155,-1.1986,-1.1235,-1.0066,-0.9946,-0.9187,-0.8005,-0.7992,-0.7988,-0.7988,-0.7988,-0.7988,-0.7988,-0.7988,-0.7988,-0.7988,-0.7988,-0.7988,-0.7988,-0.7988,-0.7988,-0.8482,-1.0921,-1.1604,-1.1604,-1.1604,-1.0779,-0.985,-0.985,-0.892,-0.7988,-0.7988,-0.7988,-0.7988,-0.7988,-0.7998,-0.8005,-0.8005,-0.818,-0.8337,-0.8337,-0.8404,-0.8499,-0.8499,0.0,0.0,0.0,0.0,0.0,0.0,-0.8885,-0.8885,0.0,0.0,0.0,0.0,0.0,-0.8885,-0.8885,-0.8885,-0.8885,-0.8885,-0.8885,-0.8885,-0.8885,-0.8885,-0.8885,-0.8885,-0.8885,-0.8885,-0.8885,-0.8885,-0.8885,-0.8885,-0.8885,-0.8885,-0.8885,-0.8885,-0.8885,-0.8885,-0.8885,-0.8885,-0.8885,0.0,0.0,-0.8885,-0.8885,-0.8885,-0.8834,-0.8733,-0.8679,-0.8564,-0.8354,-0.8238,-0.817,-0.8002,-0.7988,-0.7988,-0.7988,-0.7988,-0.7988,-0.7988,-0.7988,-0.7988,-0.7988,-0.7988,-0.8096,-0.8214,-0.8252,-0.8374,-0.8431,-0.8581,-0.8816,-0.9076,-0.9076,-0.929,-0.9545,-0.9429,-0.9198,-0.8879,-0.8783,-0.8516,-0.8204,-0.8039,-0.7988,-0.7988,-0.7988,-0.7988,-0.7988,-0.7988,-0.7988,-0.7988,-0.7988,-0.7988,-0.7988,-0.7988,-0.7988,-0.8137,-0.8726,-0.892,-0.892,-0.892,-0.8726,-0.8482,-0.8482,-0.8233,-0.7988,-0.7988,-0.7988,-0.7988,-0.7988,-0.8133,-0.8214,-0.8214,-0.8333,-0.8431,-0.8431,-0.8557,-0.8655,-0.8655,0.0,0.0,0.0,-0.8861,-0.8885,-0.8885,-0.8885,-0.8885,0.0,0.0,0.0,0.0,0.0,-0.8885,-0.8885,-0.8885,-0.8885,-0.8885,-0.8885,-0.8885,-0.8885,-0.8885,-0.8885,-0.8885,-0.8885,-0.8885,-0.8885,-0.8885,-0.8885,-0.8885,-0.8885,-0.8885,-0.8885,-0.8885,-0.8885,-0.8885,-0.8885,-0.8885,-0.8885,-0.8885,-0.8885,-0.8885,-0.8885,-0.8885,-0.8854,-0.8828,-0.8757,-0.8652,-0.8492,-0.8353,-0.8238,-0.8153,-0.8032,-0.7988,-0.7988,-0.7988,-0.7988,-0.7988,-0.7988,-0.8022,-0.8143,-0.8143,-0.8214,-0.8364,-0.8435,-0.8543,-0.8693,-0.8774,-0.8815,-0.8815,-0.8815,-0.8815,-0.8808,-0.8655,-0.8584,-0.8577,-0.8428,-0.8367,-0.8353,-0.8204,-0.8143,-0.8136,-0.8015,-0.7988,-0.7988,-0.7988,-0.7988,-0.7988,-0.7988,-0.7988,-0.7988,-0.7988,-0.7988,-0.7988,-0.7988,-0.7988,-0.7988,-0.7988,-0.7988,-0.7988,-0.7988,-0.7988,-0.7988,-0.7988,-0.8096,-0.8143,-0.8143,-0.8262,-0.8367,-0.8367,-0.8486,-0.8584,-0.8584,-0.8716,-0.8815,-0.8815,-0.8831,0.0,-0.8885,-0.8885,-0.8885,-0.8885,-0.8885,-0.8885,-0.8885,0.0,0.0,-0.8885,-0.8885,-0.8885,-0.8885,-0.8885,-0.8885,-0.8885,-0.8885,-0.8885,-0.8885,-0.8885,-0.8885,-0.8885,-0.8885,-0.8885,-0.8885,-0.8885,-0.8885,-0.8885,-0.8885,-0.8885,-0.8885,-0.8885,-0.8885,-0.8885,-0.8885,-0.8885,-0.8885,-0.8885,-0.8885,-0.8885,-0.8885,-0.8885,-0.8885,-0.8885,-0.8828,-0.8737,-0.8713,-0.8492,-0.833,-0.8357,-0.8184,-0.8056,-0.8056,-0.8056,-0.8049,-0.8025,-0.8025,-0.8143,-0.8347,-0.8354,-0.837,-0.8513,-0.8665,-0.8808,-0.8885,-0.8885,-0.8885,-0.8885,-0.8885,-0.8885,-0.8878,-0.8804,-0.8747,-0.8733,-0.8581,-0.8516,-0.8506,-0.836,-0.8354,-0.8289,-0.8157,-0.8042,-0.8025,-0.8025,-0.8008,-0.7988,-0.7988,-0.7988,-0.7988,-0.7988,-0.7988,-0.7988,-0.7988,-0.8005,-0.8019,-0.7995,-0.7988,-0.7988,-0.7988,-0.8008,-0.8025,-0.8025,-0.8191,-0.8354,-0.8354,-0.8418,-0.8516,-0.8516,-0.8642,-0.8747,-0.8747,-0.8801,-0.8885,-0.8885,0.0,-0.8885,-0.8885,-0.8885,-0.8885,-0.8885,-0.8885,-0.8885,-0.8885,-0.8885,0.0,0.0,-0.8885,-0.8885,-0.8885,-0.8885,-0.8885,-0.8885,-0.8885,-0.8885,-0.8885,-0.8885,-0.8885,-0.8885,-0.8885,-0.8885,-0.8885,-0.8885,-0.8885,-0.8885,-0.8885,-0.8885,-0.8885,-0.8885,-0.8885,-0.8885,-0.8885,-0.8885,-0.8885,-0.8885,-0.8885,-0.8885,-0.8885,-0.8885,-0.8885,-0.8885,-0.8865,-0.8801,-0.8726,-0.8669,-0.8591,-0.8462,-0.8428,-0.8414,-0.8414,-0.8414,-0.836,-0.8241,-0.8235,-0.8299,-0.8442,-0.8448,-0.852,-0.8672,-0.8825,-0.8858,-0.8885,-0.8885,-0.8885,-0.8885,-0.8885,-0.8885,-0.8881,-0.8858,-0.8848,-0.8838,-0.874,-0.8676,-0.8662,-0.8509,-0.8448,-0.8445,-0.8421,-0.834,-0.8235,-0.8235,-0.815,-0.7988,-0.7988,-0.7988,-0.7988,-0.7988,-0.7988,-0.7988,-0.7988,-0.8133,-0.8208,-0.8025,-0.7988,-0.7988,-0.7988,-0.8136,-0.8235,-0.8235,-0.8347,-0.8448,-0.8448,-0.857,-0.8676,-0.8676,-0.8801,-0.8848,-0.8848,-0.8868,-0.8885,0.0,0.0,-0.8885,-0.8885,-0.8885,-0.8885,-0.8885,-0.8885,-0.8885,-0.8885,-0.8885,-0.8885,-0.8885,-0.8885,-0.8885,-0.8885,-0.8885,-0.8885,-0.8885,-0.8885,-0.8885,-0.8885,-0.8885,-0.8885,-0.8885,-0.8885,-0.8885,-0.8885,-0.8885,-0.8885,-0.8885,-0.8885,-0.8885,-0.8885,-0.8885,-0.8885,-0.8885,-0.8885,-0.8885,-0.8885,-0.9047,-0.8885,-0.8885,-0.8885,-0.8885,-0.8885,-0.8885,-0.8885,-0.8858,-0.8842,-0.876,-0.8682,-0.8611,-0.853,-0.8482,-0.8482,-0.8482,-0.8489,-0.8506,-0.8431,-0.8452,-0.8598,-0.8604,-0.8676,-0.8828,-0.8848,-0.8885,-0.8885,-0.8885,-0.8885,-0.8885,-0.8885,-0.8885,-0.8885,-0.8885,-0.8885,-0.8878,-0.8807,-0.8832,-0.8818,-0.8665,-0.8604,-0.8598,-0.8513,-0.8442,-0.8384,-0.8384,-0.834,-0.8279,-0.8279,-0.8279,-0.8279,-0.8279,-0.8279,-0.8279,-0.8279,-0.8272,-0.8272,-0.8275,-0.8279,-0.8279,-0.8279,-0.8333,-0.8384,-0.8384,-0.8499,-0.8604,-0.8604,-0.8726,-0.8832,-0.8832,-0.8838,-0.8885,-0.8885,-0.8885,0.0,0.0,-0.8885,-0.8885,-0.8885,-0.8885,-0.8967,-0.9045,-0.9055,-0.9089,-0.9171,-0.9178,-0.9178,-0.9178,-0.9178,-0.9178,-0.9178,-0.9022,-0.8885,-0.8885,-0.8885,-0.8885,-0.8885,-0.8885,-0.8885,-0.8885,-0.8885,-0.8885,-0.8885,-0.8885,-0.8885,-0.8885,-0.8885,-0.8885,-0.8885,-0.8885,-0.8885,-0.8885,-0.8885,-0.8885,-0.8885,-0.921,-0.8885,-0.8885,-0.8885,-0.8885,-0.8885,-0.8885,-0.8885,-0.8885,-0.8885,-0.8835,-0.8764,-0.8764,-0.8659,-0.8587,-0.8587,-0.8587,-0.8638,-0.8757,-0.8655,-0.8638,-0.8757,-0.8764,-0.8818,-0.8881,-0.8885,-0.8885,-0.8885,-0.8885,-0.8885,-0.8885,-0.8885,-0.8885,-0.8885,-0.8885,-0.8885,-0.8885,-0.8885,-0.8885,-0.8871,-0.8811,-0.8764,-0.875,-0.8632,-0.8567,-0.8533,-0.8533,-0.8513,-0.8482,-0.8482,-0.8482,-0.8482,-0.8482,-0.8482,-0.8482,-0.8482,-0.8431,-0.8387,-0.8462,-0.8482,-0.8482,-0.8482,-0.8509,-0.8533,-0.8533,-0.8655,-0.8764,-0.8764,-0.8801,-0.8885,-0.8885,-0.8885,-0.8885,-0.8885,0.0,0.0,0.0,-0.8967,-0.8988,-0.8988,-0.9022,-0.9083,-0.9251,-0.9262,-0.9313,-0.9371,-0.9381,-0.9381,-0.9381,-0.9381,-0.9381,-0.9381,-0.9127,-0.8974,-0.8885,-0.8885,-0.8885,-0.8885,-0.8885,-0.8885,-0.8885,-0.8885,-0.8885,-0.8885,-0.8885,-0.8885,-0.8885,-0.8885,-0.8885,-0.8885,-0.8885,-0.8885,-0.8885,-0.8885,-0.8885,-0.8885,-0.921,-0.8885,-0.8885,-0.8885,-0.8885,-0.8885,-0.8885,-0.8885,-0.8885,-0.8885,-0.8871,-0.8865,-0.8865,-0.8858,-0.8851,-0.8851,-0.8851,-0.8854,-0.8865,-0.8854,-0.8854,-0.8865,-0.8865,-0.8871,-0.8885,-0.8885,-0.8885,-0.8885,-0.8885,-0.8885,-0.8885,-0.8885,-0.8885,-0.8885,-0.8885,-0.8885,-0.8885,-0.8885,-0.8885,-0.8881,-0.8871,-0.8865,-0.8865,-0.8854,-0.8818,-0.8693,-0.8693,-0.8604,-0.8482,-0.8482,-0.8482,-0.8482,-0.8482,-0.8482,-0.8482,-0.8482,-0.8574,-0.8648,-0.8516,-0.8482,-0.8482,-0.8482,-0.8587,-0.8693,-0.8693,-0.8811,-0.8865,-0.8865,-0.8875,-0.8885,-0.8885,-0.8885,-0.8885,-0.8885,0.0,0.0,-0.8885,-0.9052,-0.9193,-0.9193,-0.9262,-0.9354,-0.9364,-0.9364,-0.9367,-0.9381,-0.9381,-0.9381,-0.9381,-0.9381,-0.9381,-0.9381,-0.9279,-0.9072,-0.8885,-0.8885,-0.8885,-0.8885,-0.8885,-0.8885,-0.8885,-0.8885,-0.8885,-0.8885,-0.8885,-0.8885,-0.8885,-0.8885,-0.8885,-0.8885,-0.8885,-0.8885,-0.8885,-0.8885,-0.8885,-0.8885,-1.1919,-1.1647,-1.1324,-1.0402,-1.0241,-0.997,-0.9047,-0.8885,-0.8885,-0.8885,-0.8885,-0.8885,-0.8885,-0.8885,-0.8885,-0.8885,-0.8885,-0.8885,-0.8885,-0.8885,-0.8885,-0.8885,-0.8885,-0.8885,-0.8885,-0.8885,-0.8885,-0.8885,-0.8885,-0.8885,-0.8885,-0.8885,-0.8885,-0.8885,-0.8885,-0.8885,-0.8885,-0.8885,-0.8885,-0.8885,-0.8885,-0.8885,-0.8885,-0.8885,-0.8848,-0.8797,-0.8797,-0.8815,-0.8764,-0.8764,-0.8764,-0.8764,-0.8764,-0.8764,-0.8764,-0.8764,-0.8808,-0.8838,-0.8781,-0.8764,-0.8764,-0.8764,-0.8808,-0.8797,-0.8797,-0.8841,-0.8885,-0.8885,-0.8885,-0.8885,-0.8885,-0.8885,-0.8967,-0.9055,0.0,-0.9103,-0.9198,-0.9259,-0.9354,-0.9354,-0.9347,-0.9418,-0.9513,-0.9523,-0.9557,-0.9646,-0.9652,-0.9652,-0.9652,-0.9652,-0.9612,-0.9527,-0.9466,-0.932,-0.9076,-0.9069,-0.9025,-0.8885,-0.8885,-0.8885,-0.8885,-0.8885,-0.8885,-0.8885,-0.8885,-0.8885,-0.8885,-0.8885,-0.8885,-0.8885,-0.8885,-0.8885,-0.8885,-0.8885,-0.8885,-0.8895,-1.3588,-1.3318,-1.2999,-1.1969,-1.181,-1.1428,-1.0457,-1.0296,-1.0296,-1.0296,-1.0296,-1.0131,-0.9644,-0.9588,-0.9427,-0.8937,-0.8885,-0.8885,-0.8885,-0.8885,-0.8885,-0.8885,-0.8885,-0.8885,-0.8885,-0.8885,-0.8885,-0.8885,-0.8885,-0.8885,-0.8885,-0.8885,-0.8885,-0.8885,-0.8885,-0.8885,-0.8885,-0.8885,-0.8885,-0.8885,-0.8885,-0.8885,-0.8885,-0.8885,-0.8885,-0.8885,-0.8885,-0.8885,-0.8885,-0.8885,-0.8885,-0.8885,-0.8885,-0.8885,-0.8885,-0.8885,-0.8885,-0.8885,-0.8885,-0.8885,-0.8885,-0.8885,-0.8885,-0.8885,-0.8885,-0.8885,-0.8885,-0.8885,-0.8974,-0.9008,-0.9008,-0.9045,-0.911,-0.9265,-0.9282,-0.932,-0.9367,-0.9422,-0.9452,-0.9452,-0.9493,-0.9561,-0.9666,-0.9676,-0.9717,-0.9815,-0.9822,-0.9822,-0.9822,-0.9822,-0.9778,-0.968,-0.9676,-0.9554,-0.9357,-0.9258,-0.9103,-0.9005,-0.8905,-0.8885,-0.8885,-0.8885,-0.8885,-0.8885,-0.8885,-0.8885,-0.8885,-0.8885,-0.8885,-0.8885,-0.8885,-0.8885,-0.8885,-0.8885,-0.8967,-0.9022,-1.3588,-1.3318,-1.3318,-1.3318,-1.3324,-1.3318,-1.3318,-1.3264,-1.3264,-1.3264,-1.3264,-1.2729,-1.1214,-1.1105,-1.0511,-0.9047,-0.8885,-0.8885,-0.8885,-0.8885,-0.8885,-0.8885,-0.8885,-0.8885,-0.8885,-0.8885,-0.8885,-0.8885,-0.8885,-0.8885,-0.8885,-0.8885,-0.8885,-0.8885,-0.8885,-0.8885,-0.8885,-0.8885,-0.8885,-0.8885,-0.8885,-0.8885,-0.8885,-0.8885,-0.8885,-0.8885,-0.8885,-0.8885,-0.8885,-0.8885,-0.8885,-0.8885,-0.8885,-0.8885,-0.8885,-0.8885,-0.8885,-0.8885,-0.8885,-0.8885,-0.8885,-0.8885,-0.8885,-0.8885,-0.8885,-0.8885,-0.8885,-0.8885,-0.9055,-0.921,-0.921,-0.9337,-0.9381,-0.9384,-0.9384,-0.9384,-0.9384,-0.9513,-0.9612,-0.9612,-0.9734,-0.9822,-0.9822,-0.9822,-0.9822,-0.9822,-0.9822,-0.9822,-0.9822,-0.9822,-0.9822,-0.9822,-0.9822,-0.9754,-0.9612,-0.931,-0.921,-0.9207,-0.9008,-0.8885,-0.8885,-0.8885,-0.8885,-0.8885,-0.8885,-0.8885,-0.8885,-0.8885,-0.8885,-0.8885,-0.8885,-0.8885,-0.8885,-0.8885,-0.9028,-0.921,-1.6393,-1.634,-1.6015,-1.4931,-1.477,-1.4449,-1.3426,-1.2403,-1.1755,-1.1755,-1.0836,-1.0025,-0.9588,-0.9533,-0.9372,-0.8937,-0.8885,-0.8885,-0.8885,-0.8885,-0.8885,-0.8885,-0.8885,-0.8885,-0.8885,-0.8885,-0.8885,-0.8885,-0.8885,-0.8885,-0.8885,-0.8885,-0.8885,-0.8885,-0.8885,-0.8885,-0.8885,-0.8885,-0.8885,-0.8885,-0.8885,-0.8885,-0.8885,-0.8885,-0.8885,-0.8885,-0.8885,-0.8885,-0.8885,-0.8885,-0.8885,-0.8885,-0.8885,-0.8885,-0.8885,-0.8885,-0.8885,-0.8885,-0.8885,-0.8885,-0.8885,-0.8885,-0.8885,-0.8885,-0.8885,-0.9018,-0.9089,-0.9089,-0.9208,-0.9313,-0.9313,-0.9351,-0.9415,-0.9523,-0.954,-0.9578,-0.9676,-0.973,-0.9758,-0.9758,-0.9795,-0.9822,-0.9822,-0.9822,-0.9822,-0.9822,-0.9822,-0.9822,-0.9822,-0.9822,-0.9822,-0.9822,-0.9822,-0.9798,-0.9758,-0.9568,-0.9364,-0.921,-0.9166,-0.9035,-0.8885,-0.8885,-0.8885,-0.8885,-0.8885,-0.8885,-0.8885,-0.8885,-0.8885,-0.8885,-0.8885,-0.8885,-0.8885,-0.8885,-0.9028,-0.9224,-1.6823,-1.6717,-1.644,-1.5577,-1.5417,-1.531,-1.5043,-1.375,-1.2778,-1.2778,-1.1538,-1.0406,-0.9809,-1.0296,-1.0402,-0.9809,-0.9754,-0.9754,-0.9754,-0.921,-0.8885,-0.8885,-0.8885,-0.8885,-0.8885,-0.8885,-0.8885,-0.8885,-0.8885,-0.8885,-0.8885,-0.8885,-0.8885,-0.8885,-0.8885,-0.8885,-0.8885,-0.8885,-0.8885,-0.8885,-0.8885,-0.8885,-0.8885,-0.8885,-0.8885,-0.8885,-0.8885,-0.8885,-0.8885,-0.8885,-0.8885,-0.8885,-0.8885,-0.8885,-0.8885,-0.8885,-0.8885,-0.8895,-0.9008,-0.9022,-0.9039,-0.91,-0.9069,-0.9039,-0.91,-0.9181,-0.9299,-0.9299,-0.9364,-0.9469,-0.9469,-0.9517,-0.9585,-0.968,-0.9693,-0.9724,-0.9808,-0.9822,-0.9822,-0.9822,-0.9822,-0.9822,-0.9822,-0.9822,-0.9822,-0.9822,-0.9822,-0.9822,-0.9822,-0.9822,-0.9822,-0.9822,-0.9822,-0.9822,-0.9822,-0.9737,-0.9574,-0.9334,-0.9268,-0.911,-0.9022,-0.8908,-0.8885,-0.8885,-0.8885,-0.8885,-0.8885,-0.8885,-0.8885,-0.8885,-0.8885,-0.8885,-0.8892,-0.9001,-0.9117,-0.9323,-1.5689,-1.5524,-1.5524,-1.5257,-1.531,-1.5796,-1.7041,-1.6068,-1.515,-1.5037,-1.4019,-1.2674,-1.1055,-1.2349,-1.2674,-1.1055,-1.0996,-1.1105,-1.1105,-0.986,-0.9047,-0.8885,-0.8885,-0.8885,-0.8885,-0.8885,-0.8885,-0.8885,-0.8885,-0.8885,-0.8885,-0.8885,-0.8885,-0.8885,-0.8885,-0.8885,-0.8885,-0.8885,-0.8885,-0.8885,-0.8885,-0.8885,-0.8885,-0.8885,-0.8885,-0.8885,-0.8885,-0.8885,-0.8885,-0.8885,-0.8885,-0.8885,-0.8885,-0.8892,-0.8902,-0.8902,-0.8912,-0.9005,-0.9193,-0.9231,-0.9268,-0.9364,-0.9354,-0.9282,-0.9354,-0.9391,-0.9401,-0.9401,-0.952,-0.9629,-0.9629,-0.9734,-0.9822,-0.9822,-0.9822,-0.9822,-0.9822,-0.9822,-0.9822,-0.9822,-0.9822,-0.9822,-0.9822,-0.9822,-0.9822,-0.9822,-0.9822,-0.9822,-0.9822,-0.9822,-0.9822,-0.9822,-0.9822,-0.9822,-0.9822,-0.9822,-0.9751,-0.9605,-0.9327,-0.9234,-0.9207,-0.9018,-0.8895,-0.8885,-0.8885,-0.8885,-0.8885,-0.8885,-0.8885,-0.8885,-0.8885,-0.8892,-0.8974,-0.9103,-0.9316,-0.9422,-1.5689,-1.6333,-1.6393,-1.4126,-1.4663,-1.515,-1.4341,-1.3965,-1.3318,-1.2186,-1.2778,-1.2295,-0.9644,-1.1701,-1.224,-0.9588,-1.0457,-1.1105,-1.1105,-1.0781,-1.0131,-0.8937,-0.8885,-0.8885,-0.8885,-0.8885,-0.8885,-0.8885,-0.8885,-0.8885,-0.8885,-0.8885,-0.8885,-0.8885,-0.8885,-0.8885,-0.8885,-0.8885,-0.8885,-0.8885,-0.8885,-0.8885,-0.8885,-0.8885,-0.8885,-0.8885,-0.8885,-0.8885,-0.8885,-0.8885,-0.8885,-0.8885,-0.8885,-0.9015,-0.9163,-0.9163,-0.9191,-0.9293,-0.9323,-0.9334,-0.9367,-0.952,-0.9537,-0.949,-0.9401,-0.9473,-0.9561,-0.9561,-0.9676,-0.9774,-0.9774,-0.9798,-0.9822,-0.9822,-0.9822,-0.9822,-0.9822,-0.9822,-0.9822,-0.9822,-0.9822,-0.9822,-0.9822,-0.9822,-0.9822,-0.9822,-0.9822,-0.9822,-0.9822,-0.9822,-0.9822,-0.9822,-0.9822,-0.9822,-0.9822,-0.9822,-0.9751,-0.9608,-0.9544,-0.9384,-0.9207,-0.9176,-0.9045,-0.8885,-0.8885,-0.8885,-0.8885,-0.8885,-0.8885,-0.8885,-0.8885,-0.9008,-0.9166,-0.92,-0.9323,-0.9581,-1.5689,-1.6009,-1.5849,-1.3696,-1.4449,-1.4936,-1.3534,-1.3857,-1.3804,-1.2349,-1.2832,-1.2729,-1.116,-1.2994,-1.3965,-1.3102,-1.2507,-1.2132,-1.2132,-1.0836,-0.9699,-0.8937,-0.8885,-0.8885,-0.8885,-0.8885,-0.8885,-0.8885,-0.8885,-0.8885,-0.8885,-0.8885,-0.8885,-0.8885,-0.8885,-0.8885,-0.8885,-0.8885,-0.8885,-0.8885,-0.8885,-0.8885,-0.8885,-0.8885,-0.8885,-0.8885,-0.8885,-0.8885,-0.8895,-0.9018,-0.9042,-0.9055,-0.9127,-0.9201,-0.932,-0.932,-0.9317,-0.9398,-0.9469,-0.949,-0.9527,-0.9673,-0.971,-0.969,-0.9608,-0.9652,-0.971,-0.971,-0.9771,-0.9822,-0.9822,-0.9822,-0.9822,-0.9822,-0.9822,-0.9822,-0.9822,-0.9822,-0.9822,-0.9822,-0.9822,-0.9822,-0.9822,-0.9822,-0.9822,-0.9822,-0.9822,-0.9822,-0.9822,-0.9822,-0.9822,-0.9822,-0.9822,-0.9822,-0.9822,-0.9822,-0.9785,-0.971,-0.9642,-0.9527,-0.9364,-0.9275,-0.9169,-0.9035,-0.8967,-0.8885,-0.8885,-0.8885,-0.8885,-0.8892,-0.9015,-0.9086,-0.9228,-0.9317,-0.9513,-0.972,-1.5689,-1.5577,-1.5257,-1.3588,-1.4449,-1.4824,-1.3156,-1.4341,-1.4824,-1.3156,-1.3588,-1.3857,-1.3372,-1.4341,-1.5743,-1.747,-1.5204,-1.3534,-1.3324,-1.0996,-0.9427,-0.8937,-0.8885,-0.8885,-0.8885,-0.8885,-0.8885,-0.8885,-0.8885,-0.8885,-0.8885,-0.8885,-0.8885,-0.8885,-0.8885,-0.8885,-0.8885,-0.8885,-0.8885,-0.8885,-0.8885,-0.8885,-0.8885,-0.8885,-0.8885,-0.8888,-0.8912,-0.8991,-0.9032,-0.9154,-0.9248,-0.9272,-0.934,-0.9398,-0.9418,-0.9418,-0.9439,-0.9483,-0.9612,-0.9646,-0.9676,-0.9791,-0.9822,-0.9822,-0.9822,-0.9822,-0.9822,-0.9822,-0.9822,-0.9822,-0.9822,-0.9822,-0.9822,-0.9822,-0.9822,-0.9822,-0.9822,-0.9822,-0.9822,-0.9822,-0.9822,-0.9822,-0.9822,-0.9822,-0.9822,-0.9822,-0.9822,-0.9822,-0.9822,-0.9822,-0.9822,-0.9822,-0.9822,-0.9822,-0.9822,-0.9822,-0.9822,-0.9819,-0.97,-0.9632,-0.9602,-0.9347,-0.9258,-0.9204,-0.9025,-0.8905,-0.8885,-0.8885,-0.8898,-0.8988,-0.9163,-0.9241,-0.9323,-0.9544,-0.972,-0.9822,-1.5689,-1.6446,-1.6446,-1.375,-1.4449,-1.4502,-1.1805,-1.3691,-1.4449,-1.1755,-1.4663,-1.6068,-1.3588,-1.348,-1.4669,-1.7364,-1.6068,-1.4609,-1.3372,-1.294,-1.1592,-0.8992,-0.8885,-0.8885,-0.8885,-0.8885,-0.8885,-0.8885,-0.8885,-0.8885,-0.8885,-0.8885,-0.8885,-0.8885,-0.8885,-0.8885,-0.8885,-0.8885,-0.8885,-0.8885,-0.8885,-0.8885,-0.8885,-0.8885,-0.8885,-0.8898,-0.9079,-0.9208,-0.9323,-0.9344,-0.9351,-0.9354,-0.9374,-0.9473,-0.9578,-0.9578,-0.9666,-0.9768,-0.9788,-0.9791,-0.9795,-0.9815,-0.9822,-0.9822,-0.9822,-0.9822,-0.9822,-0.9822,-0.9822,-0.9822,-0.9822,-0.9822,-0.9822,-0.9822,-0.9822,-0.9822,-0.9822,-0.9822,-0.9822,-0.9822,-0.9822,-0.9822,-0.9822,-0.9822,-0.9822,-0.9822,-0.9822,-0.9822,-0.9822,-0.9822,-0.9822,-0.9822,-0.9822,-0.9822,-0.9822,-0.9822,-0.9822,-0.9822,-0.9802,-0.9727,-0.9608,-0.9568,-0.9405,-0.9207,-0.9187,-0.9052,-0.8885,-0.8885,-0.9011,-0.9183,-0.9204,-0.9313,-0.9568,-0.973,-0.9805,-0.9822,-1.677,-1.7147,-1.6929,-1.4824,-1.5689,-1.5636,-1.2778,-1.477,-1.5902,-1.3798,-1.5902,-1.7094,-1.5849,-1.5689,-1.6227,-1.7477,-1.5524,-1.3965,-1.3318,-1.1755,-1.0241,-0.8937,-0.8885,-0.8885,-0.8885,-0.8885,-0.8885,-0.8885,-0.8885,-0.8885,-0.8885,-0.8885,-0.8885,-0.8885,-0.8885,-0.8885,-0.8885,-0.8885,-0.8885,-0.8885,-0.8885,-0.8885,-0.8892,-0.9028,-0.9059,-0.9079,-0.9225,-0.9323,-0.9395,-0.9479,-0.951,-0.952,-0.9602,-0.9673,-0.9727,-0.9727,-0.9771,-0.9822,-0.9822,-0.9822,-0.9822,-0.9822,-0.9822,-0.9822,-0.9822,-0.9822,-0.9822,-0.9822,-0.9822,-0.9822,-0.9822,-0.9822,-0.9822,-0.9822,-0.9822,-0.9822,-0.9822,-0.9822,-0.9822,-0.9822,-0.9822,-0.9822,-0.9822,-0.9822,-0.9822,-0.9822,-0.9822,-0.9822,-0.9822,-0.9822,-0.9822,-0.9822,-0.9822,-0.9822,-0.9822,-0.9822,-0.9822,-0.9822,-0.9822,-0.9788,-0.9727,-0.9646,-0.9537,-0.9405,-0.9317,-0.9242,-0.9188,-0.9188,-0.9225,-0.9347,-0.9374,-0.954,-0.9734,-0.9798,-0.9822,-0.9822]},{"header":{"parameterUnit":"m.s-1","parameterCategory":1,"la1":30.6,"la2":28.766,"lo1":-90.7593,"lo2":-88.6598,"dy":0.0162,"dx":0.0183,"nx":116,"ny":114,"refTime":"2023-10-14T00:00:00:Z","depth":0,"parameterNumber":3,"parameterNumberName":"V-component_of_WINDS"},"data":[0.0,0.0,0.0,0.0,0.0,0.0,0.0,0.0,0.0,0.0,0.0,0.0,0.0,0.0,0.0,0.0,0.0,0.0,0.0,0.0,0.0,0.0,0.0,0.0,0.0,0.0,0.0,0.0,0.0,0.0,0.0,0.0,0.0,0.0,0.0,0.0,0.0,0.0,0.0,0.0,0.0,0.0,0.0,0.0,0.0,0.0,0.0,0.0,0.0,0.0,0.0,0.0,0.0,0.0,0.0,0.0,0.0,0.0,0.0,0.0,0.0,0.0,0.0,0.0,0.0,0.0,0.0,0.0,0.0,0.0,0.0,0.0,0.0,0.0,0.0,0.0,0.0,0.0,0.0,0.0,0.0,0.0,0.0,0.0,0.0,0.0,0.0,0.0,0.0,0.0,0.0,0.0,0.0,0.0,0.0,0.0,0.0,0.0,0.0,0.0,0.0,0.0,0.0,0.0,0.0,0.0,0.0,0.0,0.0,0.0,0.0,0.0,0.0,0.0,0.0,0.0,0.0,0.0,0.0,0.0,0.0,0.0,0.0,0.0,0.0,0.0,0.0,0.0,0.0,0.0,0.0,0.0,0.0,0.0,0.0,0.0,0.0,0.0,0.0,0.0,0.0,0.0,0.0,0.0,0.0,0.0,0.0,0.0,0.0,0.0,0.0,0.0,0.0,0.0,0.0,0.0,0.0,0.0,0.0,0.0,0.0,0.0,0.0,0.0,0.0,0.0,0.0,0.0,0.0,0.0,0.0,0.0,0.0,0.0,0.0,0.0,0.0,0.0,0.0,0.0,0.0,0.0,0.0,0.0,0.0,0.0,0.0,0.0,0.0,0.0,0.0,0.0,0.0,0.0,0.0,0.0,0.0,0.0,0.0,0.0,0.0,0.0,0.0,0.0,0.0,0.0,0.0,0.0,0.0,0.0,0.0,0.0,0.0,0.0,0.0,0.0,0.0,0.0,0.0,0.0,0.0,0.0,0.0,0.0,0.0,0.0,0.0,0.0,0.0,0.0,0.0,0.0,0.0,0.0,0.0,0.0,0.0,0.0,0.0,0.0,0.0,0.0,0.0,0.0,0.0,0.0,0.0,0.0,0.0,0.0,0.0,0.0,0.0,0.0,0.0,0.0,0.0,0.0,0.0,0.0,0.0,0.0,0.0,0.0,0.0,0.0,0.0,0.0,0.0,0.0,0.0,0.0,0.0,0.0,0.0,0.0,0.0,0.0,0.0,0.0,0.0,0.0,0.0,0.0,0.0,0.0,0.0,0.0,0.0,0.0,0.0,0.0,0.0,0.0,0.0,0.0,0.0,0.0,0.0,0.0,0.0,0.0,0.0,0.0,0.0,0.0,0.0,0.0,0.0,0.0,0.0,0.0,0.0,0.0,0.0,0.0,0.0,0.0,0.0,0.0,0.0,0.0,0.0,0.0,0.0,0.0,0.0,0.0,0.0,0.0,0.0,0.0,0.0,0.0,0.0,0.0,0.0,0.0,0.0,0.0,0.0,0.0,0.0,0.0,0.0,0.0,0.0,0.0,0.0,0.0,0.0,0.0,0.0,0.0,0.0,0.0,0.0,0.0,0.0,0.0,0.0,0.0,0.0,0.0,0.0,0.0,0.0,0.0,0.0,0.0,0.0,0.0,0.0,0.0,0.0,0.0,0.0,0.0,0.0,0.0,0.0,0.0,0.0,0.0,0.0,0.0,0.0,0.0,0.0,0.0,0.0,0.0,0.0,0.0,0.0,0.0,0.0,0.0,0.0,0.0,0.0,0.0,0.0,0.0,0.0,0.0,0.0,0.0,0.0,0.0,0.0,0.0,0.0,0.0,0.0,0.0,0.0,0.0,0.0,0.0,0.0,0.0,0.0,0.0,0.0,0.0,0.0,0.0,0.0,0.0,0.0,0.0,0.0,0.0,0.0,0.0,0.0,0.0,0.0,0.0,0.0,0.0,0.0,0.0,0.0,0.0,0.0,0.0,0.0,0.0,0.0,0.0,0.0,0.0,0.0,0.0,0.0,0.0,0.0,0.0,0.0,0.0,0.0,0.0,0.0,0.0,0.0,0.0,0.0,0.0,0.0,0.0,0.0,0.0,0.0,0.0,0.0,0.0,0.0,0.0,0.0,0.0,0.0,0.0,0.0,0.0,0.0,0.0,0.0,0.0,0.0,0.0,0.0,0.0,0.0,0.0,0.0,0.0,0.0,0.0,0.0,0.0,0.0,0.0,0.0,0.0,0.0,0.0,0.0,0.0,0.0,0.0,0.0,0.0,0.0,0.0,0.0,0.0,0.0,0.0,0.0,0.0,0.0,0.0,0.0,0.0,0.0,0.0,0.0,0.0,0.0,0.0,0.0,0.0,0.0,0.0,0.0,0.0,0.0,0.0,0.0,0.0,0.0,0.0,0.0,0.0,0.0,0.0,0.0,0.0,0.0,0.0,0.0,0.0,0.0,0.0,0.0,0.0,0.0,0.0,0.0,0.0,0.0,0.0,0.0,0.0,0.0,0.0,0.0,0.0,0.0,0.0,0.0,0.0,0.0,0.0,0.0,0.0,0.0,0.0,0.0,0.0,0.0,0.0,0.0,0.0,0.0,0.0,0.0,0.0,0.0,0.0,0.0,0.0,0.0,0.0,0.0,0.0,0.0,0.0,0.0,0.0,0.0,0.0,0.0,0.0,0.0,0.0,0.0,0.0,0.0,0.0,0.0,0.0,0.0,0.0,0.0,0.0,0.0,0.0,0.0,0.0,0.0,0.0,0.0,0.0,0.0,0.0,0.0,0.0,0.0,0.0,0.0,0.0,0.0,0.0,0.0,0.0,0.0,0.0,0.0,0.0,0.0,0.0,0.0,0.0,0.0,0.0,0.0,0.0,0.0,0.0,0.0,0.0,0.0,0.0,0.0,0.0,0.0,0.0,0.0,0.0,0.0,0.0,0.0,0.0,0.0,0.0,0.0,0.0,0.0,0.0,0.0,0.0,0.0,0.0,0.0,0.0,0.0,0.0,0.0,0.0,0.0,0.0,0.0,0.0,0.0,0.0,0.0,0.0,0.0,0.0,0.0,0.0,0.0,0.0,0.0,0.0,0.0,0.0,0.0,0.0,0.0,0.0,0.0,0.0,0.0,0.0,0.0,0.0,0.0,0.0,0.0,0.0,0.0,0.0,0.0,0.0,0.0,0.0,0.0,0.0,0.0,0.0,0.0,0.0,0.0,0.0,0.0,0.0,0.0,0.0,0.0,0.0,0.0,0.0,0.0,0.0,0.0,0.0,0.0,0.0,0.0,0.0,0.0,0.0,0.0,0.0,0.0,0.0,0.0,0.0,0.0,0.0,0.0,0.0,0.0,0.0,0.0,0.0,0.0,0.0,0.0,0.0,0.0,0.0,0.0,0.0,0.0,0.0,0.0,0.0,0.0,0.0,0.0,0.0,0.0,0.0,0.0,0.0,0.0,0.0,0.0,0.0,0.0,0.0,0.0,0.0,0.0,0.0,0.0,0.0,0.0,0.0,0.0,0.0,0.0,0.0,0.0,0.0,0.0,0.0,0.0,0.0,0.0,0.0,0.0,0.0,0.0,0.0,0.0,0.0,0.0,0.0,0.0,0.0,0.0,0.0,0.0,0.0,0.0,0.0,0.0,0.0,0.0,0.0,0.0,0.0,0.0,0.0,0.0,0.0,0.0,0.0,0.0,0.0,0.0,0.0,0.0,0.0,0.0,0.0,0.0,0.0,0.0,0.0,0.0,0.0,0.0,0.0,0.0,0.0,0.0,0.0,0.0,0.0,0.0,0.0,0.0,0.0,0.0,0.0,0.0,0.0,0.0,0.0,0.0,0.0,0.0,0.0,0.0,0.0,0.0,0.0,0.0,0.0,0.0,0.0,0.0,0.0,0.0,0.0,0.0,0.0,0.0,0.0,0.0,0.0,0.0,0.0,0.0,0.0,0.0,0.0,0.0,0.0,0.0,0.0,0.0,0.0,0.0,0.0,0.0,0.0,0.0,0.0,0.0,0.0,0.0,0.0,0.0,0.0,0.0,0.0,0.0,0.0,0.0,0.0,0.0,0.0,0.0,0.0,0.0,0.0,0.0,0.0,0.0,0.0,0.0,0.0,0.0,0.0,0.0,0.0,0.0,0.0,0.0,0.0,0.0,0.0,0.0,0.0,0.0,0.0,0.0,0.0,0.0,0.0,0.0,0.0,0.0,0.0,0.0,0.0,0.0,0.0,0.0,0.0,0.0,0.0,0.0,0.0,0.0,0.0,0.0,0.0,0.0,0.0,0.0,0.0,0.0,0.0,0.0,0.0,0.0,0.0,0.0,0.0,0.0,0.0,0.0,0.0,0.0,0.0,0.0,0.0,0.0,0.0,0.0,0.0,0.0,0.0,0.0,0.0,0.0,0.0,0.0,0.0,0.0,0.0,0.0,0.0,0.0,0.0,0.0,0.0,0.0,0.0,0.0,0.0,0.0,0.0,0.0,0.0,0.0,0.0,0.0,0.0,0.0,0.0,0.0,0.0,0.0,0.0,0.0,0.0,0.0,0.0,0.0,0.0,0.0,0.0,0.0,0.0,0.0,0.0,0.0,0.0,0.0,0.0,0.0,0.0,0.0,0.0,0.0,0.0,0.0,0.0,0.0,0.0,0.0,0.0,0.0,0.0,0.0,0.0,0.0,0.0,0.0,0.0,0.0,0.0,0.0,0.0,0.0,0.0,0.0,0.0,0.0,0.0,0.0,0.0,0.0,0.0,0.0,0.0,0.0,0.0,0.0,0.0,0.0,0.0,0.0,0.0,0.0,0.0,0.0,0.0,0.0,0.0,0.0,0.0,0.0,0.0,0.0,0.0,0.0,0.0,0.0,0.0,0.0,0.0,0.0,0.0,0.0,0.0,0.0,0.0,0.0,0.0,0.0,0.0,0.0,0.0,0.0,0.0,0.0,0.0,0.0,0.0,0.0,0.0,0.0,0.0,0.0,0.0,0.0,0.0,0.0,0.0,0.0,0.0,0.0,0.0,0.0,0.0,0.0,0.0,0.0,0.0,0.0,0.0,0.0,0.0,0.0,0.0,0.0,0.0,0.0,0.0,0.0,0.0,0.0,0.0,0.0,0.0,0.0,0.0,0.0,0.0,0.0,0.0,0.0,0.0,0.0,0.0,0.0,0.0,0.0,0.0,0.0,0.0,0.0,0.0,0.0,0.0,0.0,0.0,0.0,0.0,0.0,0.0,0.0,0.0,0.0,0.0,0.0,0.0,0.0,0.0,0.0,0.0,0.0,0.0,0.0,0.0,0.0,0.0,0.0,0.0,0.0,0.0,0.0,0.0,0.0,0.0,0.0,0.0,0.0,0.0,0.0,0.0,0.0,0.0,0.0,0.0,0.0,0.0,0.0,0.0,0.0,0.0,0.0,0.0,0.0,0.0,0.0,0.0,0.0,0.0,0.0,0.0,0.0,0.0,0.0,0.0,0.0,0.0,0.0,0.0,0.0,0.0,0.0,0.0,0.0,0.0,0.0,0.0,0.0,0.0,0.0,0.0,0.0,0.0,0.0,0.0,0.0,0.0,0.0,0.0,0.0,0.0,0.0,0.0,0.0,0.0,0.0,0.0,0.0,0.0,0.0,0.0,0.0,0.0,0.0,0.0,0.0,0.0,0.0,0.0,0.0,0.0,0.0,0.0,0.0,0.0,0.0,0.0,0.0,0.0,0.0,0.0,0.0,0.0,0.0,0.0,0.0,0.0,0.0,0.0,0.0,0.0,0.0,0.0,0.0,0.0,0.0,0.0,0.0,0.0,0.0,0.0,0.0,0.0,0.0,0.0,0.0,0.0,0.0,0.0,0.0,0.0,0.0,0.0,0.0,0.0,0.0,0.0,0.0,0.0,0.0,0.0,0.0,0.0,0.0,0.0,0.0,0.0,0.0,0.0,0.0,0.0,0.0,0.0,0.0,0.0,0.0,0.0,0.0,0.0,0.0,0.0,0.0,0.0,0.0,0.0,0.0,0.0,0.0,0.0,0.0,0.0,0.0,0.0,0.0,0.0,0.0,0.0,0.0,0.0,0.0,0.0,0.0,0.0,0.0,0.0,0.0,0.0,0.0,0.0,3.8119,0.0,0.0,0.0,0.0,0.0,0.0,0.0,0.0,0.0,0.0,0.0,0.0,0.0,0.0,0.0,0.0,0.0,0.0,0.0,0.0,0.0,0.0,0.0,0.0,0.0,0.0,0.0,0.0,0.0,0.0,0.0,0.0,0.0,0.0,0.0,0.0,0.0,0.0,0.0,3.3582,3.3582,3.3556,3.1949,3.1041,3.0705,0.0,0.0,0.0,0.0,0.0,0.0,0.0,0.0,0.0,0.0,0.0,0.0,0.0,0.0,0.0,0.0,0.0,0.0,0.0,0.0,0.0,0.0,0.0,0.0,0.0,0.0,0.0,0.0,0.0,0.0,0.0,0.0,0.0,0.0,0.0,0.0,0.0,0.0,0.0,0.0,0.0,0.0,0.0,0.0,0.0,0.0,0.0,0.0,0.0,0.0,0.0,0.0,0.0,0.0,0.0,0.0,0.0,0.0,0.0,0.0,0.0,0.0,0.0,0.0,0.0,0.0,0.0,0.0,0.0,0.0,0.0,3.8914,0.0,0.0,0.0,0.0,0.0,0.0,0.0,0.0,0.0,0.0,0.0,0.0,0.0,0.0,0.0,0.0,0.0,0.0,0.0,0.0,0.0,0.0,0.0,0.0,0.0,0.0,0.0,0.0,0.0,0.0,0.0,0.0,0.0,0.0,0.0,0.0,0.0,0.0,3.3937,3.3937,3.3953,3.3836,3.3495,3.2922,3.2188,0.0,0.0,0.0,0.0,0.0,0.0,0.0,0.0,0.0,0.0,0.0,0.0,0.0,0.0,0.0,0.0,0.0,0.0,0.0,0.0,0.0,0.0,0.0,0.0,0.0,0.0,0.0,0.0,0.0,0.0,0.0,0.0,0.0,0.0,0.0,0.0,0.0,0.0,0.0,0.0,0.0,0.0,0.0,0.0,0.0,0.0,0.0,0.0,0.0,0.0,0.0,0.0,0.0,0.0,0.0,0.0,0.0,0.0,0.0,0.0,0.0,0.0,0.0,0.0,4.0803,4.041,4.085,4.0821,4.041,4.041,4.0336,4.0229,0.0,0.0,0.0,0.0,0.0,0.0,0.0,0.0,0.0,0.0,0.0,0.0,0.0,0.0,0.0,0.0,0.0,0.0,0.0,0.0,0.0,0.0,0.0,0.0,0.0,0.0,0.0,0.0,0.0,0.0,0.0,0.0,0.0,0.0,3.5339,3.5339,3.5339,3.5339,3.5339,3.5316,3.4736,3.4431,3.4309,3.3633,3.3255,3.3124,0.0,0.0,0.0,0.0,0.0,0.0,0.0,0.0,0.0,0.0,0.0,0.0,0.0,0.0,0.0,0.0,0.0,0.0,0.0,0.0,0.0,0.0,0.0,0.0,0.0,0.0,0.0,0.0,0.0,0.0,0.0,0.0,0.0,0.0,0.0,0.0,0.0,0.0,0.0,0.0,0.0,3.6849,3.6849,0.0,0.0,0.0,0.0,0.0,0.0,0.0,0.0,0.0,0.0,0.0,0.0,0.0,0.0,4.1545,4.1633,4.1686,4.1686,4.1686,4.1643,4.1595,4.1643,4.1643,4.1595,4.1595,0.0,4.0756,4.0286,0.0,0.0,0.0,0.0,0.0,0.0,0.0,0.0,0.0,0.0,0.0,0.0,0.0,0.0,0.0,0.0,0.0,0.0,0.0,0.0,0.0,0.0,0.0,0.0,0.0,0.0,0.0,0.0,0.0,0.0,0.0,0.0,3.6501,3.6501,3.6501,3.6501,3.6501,3.6501,3.6501,3.6205,3.5908,3.5593,3.529,3.4574,3.3582,3.3287,0.0,0.0,0.0,0.0,0.0,0.0,0.0,0.0,0.0,0.0,0.0,0.0,0.0,0.0,0.0,0.0,0.0,0.0,0.0,0.0,0.0,0.0,0.0,0.0,0.0,0.0,0.0,0.0,0.0,0.0,0.0,0.0,0.0,0.0,0.0,0.0,0.0,0.0,0.0,3.6862,3.7209,3.7209,3.6981,3.7038,0.0,0.0,0.0,0.0,0.0,0.0,0.0,0.0,0.0,4.13,4.1616,4.1958,4.2302,4.2752,4.2987,4.3005,4.3435,4.3486,4.3168,4.3507,4.3465,4.3168,4.3507,4.3257,4.2498,4.1483,4.1196,4.138,0.0,0.0,0.0,0.0,0.0,4.1446,0.0,0.0,0.0,0.0,0.0,0.0,0.0,0.0,0.0,0.0,0.0,0.0,0.0,0.0,0.0,3.6603,0.0,0.0,0.0,0.0,0.0,0.0,0.0,3.7209,3.7209,3.7209,3.7209,3.7209,3.7209,3.7209,3.7209,3.7209,3.6999,3.66,3.6457,3.5548,3.4087,3.3937,3.3862,0.0,0.0,0.0,0.0,0.0,0.0,0.0,0.0,0.0,0.0,0.0,0.0,0.0,0.0,0.0,0.0,0.0,0.0,0.0,0.0,0.0,0.0,0.0,0.0,0.0,0.0,0.0,0.0,0.0,0.0,0.0,0.0,0.0,0.0,0.0,0.0,0.0,0.0,3.7248,3.7649,3.7882,3.7576,3.777,0.0,0.0,0.0,0.0,0.0,0.0,4.1174,4.135,4.1678,4.2228,4.2443,4.2749,4.321,4.4008,4.4409,4.4427,4.5007,4.5062,4.4653,4.5102,4.5062,4.4653,4.5102,4.4953,4.4296,4.2748,4.2072,4.2,4.1874,4.181,4.1832,4.1979,4.2021,4.2041,0.0,0.0,0.0,0.0,0.0,0.0,0.0,0.0,0.0,0.0,0.0,0.0,0.0,0.0,3.7171,3.7171,3.7173,3.7209,0.0,0.0,0.0,0.0,0.0,3.7209,3.7209,3.7209,3.7209,3.7209,3.7209,3.7209,3.7209,3.7209,3.719,3.7152,3.6641,3.6075,3.547,3.4823,3.4552,3.4479,0.0,0.0,0.0,0.0,0.0,0.0,0.0,0.0,0.0,0.0,0.0,0.0,0.0,0.0,0.0,0.0,0.0,0.0,0.0,0.0,0.0,0.0,0.0,0.0,0.0,0.0,0.0,0.0,0.0,0.0,0.0,0.0,0.0,0.0,0.0,0.0,0.0,0.0,0.0,3.9669,3.8637,0.0,0.0,0.0,0.0,4.0527,4.1111,4.1756,4.2564,4.3087,4.339,4.341,4.4161,4.4564,4.46,4.5407,4.5792,4.5792,4.5828,4.5847,4.581,4.5847,4.5828,4.581,4.5847,4.5828,4.5645,4.3739,4.2822,4.2596,4.2021,4.181,4.1874,4.244,4.2655,4.2713,0.0,0.0,0.0,0.0,0.0,0.0,0.0,0.0,0.0,0.0,0.0,0.0,0.0,3.747,3.7649,3.7649,3.7982,3.8168,3.8168,0.0,0.0,0.0,0.0,3.8168,3.8168,3.8168,3.8168,3.8168,3.8168,3.8168,3.8168,3.8168,3.7981,3.7649,3.7433,3.7079,3.6565,3.5627,3.523,3.523,3.4981,3.4633,0.0,0.0,0.0,0.0,0.0,0.0,0.0,0.0,0.0,0.0,0.0,0.0,0.0,0.0,0.0,0.0,0.0,0.0,0.0,0.0,0.0,0.0,0.0,0.0,0.0,0.0,0.0,0.0,0.0,0.0,0.0,0.0,0.0,0.0,0.0,0.0,0.0,3.979,3.9479,0.0,0.0,4.1195,4.1343,4.2432,4.2668,4.2903,4.3196,4.3392,4.3736,4.4268,4.4562,4.4947,4.548,4.6269,4.6654,4.6672,4.7205,4.7443,4.7443,4.7443,4.7443,4.7443,4.7443,4.715,4.6617,4.5909,4.5287,4.4692,4.3958,4.3683,4.3629,4.3324,4.3214,4.3232,0.0,0.0,0.0,0.0,0.0,0.0,0.0,0.0,0.0,0.0,0.0,3.7721,3.7721,3.7981,3.8214,3.8287,3.8624,3.8869,3.8998,0.0,0.0,0.0,3.8902,3.8788,3.8707,3.8707,3.8707,3.8707,3.8707,3.8707,3.8707,3.8707,3.8496,3.8167,3.798,3.772,3.7378,3.6504,3.6032,3.5854,3.5672,3.5339,3.4941,0.0,0.0,0.0,0.0,0.0,0.0,0.0,0.0,0.0,0.0,0.0,0.0,0.0,0.0,0.0,0.0,0.0,0.0,0.0,0.0,0.0,0.0,0.0,0.0,0.0,0.0,0.0,0.0,0.0,0.0,0.0,0.0,0.0,0.0,0.0,3.9808,4.0598,4.0469,4.0946,4.2543,4.2451,4.2635,4.3441,4.3515,4.3515,4.3515,4.3754,4.4158,4.4673,4.5223,4.5755,4.6305,4.7094,4.7498,4.7498,4.8048,4.8306,4.8306,4.8306,4.8306,4.8306,4.8306,4.8012,4.7498,4.7498,4.7205,4.6599,4.5535,4.5112,4.5021,4.4195,4.3901,4.3864,0.0,0.0,0.0,0.0,0.0,0.0,0.0,0.0,0.0,0.0,3.8399,3.8723,3.8719,3.8719,3.8829,3.9085,3.9125,3.9251,3.9587,3.9289,0.0,0.0,3.9289,3.8985,3.8735,3.8719,3.8719,3.8704,3.8704,3.8723,3.8707,3.8707,3.8707,3.8692,3.8167,3.7911,3.7876,3.7415,3.6921,3.6395,3.5854,3.5667,3.5667,0.0,0.0,0.0,0.0,0.0,0.0,0.0,0.0,0.0,0.0,0.0,0.0,0.0,0.0,0.0,0.0,0.0,0.0,0.0,0.0,0.0,0.0,0.0,0.0,0.0,0.0,0.0,0.0,0.0,0.0,0.0,0.0,0.0,4.1113,4.1111,4.1405,4.2213,4.1607,4.177,4.3349,4.2782,4.2653,4.3441,4.3515,4.3515,4.3551,4.4287,4.4709,4.4764,4.6305,4.7131,4.715,4.794,4.8325,4.8325,4.8306,4.8306,4.8325,4.8306,4.8306,4.8325,4.8325,4.8325,4.8325,4.8326,4.8344,4.8179,4.6581,4.5938,4.5847,4.5039,4.4745,4.4635,0.0,0.0,0.0,0.0,0.0,0.0,0.0,0.0,0.0,0.0,3.891,3.9077,3.9327,3.9352,3.9371,3.9469,3.945,3.9498,3.9599,0.0,0.0,0.0,3.9498,3.9432,3.9352,3.9352,3.9236,3.8985,3.8985,3.888,3.8707,3.8707,3.8707,3.8692,3.8546,3.8481,3.8449,3.7929,3.7632,3.7433,3.6962,3.6746,3.6746,0.0,0.0,0.0,0.0,0.0,0.0,0.0,0.0,0.0,0.0,0.0,0.0,0.0,0.0,0.0,0.0,0.0,0.0,0.0,0.0,0.0,0.0,0.0,0.0,0.0,0.0,0.0,0.0,0.0,0.0,0.0,0.0,4.2029,4.1217,4.1308,4.1678,4.2228,4.2321,4.2643,4.3403,4.3313,4.3259,4.3478,4.3515,4.3754,4.4342,4.458,4.5223,4.6397,4.7162,4.7817,4.8393,4.8615,4.8745,4.8727,4.8439,4.8458,4.8728,4.8439,4.8458,4.8745,4.8745,4.8745,4.8761,4.9062,4.9155,4.9014,4.7406,4.6764,4.6654,4.5883,4.5571,4.5461,0.0,0.0,0.0,0.0,0.0,0.0,0.0,0.0,0.0,0.0,3.9112,3.9244,3.9564,3.9599,3.9656,3.9797,3.9808,3.9861,3.9974,0.0,0.0,3.9611,3.9724,3.9735,3.9599,3.9599,3.9498,3.9302,3.9302,3.9236,3.9078,3.9078,3.9078,3.9078,3.8942,3.8869,3.884,3.841,3.8251,3.82,3.7929,3.7578,3.7209,3.7209,3.7018,3.6744,3.6744,3.6522,3.627,3.627,0.0,0.0,0.0,0.0,0.0,0.0,0.0,0.0,0.0,0.0,0.0,0.0,0.0,0.0,0.0,0.0,0.0,0.0,0.0,0.0,0.0,0.0,0.0,0.0,4.3563,4.3329,4.2668,4.273,4.2955,4.323,4.344,4.3652,4.3937,4.3962,4.3884,4.3726,4.4024,4.4346,4.4672,4.5509,4.6388,4.7313,4.807,4.8687,4.9155,4.9155,4.9155,4.9139,4.8913,4.8932,4.9139,4.8915,4.893,0.0,4.9155,4.9155,4.9171,4.9401,4.9489,0.0,0.0,0.0,0.0,0.0,4.6444,4.6109,0.0,0.0,0.0,0.0,0.0,0.0,0.0,0.0,0.0,0.0,0.0,3.9339,3.9668,3.9701,3.9829,4.012,4.0139,4.026,0.0,0.0,4.0266,3.9735,3.9983,4.0012,3.9712,3.9701,3.969,3.9656,3.9656,3.9634,3.9599,3.9599,3.9599,3.9587,3.9289,3.9165,3.9139,3.8898,3.8777,3.875,3.875,3.8183,3.7377,3.7377,3.7323,3.7267,3.7267,3.7229,3.7209,3.7209,0.0,0.0,0.0,0.0,0.0,0.0,0.0,0.0,0.0,0.0,0.0,0.0,0.0,0.0,0.0,0.0,0.0,0.0,0.0,0.0,0.0,0.0,0.0,0.0,4.4663,4.467,4.4707,4.4707,4.4682,4.4606,4.4631,4.4631,4.4593,4.4593,4.4498,4.4218,4.486,4.5226,4.5105,0.0,0.0,0.0,0.0,4.9561,4.9561,4.9561,4.9561,4.9561,4.9518,4.9518,4.958,4.9518,4.9518,4.9561,4.9561,4.9561,4.9561,4.9622,4.9603,4.9518,4.9123,4.898,4.8868,4.8047,4.7357,0.0,0.0,0.0,0.0,0.0,0.0,0.0,0.0,0.0,0.0,3.945,3.9742,4.0013,4.0302,4.0328,4.0345,4.0433,4.0414,4.043,0.0,4.0496,4.0457,4.0336,4.0389,4.0397,4.0328,4.0328,4.0212,4.0002,4.0002,3.9851,3.9599,3.9599,3.9599,3.9599,3.9541,3.9498,3.9505,3.9445,3.9275,3.9022,3.9022,3.8774,3.8417,3.8417,3.8133,3.7755,3.7755,3.7524,3.7209,3.7209,3.7133,3.7163,3.7817,0.0,0.0,0.0,0.0,0.0,0.0,0.0,0.0,0.0,0.0,0.0,0.0,0.0,0.0,0.0,0.0,0.0,0.0,0.0,0.0,4.4943,4.4988,4.5096,4.5362,4.541,4.5211,4.4657,4.4849,4.4896,4.4637,4.4593,4.4849,4.5404,4.5598,4.6248,4.7525,4.7974,0.0,4.9122,4.9679,4.9974,4.9974,4.9974,4.9974,4.9974,0.0,0.0,4.9962,4.965,4.9678,4.9974,4.9974,4.9974,5.0019,5.0336,5.0272,4.9949,4.9532,4.9386,4.9292,4.8474,4.8512,4.8836,0.0,0.0,0.0,0.0,0.0,0.0,0.0,0.0,0.0,0.0,4.0002,4.0195,4.0473,4.0496,4.0496,4.0496,4.0496,0.0,4.0496,4.0496,4.0496,4.0496,4.0496,4.0496,4.0496,4.0496,4.0422,4.0304,4.0304,4.0212,4.0053,4.0053,4.0053,4.0043,3.9903,3.984,3.9829,3.9668,3.9498,3.9339,3.9339,3.9275,3.9114,3.8803,3.853,3.83,3.83,3.815,3.7948,3.7948,3.8043,3.8222,3.8616,3.9355,4.0187,0.0,0.0,0.0,0.0,0.0,0.0,0.0,0.0,0.0,0.0,0.0,0.0,0.0,0.0,4.4401,0.0,0.0,4.4954,4.5302,4.5342,4.541,4.5577,4.597,4.5956,4.5197,4.5243,4.5273,4.5118,4.5489,4.5822,4.603,4.6834,4.7592,4.8263,4.888,4.9396,4.98,5.0183,5.0399,5.0399,5.0399,5.0399,5.0399,5.0214,5.0214,5.038,5.0183,5.0206,5.0399,5.0399,5.0399,5.0421,5.0614,5.0575,5.0369,5.0171,4.984,4.948,4.9273,4.9472,4.977,0.0,0.0,0.0,0.0,0.0,0.0,0.0,0.0,0.0,0.0,4.0139,4.025,4.0481,4.0496,4.0496,0.0,0.0,0.0,4.0496,4.0496,4.0496,4.0496,4.0496,4.0496,4.0496,4.0496,4.0496,4.0496,4.0496,4.0496,4.0496,4.0496,4.0496,4.0489,4.0267,4.0177,4.0158,3.9893,3.9746,3.9709,3.9709,3.9656,3.9541,3.9064,3.8833,3.8777,3.8719,3.8707,3.8726,3.8891,3.9071,3.9296,3.9621,4.031,4.1042,4.1201,4.2016,0.0,0.0,0.0,0.0,0.0,0.0,0.0,0.0,0.0,4.4219,4.4618,4.4714,4.485,4.5358,4.5449,4.5598,4.6021,4.6095,4.6095,4.6095,4.6682,4.6874,4.6163,4.6095,4.6095,4.6095,4.6721,4.7079,4.6915,4.8162,4.8867,4.8763,4.9694,5.0225,5.0225,5.0534,5.0712,5.0712,5.0712,5.0712,5.0712,5.0712,5.0712,5.0712,5.0712,5.0712,5.0712,5.0712,5.0712,5.0712,5.0712,5.0712,5.0712,5.0712,5.0294,4.9773,5.0092,5.0225,5.026,0.0,0.0,0.0,0.0,0.0,0.0,0.0,0.0,0.0,0.0,0.0,0.0,0.0,0.0,0.0,0.0,0.0,4.0496,4.0496,4.0496,4.0496,4.0496,4.0496,4.0496,4.0496,4.0496,4.0496,4.0496,4.0496,4.0496,4.0496,4.0496,4.0496,4.0496,4.0473,4.0457,4.0457,4.0414,4.0267,4.0032,4.0032,3.987,3.9599,3.9529,3.932,3.9022,3.8792,3.8707,3.8817,3.9515,3.9793,4.0056,4.1486,4.202,4.2261,4.2973,0.0,4.341,4.341,4.3444,4.3563,4.3865,4.394,4.4046,0.0,0.0,4.4631,4.4966,4.5052,4.5388,4.6494,4.6694,4.6934,4.7692,4.7817,4.7817,4.7817,4.7894,4.7932,4.7836,4.7817,4.7817,4.7817,4.7913,4.8269,4.8991,4.924,4.9653,5.0392,5.0557,5.0624,5.0624,5.0673,5.0712,5.0712,5.0712,5.0712,5.0712,5.0712,5.0712,5.0712,5.0712,5.0712,5.0712,5.0712,5.0712,5.0712,5.0712,5.0712,5.0712,5.0712,5.0634,5.0565,5.0614,5.0624,5.0653,0.0,0.0,0.0,0.0,0.0,0.0,0.0,0.0,0.0,0.0,0.0,0.0,0.0,0.0,0.0,0.0,4.0496,4.0496,4.0496,4.0496,4.0496,4.0496,4.0496,4.0496,4.0496,4.0496,4.0496,4.0496,4.0496,4.0496,4.0496,4.0496,4.0496,4.0496,4.0496,4.0496,4.0496,4.0496,4.0441,4.0339,4.0339,4.0258,4.012,3.9953,3.9797,3.9611,3.9122,3.9234,0.0,0.0,4.0506,4.1405,4.2084,4.2616,4.3057,4.3387,4.3515,0.0,4.3742,4.3788,4.3881,0.0,4.4364,4.4441,4.4806,4.4896,4.5129,4.5973,4.6157,4.6446,4.7433,4.7605,4.7721,0.0,4.8105,4.8105,4.8105,4.8548,4.8856,4.8856,4.9298,4.9202,4.8202,4.8567,4.9009,4.9375,4.9875,5.0327,5.0673,5.0712,5.0712,5.0712,5.0712,5.0712,5.0712,5.0712,5.0712,5.0712,5.0712,5.0712,5.0712,5.0712,5.0712,5.0712,5.0712,5.0712,5.0712,5.0712,5.0712,5.0712,5.0712,5.0712,5.0712,5.0712,5.0712,5.0712,0.0,0.0,0.0,0.0,0.0,0.0,0.0,0.0,0.0,0.0,0.0,0.0,0.0,0.0,0.0,0.0,4.0496,4.0496,4.0496,4.0496,4.0496,4.0496,4.0496,4.0496,4.0496,4.0496,4.0496,4.0496,4.0496,4.0496,4.0496,4.0496,4.0496,4.0496,4.0496,4.0496,4.0496,4.0496,4.0496,4.0496,4.0496,4.0496,4.0481,4.0276,4.0204,4.012,3.9474,3.9618,0.0,0.0,4.1274,4.2329,4.2791,4.3344,4.3807,4.3807,4.371,4.3693,4.3924,0.0,0.0,4.4618,4.4751,4.4837,4.515,4.5423,4.5848,4.6723,4.7077,4.749,4.8317,4.8471,4.8548,4.8779,4.8817,4.8817,4.8817,4.9356,4.976,4.976,5.0327,5.0202,4.8933,4.9394,4.976,4.976,5.0346,5.0712,5.0712,5.0712,5.0712,5.0712,5.0712,5.0712,5.0712,5.0712,5.0712,5.0712,5.0712,5.0712,5.0712,5.0712,5.0712,5.0712,5.0712,5.0712,5.0712,5.0712,5.0712,5.0712,5.0712,5.0712,5.0712,5.0712,5.0712,5.0712,0.0,0.0,0.0,0.0,0.0,0.0,0.0,0.0,0.0,0.0,0.0,0.0,0.0,0.0,0.0,4.0496,4.0496,4.0496,4.0496,4.0496,4.0496,4.0496,4.0496,4.0496,4.0496,4.0496,4.0496,4.0496,4.0496,4.0496,4.0496,4.0496,4.0496,4.0496,4.0496,4.0496,4.0496,4.0496,4.0496,4.0496,4.0496,4.0496,4.0496,4.0489,4.0489,4.0414,3.98,0.0,0.0,0.0,4.2071,4.2392,4.4007,4.4548,0.0,4.4585,4.4276,4.3986,0.0,0.0,4.4175,4.49,4.5085,4.518,4.5504,4.625,4.6856,4.6885,4.7528,4.8336,4.9202,4.9356,4.9644,5.0481,5.0616,5.0616,5.0616,5.0635,5.0654,5.0654,5.0693,5.0673,0.0,5.0654,5.0654,5.0654,5.0693,5.0712,5.0712,5.0712,5.0712,5.0712,5.0712,5.0712,5.0712,5.0712,5.0712,5.0712,5.0712,5.0712,5.0712,5.0712,5.0712,5.0712,5.0712,5.0712,5.0712,5.0712,5.0712,5.0712,5.0712,5.0712,5.0712,5.0712,5.0712,5.0712,0.0,0.0,0.0,0.0,0.0,0.0,0.0,0.0,0.0,0.0,0.0,0.0,0.0,0.0,0.0,0.0,4.0496,4.0496,4.0496,4.0496,4.0496,4.0496,4.0496,4.0496,4.0496,4.0602,4.0636,4.0636,4.0636,4.0636,4.0636,4.0537,4.0496,4.0496,4.0496,4.0496,4.0496,4.0496,4.0496,4.0496,4.0496,4.0496,4.0496,4.0496,4.0496,4.0481,0.0,0.0,0.0,4.1791,4.2454,4.3095,4.424,0.0,4.4593,4.4593,4.4501,4.446,4.4663,0.0,4.4853,4.5303,4.5429,4.5601,4.6299,4.6701,4.7221,4.8336,4.8779,4.9221,5.0087,5.0269,5.0366,5.0654,5.0712,5.0712,5.0712,5.0712,5.0712,5.0712,5.0712,0.0,0.0,0.0,0.0,5.0712,5.0712,5.0712,5.0712,5.0712,5.0712,5.0712,5.0712,5.0712,5.0712,5.0712,5.0712,5.0712,5.0712,5.0712,5.0712,5.0712,5.0712,5.0712,5.0712,5.0712,5.0712,5.0712,5.0712,5.0712,5.0712,5.0712,5.0712,5.0712,5.0712,5.0712,0.0,0.0,0.0,0.0,0.0,0.0,0.0,0.0,0.0,0.0,0.0,0.0,0.0,0.0,0.0,0.0,0.0,4.0496,4.0496,4.0496,4.0496,4.0496,4.0496,4.0527,4.0574,4.0668,4.0707,4.0736,4.0736,4.0736,4.0736,4.0647,4.0584,4.0581,4.0581,4.0537,4.0496,4.0496,4.0689,4.0931,4.0631,4.0689,4.0931,4.0631,4.0496,0.0,0.0,0.0,0.0,4.1764,4.2536,4.3373,4.422,4.4707,4.4943,4.4806,4.4788,4.4837,4.5041,4.5096,4.5191,4.5513,4.5825,4.6201,4.6778,4.7355,4.8105,4.9183,4.9644,5.0029,5.0596,5.0712,5.0712,5.0712,5.0712,5.0712,5.0712,5.0712,5.0712,5.0712,5.0712,0.0,0.0,0.0,0.0,5.0712,5.0712,5.0712,5.0712,5.0712,5.0712,5.0712,5.0712,5.0712,5.0712,5.0712,5.0712,5.0712,5.0712,5.0712,5.0712,5.0712,5.0712,5.0712,5.0712,5.0712,5.0712,5.0712,5.0712,5.0712,5.0712,5.0712,5.0712,5.0712,5.0712,5.0712,0.0,0.0,0.0,0.0,0.0,0.0,0.0,0.0,0.0,0.0,0.0,0.0,0.0,0.0,0.0,0.0,0.0,0.0,4.0496,4.0496,4.0496,4.0496,4.0496,4.0566,4.0697,4.0703,4.0742,4.0805,4.0805,4.0805,4.0797,4.0793,4.0767,4.0686,4.0686,4.0623,4.0496,4.0496,4.0969,4.1662,4.0835,4.0989,4.1643,4.0816,0.0,0.0,0.0,0.0,0.0,4.1508,0.0,4.3297,4.4105,4.4932,4.555,4.5222,4.5137,4.5137,4.5137,4.5137,4.5201,4.5513,4.6259,4.6904,4.6942,4.824,4.9413,4.9452,5.0106,5.0712,0.0,0.0,5.0712,5.0712,5.0712,5.0712,5.0712,5.0712,5.0712,0.0,0.0,0.0,0.0,0.0,0.0,5.0712,0.0,5.0712,5.0712,5.0712,5.0712,5.0712,5.0712,5.0712,5.0712,5.0712,5.0712,5.0712,5.0712,5.0712,5.0712,5.0712,5.0712,5.0712,5.0712,5.0712,5.0712,5.0712,5.0712,5.0712,5.0712,5.0712,5.0712,5.0712,5.0712,5.0712,0.0,0.0,0.0,0.0,0.0,0.0,0.0,0.0,0.0,0.0,0.0,0.0,0.0,0.0,0.0,0.0,0.0,0.0,4.0496,4.0496,4.0496,4.0496,4.0496,4.0566,4.0697,4.0747,4.0828,4.0952,4.0952,4.0905,4.0797,4.0747,4.0654,4.0552,4.0552,4.0523,4.0496,4.0496,4.0631,4.0804,0.0,4.0631,4.0804,0.0,0.0,0.0,0.0,0.0,0.0,0.0,0.0,0.0,0.0,4.5421,4.5577,4.5495,4.5457,4.5457,4.5457,4.5457,4.5495,4.5577,4.6259,4.7058,4.7663,4.8625,4.9586,5.0231,5.0558,5.0712,0.0,0.0,0.0,5.0712,5.0712,0.0,5.0712,5.0712,0.0,5.0712,0.0,5.0712,5.0712,5.0712,0.0,0.0,5.0712,5.0712,5.0712,5.0712,5.0712,5.0712,5.0712,5.0712,5.0712,5.0712,5.0712,5.0712,5.0712,5.0712,5.0712,5.0712,5.0712,5.0712,5.0712,5.0712,5.0712,5.0712,5.0712,5.0712,5.0712,5.0712,5.0712,5.0712,5.0712,5.0712,0.0,0.0,0.0,0.0,0.0,0.0,0.0,0.0,0.0,0.0,0.0,0.0,0.0,0.0,0.0,0.0,0.0,0.0,0.0,4.0496,4.0496,4.0496,4.0496,4.0566,4.0697,4.0742,4.082,4.0914,4.0914,0.0,4.0797,4.0752,4.0682,4.0602,4.0602,4.0552,4.0496,4.0496,0.0,0.0,0.0,0.0,0.0,0.0,0.0,0.0,0.0,0.0,0.0,0.0,0.0,4.3989,4.521,4.5594,4.5594,4.5594,0.0,4.5594,4.5594,4.5594,4.5594,4.5594,4.6509,4.7548,4.8009,4.9067,5.0106,5.0596,5.0712,0.0,0.0,0.0,0.0,0.0,0.0,0.0,5.0712,5.0712,5.0712,0.0,5.0712,0.0,5.0712,5.0712,5.0712,0.0,5.0712,5.0712,5.0712,5.0712,5.0712,5.0712,5.0712,5.0712,5.0712,5.0712,5.0712,5.0712,5.0712,5.0712,5.0712,5.0712,5.0712,5.0712,0.0,5.0712,5.0712,5.0712,5.0712,5.0712,5.0712,5.0712,5.0712,5.0712,5.0712,5.0712,0.0,0.0,0.0,0.0,0.0,0.0,0.0,0.0,0.0,0.0,0.0,0.0,0.0,0.0,0.0,0.0,0.0,0.0,0.0,0.0,0.0,4.0449,4.0481,4.0566,4.0697,4.0697,4.0731,4.0797,4.0797,0.0,0.0,0.0,0.0,0.0,0.0,0.0,0.0,0.0,0.0,0.0,0.0,0.0,0.0,0.0,0.0,0.0,0.0,0.0,0.0,0.0,4.3258,4.3528,4.5114,4.5594,4.5594,4.5594,4.5594,4.5594,4.5594,4.5594,4.5594,4.5594,4.6855,4.8105,4.8105,4.9452,5.0712,5.0712,0.0,5.0712,5.0712,5.0712,5.0712,5.0712,0.0,5.0712,5.0712,5.0712,5.0712,5.0712,5.0712,5.0712,5.0712,5.0712,5.0712,5.0712,5.0712,5.0712,5.0712,5.0712,5.0712,5.0712,5.0712,5.0712,5.0712,5.0712,5.0712,5.0712,5.0712,5.0712,5.0712,5.0712,5.0712,5.0712,0.0,0.0,5.0712,5.0712,5.0712,5.0712,5.0712,5.0712,5.0712,5.0712,5.0712,5.0712,0.0,0.0,0.0,0.0,0.0,0.0,0.0,0.0,0.0,0.0,0.0,0.0,0.0,0.0,0.0,0.0,0.0,0.0,0.0,0.0,0.0,0.0,4.0381,4.0566,4.0697,4.0697,4.0731,4.0797,4.0797,0.0,0.0,0.0,0.0,0.0,0.0,0.0,0.0,0.0,0.0,0.0,0.0,0.0,0.0,0.0,0.0,0.0,0.0,0.0,0.0,4.3566,4.4085,4.4259,4.5287,4.5594,4.5594,4.5594,4.5594,4.5594,4.5594,4.5594,4.5594,4.5594,4.6855,4.8105,4.8105,4.9452,0.0,0.0,5.0712,5.0712,5.0712,5.0712,5.0712,5.0712,0.0,0.0,0.0,0.0,5.0712,0.0,0.0,0.0,0.0,0.0,0.0,0.0,0.0,0.0,5.0712,5.0712,5.0712,5.0712,5.0712,5.0712,5.0712,5.0712,5.0712,5.0712,5.0712,5.0712,5.0712,5.0712,5.0712,5.0712,0.0,0.0,5.0712,5.0712,5.0712,5.0712,5.0712,5.0712,5.0712,5.0712,5.0712,5.0712,0.0,0.0,0.0,0.0,0.0,0.0,0.0,0.0,0.0,0.0,0.0,0.0,0.0,0.0,0.0,0.0,0.0,0.0,0.0,0.0,0.0,0.0,0.0,0.0,0.0,4.0589,4.0617,4.0633,0.0,4.0636,4.0589,4.0589,4.0566,0.0,0.0,0.0,0.0,0.0,0.0,0.0,0.0,0.0,0.0,0.0,0.0,0.0,0.0,0.0,0.0,0.0,4.4605,4.5056,4.5479,4.5594,4.5594,4.5594,4.5594,4.5594,4.5594,4.5594,4.5594,4.5594,4.6855,4.8105,4.8105,0.0,0.0,0.0,5.0712,5.0712,5.0712,5.0712,0.0,5.0712,0.0,0.0,0.0,0.0,0.0,0.0,0.0,0.0,0.0,0.0,0.0,0.0,0.0,0.0,5.0712,5.0712,5.0712,5.0712,5.0712,5.0712,5.0712,5.0712,5.0712,5.0712,5.0712,5.0712,5.0712,5.0712,5.0712,5.0712,5.0712,0.0,5.0712,5.0712,5.0712,5.0712,5.0712,5.0712,5.0712,5.0712,5.0712,5.0712,0.0,0.0,0.0,0.0,0.0,0.0,0.0,0.0,0.0,0.0,0.0,0.0,0.0,0.0,0.0,0.0,0.0,0.0,0.0,0.0,0.0,0.0,0.0,0.0,0.0,0.0,0.0,4.0496,4.0496,0.0,0.0,0.0,0.0,0.0,4.0496,4.0496,0.0,0.0,0.0,0.0,0.0,0.0,0.0,0.0,0.0,0.0,0.0,0.0,0.0,0.0,4.5037,4.5594,4.5594,4.5594,4.5594,4.5594,4.5594,4.5594,4.5594,4.5594,4.5594,4.5594,4.6855,4.8105,4.8105,4.9452,0.0,0.0,5.0712,5.0712,5.0712,5.0712,5.0712,0.0,5.0712,5.0712,0.0,0.0,0.0,0.0,0.0,0.0,0.0,0.0,0.0,0.0,0.0,0.0,5.0712,5.0712,5.0712,5.0712,5.0712,5.0712,5.0712,5.0712,5.0712,5.0712,5.0712,5.0712,5.0712,5.0712,5.0712,5.0712,5.0712,0.0,0.0,5.0712,5.0712,5.0712,5.0712,5.0712,5.0712,5.0712,5.0712,5.0712,0.0,0.0,0.0,0.0,0.0,0.0,0.0,0.0,0.0,0.0,0.0,0.0,0.0,0.0,0.0,0.0,0.0,0.0,0.0,0.0,0.0,0.0,0.0,0.0,0.0,0.0,0.0,4.0496,4.0496,0.0,0.0,0.0,0.0,0.0,0.0,4.0496,4.0496,0.0,0.0,0.0,0.0,0.0,0.0,0.0,0.0,0.0,0.0,0.0,0.0,0.0,0.0,4.5594,4.5594,4.5594,4.5594,4.5594,0.0,0.0,4.5594,4.5594,4.5594,4.5594,4.6855,4.8105,4.8105,0.0,0.0,5.0712,5.0712,5.0712,5.0712,5.0712,5.0712,0.0,0.0,5.0712,0.0,0.0,0.0,0.0,0.0,0.0,0.0,0.0,0.0,0.0,0.0,0.0,0.0,5.0712,5.0712,5.0712,5.0712,5.0712,5.0712,5.0712,5.0712,5.0712,5.0712,5.0712,5.0712,5.0712,5.0712,5.0712,0.0,0.0,0.0,5.0712,5.0712,5.0712,5.0712,5.0712,5.0712,5.0712,5.0712,5.0712,0.0,0.0,0.0,0.0,0.0,0.0,0.0,0.0,0.0,0.0,0.0,0.0,0.0,0.0,0.0,0.0,0.0,0.0,0.0,0.0,0.0,0.0,0.0,0.0,0.0,0.0,0.0,3.9964,3.9964,0.0,0.0,0.0,0.0,0.0,0.0,4.0496,4.0496,0.0,0.0,0.0,0.0,0.0,0.0,0.0,0.0,0.0,0.0,0.0,0.0,0.0,0.0,0.0,4.5594,4.5594,0.0,0.0,4.5594,4.5594,4.5594,4.5594,4.5594,4.5594,4.649,4.7394,4.7394,0.0,4.9913,4.9913,5.0327,5.0712,5.0712,5.0712,5.0712,0.0,0.0,0.0,5.1356,0.0,0.0,0.0,0.0,0.0,0.0,0.0,0.0,0.0,0.0,0.0,0.0,5.0712,5.0712,5.0712,5.0712,5.0712,5.0712,5.0712,5.0712,5.0712,5.0712,5.0712,5.0712,5.0712,5.0712,5.0712,0.0,0.0,0.0,5.0712,5.0712,5.0712,5.0712,5.0712,5.0712,5.0712,5.0712,5.0712,0.0,0.0,0.0,0.0,0.0,0.0,0.0,0.0,0.0,0.0,0.0,0.0,0.0,0.0,0.0,0.0,0.0,0.0,0.0,0.0,0.0,0.0,0.0,0.0,0.0,0.0,0.0,3.9599,3.9599,3.9599,0.0,0.0,4.0002,4.011,0.0,0.0,0.0,0.0,0.0,0.0,0.0,0.0,0.0,0.0,0.0,0.0,0.0,0.0,0.0,0.0,0.0,0.0,0.0,4.5594,4.5594,0.0,4.5594,4.5594,4.5594,4.5594,4.5594,4.5594,4.6259,4.6904,0.0,0.0,4.9086,4.9356,4.9894,5.0385,5.0654,5.0712,5.0712,5.0712,0.0,5.0971,5.1788,0.0,0.0,0.0,0.0,0.0,0.0,0.0,0.0,0.0,0.0,0.0,0.0,5.0712,5.0712,5.0712,5.0712,5.0712,5.0712,5.0712,5.0712,5.0712,5.0712,5.0712,5.0712,5.0712,5.0712,5.0712,0.0,0.0,0.0,5.0712,5.0712,5.0712,5.0712,5.0712,5.0712,5.0712,5.0712,5.0712,0.0,0.0,0.0,0.0,0.0,0.0,0.0,0.0,0.0,0.0,0.0,0.0,0.0,0.0,0.0,0.0,0.0,0.0,0.0,0.0,0.0,0.0,0.0,0.0,0.0,0.0,0.0,0.0,0.0,3.9599,3.9599,3.9599,3.9786,4.0101,0.0,0.0,0.0,0.0,0.0,0.0,0.0,0.0,0.0,0.0,0.0,0.0,0.0,0.0,0.0,0.0,0.0,0.0,0.0,4.5594,4.5594,4.5594,4.5594,4.5594,4.5594,4.5594,4.5594,4.5594,4.6259,4.6904,0.0,4.7528,4.8355,4.9221,4.9413,4.9683,5.0539,5.0712,5.0712,5.0712,5.0712,0.0,5.1788,0.0,0.0,0.0,0.0,0.0,0.0,0.0,0.0,0.0,0.0,0.0,0.0,5.0712,5.0712,5.0712,5.0712,5.0712,5.0712,5.0712,5.0712,5.0712,5.0712,5.0712,5.0712,5.0712,5.0712,0.0,0.0,0.0,0.0,5.0712,5.0712,5.0712,5.0712,5.0712,5.0712,5.0712,5.0712,5.0712,0.0,0.0,0.0,0.0,0.0,0.0,0.0,0.0,0.0,0.0,0.0,0.0,0.0,0.0,0.0,0.0,0.0,0.0,0.0,0.0,0.0,0.0,0.0,0.0,0.0,0.0,0.0,0.0,0.0,0.0,0.0,0.0,3.9314,3.9445,3.9656,0.0,0.0,0.0,0.0,0.0,0.0,0.0,0.0,0.0,0.0,0.0,0.0,0.0,0.0,0.0,0.0,0.0,0.0,0.0,0.0,4.5594,4.5594,4.5594,4.5594,4.5594,4.5594,4.5594,4.5806,4.6009,4.6009,4.6663,4.7509,4.8336,4.899,4.9663,5.0539,5.0712,5.0712,5.0712,5.1164,0.0,0.0,0.0,0.0,0.0,0.0,0.0,0.0,0.0,0.0,0.0,0.0,0.0,0.0,5.0712,5.0712,5.0712,5.0712,5.0712,5.0712,5.0106,4.9798,4.9798,4.9202,4.8913,4.8933,4.9529,0.0,0.0,0.0,0.0,0.0,5.0712,5.0712,5.0712,5.0712,5.0712,5.0712,5.0712,5.0712,5.0712,0.0,0.0,0.0,0.0,0.0,0.0,0.0,0.0,0.0,0.0,0.0,0.0,0.0,0.0,0.0,0.0,0.0,0.0,0.0,0.0,0.0,0.0,0.0,0.0,0.0,0.0,0.0,0.0,0.0,0.0,0.0,0.0,0.0,0.0,3.9314,0.0,0.0,0.0,0.0,0.0,0.0,0.0,4.0166,0.0,0.0,0.0,0.0,0.0,0.0,0.0,0.0,0.0,0.0,0.0,0.0,0.0,4.5594,4.5594,4.5594,4.5594,4.5594,4.5594,4.5594,0.0,4.6009,4.6509,4.7221,4.8355,4.9029,4.9663,5.0539,5.0712,5.0712,5.0712,5.1375,0.0,0.0,0.0,0.0,0.0,0.0,0.0,0.0,0.0,0.0,0.0,0.0,0.0,0.0,0.0,5.0212,5.0212,5.0212,5.0212,5.0212,4.9356,4.8913,4.8894,4.8355,4.8105,4.8125,4.8663,0.0,0.0,0.0,0.0,0.0,5.0712,5.0712,5.0712,5.0712,5.0712,5.0712,5.0712,5.0712,5.0712,0.0,0.0,0.0,0.0,0.0,0.0,0.0,0.0,0.0,0.0,0.0,0.0,0.0,0.0,0.0,0.0,0.0,0.0,0.0,0.0,0.0,0.0,0.0,0.0,0.0,0.0,0.0,3.8707,3.8707,3.8707,3.8707,0.0,0.0,0.0,0.0,0.0,0.0,0.0,0.0,0.0,3.9599,3.9599,0.0,0.0,0.0,0.0,0.0,0.0,0.0,0.0,0.0,0.0,0.0,0.0,0.0,0.0,0.0,0.0,0.0,4.5594,4.5594,0.0,0.0,0.0,4.6701,4.6904,0.0,4.9048,4.9394,4.9663,5.0539,5.0712,5.0712,5.0712,5.1433,0.0,0.0,0.0,0.0,0.0,0.0,0.0,0.0,0.0,0.0,0.0,0.0,0.0,0.0,0.0,4.9375,4.9317,4.924,4.924,4.9317,4.8452,4.8009,4.8009,4.7952,4.7913,4.7913,4.799,0.0,0.0,0.0,0.0,0.0,5.0673,5.0712,5.0712,5.0712,5.0712,5.0712,5.0712,5.0712,5.0712,0.0,0.0,0.0,0.0,0.0,0.0,0.0,0.0,0.0,0.0,0.0,0.0,0.0,0.0,0.0,0.0,0.0,0.0,0.0,0.0,0.0,0.0,0.0,0.0,0.0,0.0,0.0,3.8707,3.8707,3.8707,3.8707,3.8707,0.0,0.0,0.0,3.8848,3.8931,0.0,0.0,0.0,3.9505,3.9599,0.0,0.0,0.0,0.0,4.0101,4.0392,0.0,0.0,0.0,0.0,0.0,0.0,0.0,0.0,4.5594,4.5594,4.5594,0.0,4.5594,4.5594,4.5594,4.5825,0.0,4.6904,4.7375,4.9048,4.9394,4.9663,5.0539,5.0712,5.0712,5.0712,5.1933,0.0,0.0,0.0,0.0,0.0,0.0,0.0,0.0,0.0,0.0,0.0,0.0,0.0,0.0,0.0,4.9086,4.8432,4.7817,4.7778,4.8394,4.7586,4.7173,4.7173,4.6509,4.6191,4.6201,4.6874,0.0,0.0,0.0,0.0,4.976,5.0442,5.0712,5.0712,5.0712,5.0712,5.0712,5.0712,5.0712,5.0712,0.0,0.0,0.0,0.0,0.0,0.0,0.0,0.0,0.0,0.0,0.0,0.0,0.0,0.0,0.0,0.0,0.0,0.0,0.0,0.0,0.0,0.0,0.0,0.0,0.0,0.0,0.0,0.0,0.0,3.8707,0.0,0.0,0.0,0.0,0.0,3.8707,3.8723,3.8855,3.8923,3.8937,3.9095,0.0,0.0,0.0,0.0,0.0,3.988,4.0129,0.0,4.1046,4.1777,4.2643,0.0,0.0,0.0,0.0,4.5594,4.5594,4.5594,4.5594,4.5594,4.5594,4.5594,4.5922,4.7163,4.7451,4.7932,4.9644,4.999,5.0144,5.0616,5.0712,5.0712,5.0712,5.1779,0.0,0.0,0.0,0.0,0.0,0.0,0.0,0.0,0.0,0.0,0.0,0.0,0.0,0.0,0.0,4.8048,4.7567,4.674,4.6701,4.7548,4.6721,4.6297,4.6297,4.5825,4.5594,4.5614,4.6086,0.0,0.0,0.0,0.0,4.9433,4.9913,5.0346,5.0712,5.0712,5.0712,5.0712,5.0712,5.0712,5.0712,0.0,0.0,0.0,0.0,0.0,0.0,0.0,0.0,0.0,0.0,0.0,0.0,0.0,0.0,0.0,0.0,0.0,0.0,0.0,0.0,0.0,0.0,0.0,0.0,0.0,0.0,0.0,0.0,0.0,0.0,0.0,0.0,3.8707,0.0,3.8707,3.8707,3.8707,3.8707,3.8707,3.8707,3.8707,0.0,0.0,0.0,0.0,0.0,0.0,0.0,0.0,4.0457,4.1061,4.1942,4.2835,0.0,0.0,0.0,0.0,0.0,4.5594,4.5594,4.5594,4.5594,4.5594,4.6037,4.7721,4.8105,4.8586,5.0346,0.0,0.0,0.0,5.0712,0.0,0.0,0.0,0.0,0.0,0.0,0.0,0.0,0.0,0.0,0.0,0.0,0.0,0.0,0.0,0.0,0.0,0.0,0.0,4.6721,4.599,4.5951,4.6701,4.597,4.5594,4.5594,4.5594,4.5594,4.5594,4.5594,0.0,0.0,0.0,0.0,4.9202,4.9356,4.9913,5.0712,5.0712,5.0712,5.0712,5.0712,5.0712,5.0712,0.0,0.0,0.0,0.0,0.0,0.0,0.0,0.0,0.0,0.0,0.0,0.0,0.0,0.0,0.0,0.0,0.0,0.0,0.0,0.0,0.0,0.0,0.0,0.0,0.0,0.0,0.0,0.0,0.0,0.0,3.8707,3.8707,3.8707,3.8707,3.8707,3.8707,3.8707,3.8707,3.8707,3.8707,3.8707,0.0,0.0,0.0,0.0,0.0,0.0,0.0,0.0,4.0232,4.0888,4.1942,4.2835,0.0,0.0,0.0,0.0,0.0,4.5594,4.5594,4.5594,4.5594,4.5594,4.6037,4.7721,4.8105,4.8586,0.0,0.0,0.0,0.0,5.0712,0.0,0.0,0.0,0.0,0.0,0.0,0.0,0.0,0.0,0.0,0.0,0.0,0.0,0.0,0.0,0.0,0.0,0.0,0.0,4.5825,4.5671,4.5671,4.5806,4.5671,4.5594,4.5594,4.5594,4.5594,4.5594,4.5594,4.5671,0.0,0.0,4.7432,4.8355,4.9106,4.9913,5.0712,5.0712,5.0712,5.0712,5.0712,5.0712,5.0712,0.0,0.0,0.0,0.0,0.0,0.0,0.0,0.0,0.0,0.0,0.0,0.0,0.0,0.0,0.0,0.0,0.0,0.0,0.0,0.0,0.0,0.0,0.0,0.0,0.0,0.0,0.0,0.0,0.0,3.8707,3.8707,3.8707,3.8707,3.8707,3.8707,3.8707,3.8707,3.8707,3.8707,3.8707,0.0,0.0,0.0,0.0,0.0,0.0,0.0,0.0,0.0,0.0,4.0658,4.1258,4.2124,0.0,0.0,0.0,0.0,0.0,4.5594,4.5594,4.5594,4.5594,4.5951,4.6624,4.7836,4.8471,4.9163,0.0,0.0,0.0,0.0,0.0,0.0,0.0,0.0,0.0,0.0,0.0,0.0,0.0,0.0,0.0,0.0,0.0,0.0,0.0,0.0,0.0,0.0,0.0,0.0,0.0,4.5594,4.5594,4.5594,4.5594,4.5594,4.5594,4.5594,4.5594,4.5594,4.5594,4.5594,4.5614,0.0,4.6913,4.8125,4.8529,4.949,5.0712,5.0712,5.0712,5.0712,5.0712,5.0712,5.0712,0.0,0.0,0.0,0.0,0.0,0.0,0.0,0.0,0.0,0.0,0.0,0.0,0.0,0.0,0.0,0.0,0.0,0.0,0.0,0.0,0.0,0.0,0.0,0.0,0.0,0.0,3.7304,3.7893,3.83,3.8596,3.8707,3.8707,3.8707,3.8707,3.8707,3.8707,3.8707,3.8707,3.8707,3.8707,0.0,0.0,0.0,0.0,0.0,0.0,0.0,0.0,0.0,0.0,0.0,0.0,0.0,0.0,0.0,4.4316,4.5075,4.5594,4.5594,4.5594,4.5652,4.5845,4.6413,4.7096,4.7932,4.8779,4.9644,0.0,0.0,0.0,0.0,0.0,0.0,0.0,0.0,0.0,0.0,0.0,0.0,0.0,0.0,0.0,0.0,0.0,0.0,0.0,0.0,0.0,0.0,0.0,0.0,0.0,4.5594,4.5594,4.5594,4.5594,4.5594,4.5594,4.5594,4.5594,4.5594,4.5594,4.5594,4.5594,4.5594,4.6432,4.7836,4.8029,4.9009,5.0423,5.0616,5.0712,5.0712,5.0712,5.0712,5.0712,0.0,0.0,0.0,0.0,0.0,0.0,0.0,0.0,0.0,0.0,0.0,0.0,0.0,0.0,0.0,0.0,0.0,0.0,0.0,0.0,0.0,0.0,0.0,0.0,0.0,3.6437,3.6943,3.7893,3.7946,3.82,3.8707,3.8707,3.8707,3.8707,3.8707,3.8707,3.8707,3.8707,3.8707,3.8707,3.8707,0.0,0.0,0.0,0.0,0.0,0.0,0.0,0.0,0.0,0.0,0.0,0.0,0.0,4.3412,4.5037,4.5556,4.5594,4.5594,4.5594,4.5787,4.6605,4.6846,4.7096,4.7932,4.8779,4.9644,5.0519,0.0,0.0,0.0,0.0,0.0,0.0,0.0,0.0,0.0,0.0,0.0,0.0,0.0,0.0,0.0,0.0,0.0,0.0,0.0,0.0,0.0,0.0,0.0,0.0,0.0,4.5594,4.5594,4.5594,4.5594,4.5594,4.5594,4.5594,4.5594,4.5594,4.5594,4.5594,4.5594,4.6124,4.7038,4.7798,4.8644,4.9567,5.0385,5.0712,5.0712,5.0712,5.0712,5.0712,0.0,0.0,0.0,0.0,0.0,0.0,0.0,0.0,0.0,0.0,0.0,0.0,0.0,0.0,0.0,0.0,0.0,0.0,0.0,0.0,0.0,0.0,0.0,3.5854,3.6374,3.6724,3.7229,3.7893,3.8232,3.8496,3.8707,3.8707,0.0,3.8707,3.8707,3.8707,3.8707,3.8707,3.8707,3.8707,3.8707,3.8707,0.0,0.0,0.0,0.0,0.0,0.0,0.0,0.0,4.0425,4.0708,4.1912,4.2662,4.3316,4.4451,4.519,4.5594,4.5594,4.5594,4.5806,4.6682,4.7278,4.7875,4.8721,4.9586,5.0308,5.0635,5.0712,0.0,0.0,0.0,0.0,0.0,0.0,0.0,0.0,0.0,0.0,0.0,0.0,0.0,0.0,0.0,0.0,0.0,0.0,0.0,0.0,0.0,0.0,0.0,0.0,4.5594,4.5594,4.5594,4.5594,4.5594,4.5594,4.5594,4.5594,4.5594,4.5594,4.5594,4.5594,4.6086,4.6962,4.7778,4.8606,4.949,5.0366,5.0712,5.0712,5.0712,5.0712,5.0712,0.0,0.0,0.0,0.0,0.0,0.0,0.0,0.0,0.0,0.0,0.0,0.0,0.0,0.0,0.0,0.0,0.0,0.0,0.0,0.0,0.0,0.0,0.0,3.5783,3.6139,3.6843,3.7433,3.7893,3.8449,3.8707,3.8707,0.0,0.0,3.8707,3.8707,3.8707,3.8707,3.8707,3.8707,3.8707,3.8707,3.8707,0.0,0.0,0.0,0.0,0.0,0.0,0.0,0.0,4.0496,4.0708,4.1854,4.2624,4.3316,4.4393,4.5133,4.5594,4.5594,4.5806,4.6201,4.7067,4.7894,4.874,4.9606,5.0269,5.0712,5.0712,5.0712,0.0,0.0,0.0,0.0,0.0,0.0,0.0,0.0,0.0,0.0,0.0,0.0,0.0,0.0,0.0,0.0,0.0,0.0,0.0,0.0,0.0,0.0,0.0,0.0,0.0,4.5594,4.5594,4.5594,4.5594,4.5594,4.5594,4.5594,4.5594,4.5594,4.5594,4.5594,4.5932,4.6567,4.7644,4.8779,4.9875,5.0481,5.0712,5.0712,5.0712,5.0712,5.0712,0.0,0.0,0.0,0.0,0.0,0.0,0.0,0.0,0.0,0.0,0.0,0.0,0.0,0.0,0.0,0.0,0.0,0.0,0.0,0.0,0.0,0.0,0.0,3.56,3.5622,3.6664,3.7433,3.7893,3.8449,3.8707,3.8707,3.8707,0.0,3.8707,3.8707,3.8707,3.8707,3.8707,3.8707,3.8707,3.8707,3.8707,3.8735,0.0,0.0,0.0,0.0,0.0,0.0,0.0,4.0496,4.0804,4.2547,4.3104,4.3431,4.5114,4.5594,4.5594,4.5614,4.624,4.7077,4.7913,4.8759,4.9625,5.05,5.0712,5.0712,5.0712,5.0712,5.0712,5.0712,0.0,0.0,0.0,0.0,0.0,0.0,0.0,0.0,0.0,0.0,0.0,0.0,0.0,0.0,0.0,0.0,0.0,0.0,0.0,0.0,0.0,0.0,0.0,4.5594,4.5594,4.5594,4.5594,4.5594,4.5594,4.5594,4.5594,4.5594,4.5594,4.5594,4.5594,4.5729,4.7413,4.9125,5.0693,5.0712,5.0712,5.0712,5.0712,5.0712,5.0712,0.0,0.0,0.0,0.0,0.0,0.0,0.0,0.0,0.0,0.0,0.0,0.0,0.0,0.0,0.0,0.0,0.0,0.0,0.0,0.0,0.0,0.0,0.0,0.0,0.0,0.0,3.7947,3.8465,3.8627,3.8707,0.0,0.0,3.8707,3.8707,3.8707,3.8707,3.8707,3.8707,3.8707,3.8707,3.8707,3.88,3.8985,0.0,0.0,0.0,0.0,0.0,0.0,0.0,0.0,0.0,4.2547,4.3104,4.3431,4.5114,4.5594,4.5729,4.6355,4.6259,4.6471,4.8509,0.0,0.0,0.0,5.0712,0.0,0.0,5.0712,5.0712,0.0,0.0,0.0,0.0,0.0,0.0,0.0,0.0,0.0,0.0,0.0,0.0,0.0,0.0,0.0,0.0,0.0,0.0,0.0,0.0,0.0,0.0,0.0,0.0,4.5594,4.5594,4.5594,4.5594,4.5594,4.5594,4.5594,4.5594,4.5594,4.5594,4.5594,4.5594,4.5729,4.7413,4.8779,4.9856,5.0462,5.0712,5.0712,5.0712,5.0712,5.0712,0.0,0.0,0.0,0.0,0.0,0.0,0.0,0.0,0.0,0.0,3.56,3.56,0.0,0.0,0.0,0.0,0.0,0.0,0.0,0.0,0.0,0.0,0.0,0.0,0.0,3.7323,3.7981,0.0,0.0,0.0,0.0,3.8707,3.8707,3.8707,3.8707,3.8707,3.8707,3.8707,3.8707,3.8707,3.8707,3.8803,3.8975,0.0,0.0,0.0,0.0,0.0,0.0,0.0,0.0,0.0,4.2662,4.3316,4.3835,4.521,4.5594,4.571,4.624,4.649,4.6951,4.849,4.9009,4.9413,5.0462,0.0,0.0,0.0,0.0,0.0,0.0,0.0,0.0,0.0,0.0,0.0,0.0,0.0,0.0,0.0,0.0,0.0,0.0,0.0,0.0,0.0,0.0,0.0,0.0,0.0,0.0,0.0,0.0,0.0,4.5594,4.5594,4.5594,4.5594,4.5594,4.5594,4.5594,4.5594,4.5594,4.5594,4.5594,4.5806,4.622,4.7548,4.8606,4.949,5.0366,5.0712,5.0712,5.0712,5.0712,5.0712,0.0,0.0,0.0,0.0,0.0,0.0,0.0,0.0,0.0,0.0,3.56,3.56,0.0,0.0,0.0,0.0,0.0,0.0,0.0,0.0,0.0,0.0,0.0,0.0,0.0,0.0,0.0,0.0,0.0,0.0,3.8707,3.8707,3.8707,3.8707,3.8707,3.8707,3.8707,3.8707,3.8707,3.8707,3.8707,3.8735,3.8833,3.9402,0.0,0.0,0.0,0.0,0.0,0.0,0.0,0.0,4.2835,4.3643,4.447,4.5344,4.5594,4.5614,4.571,4.6836,4.8029,4.8182,4.9471,0.0,5.0712,5.0635,5.0577,0.0,0.0,0.0,0.0,0.0,0.0,0.0,0.0,0.0,0.0,0.0,0.0,0.0,0.0,0.0,0.0,0.0,0.0,0.0,0.0,0.0,0.0,0.0,0.0,0.0,0.0,0.0,4.5594,4.5594,4.5594,0.0,4.5594,4.5594,4.5594,4.5594,4.5594,4.5594,4.5594,4.6047,4.6855,4.774,4.8567,4.9375,5.0327,5.0712,5.0712,5.0712,5.0712,5.0712,0.0,0.0,0.0,0.0,0.0,0.0,0.0,0.0,0.0,0.0,0.0,0.0,0.0,0.0,0.0,0.0,0.0,0.0,0.0,0.0,0.0,0.0,0.0,0.0,0.0,0.0,0.0,0.0,0.0,3.8707,3.8707,3.8707,3.8707,3.8707,3.8707,3.8707,3.8707,3.8707,3.8707,3.8707,3.8707,3.8984,3.9427,3.9552,3.9894,0.0,0.0,0.0,0.0,0.0,0.0,0.0,4.2835,4.3643,4.447,4.5344,4.5594,4.5748,4.6432,4.6874,4.7471,4.8798,4.9913,5.0712,5.0712,5.0164,4.9683,0.0,0.0,0.0,0.0,0.0,0.0,0.0,0.0,0.0,0.0,0.0,0.0,0.0,0.0,0.0,0.0,0.0,0.0,0.0,0.0,0.0,0.0,0.0,0.0,0.0,0.0,4.5594,4.5594,4.5594,4.5594,0.0,4.5594,4.5594,4.5594,4.5594,4.5594,4.5594,4.5594,4.571,4.599,4.749,4.8221,4.8529,5.0087,5.0712,5.0712,5.0712,5.0712,5.0712,0.0,0.0,0.0,0.0,0.0,0.0,0.0,0.0,0.0,0.0,0.0,0.0,0.0,0.0,0.0,0.0,0.0,0.0,0.0,0.0,0.0,0.0,0.0,0.0,0.0,0.0,0.0,0.0,0.0,3.8707,3.8707,3.8707,3.8707,3.8707,3.8707,3.8707,3.8707,3.8707,3.8707,3.8707,3.8707,3.8892,3.9189,3.9481,3.98,4.012,4.0406,0.0,0.0,0.0,0.0,0.0,0.0,0.0,4.5017,4.5479,4.5594,4.571,4.6144,4.6586,4.7298,4.8971,0.0,5.0596,5.0164,4.9721,0.0,0.0,0.0,0.0,0.0,0.0,0.0,0.0,0.0,0.0,0.0,0.0,0.0,0.0,0.0,0.0,0.0,0.0,0.0,0.0,0.0,0.0,0.0,0.0,0.0,0.0,4.5594,4.5594,4.5594,4.5594,4.5594,4.5594,4.5594,4.5594,4.5594,4.5594,4.5594,4.5594,4.5594,4.5594,4.5729,4.7413,4.8105,4.8279,5.001,5.0712,5.0712,5.0712,5.0712,5.0712,0.0,0.0,0.0,0.0,0.0,0.0,0.0,0.0,0.0,0.0,0.0,0.0,0.0,0.0,0.0,0.0,0.0,0.0,0.0,0.0,0.0,0.0,0.0,0.0,0.0,0.0,0.0,0.0,3.8449,3.8707,3.8707,3.8707,3.8707,3.8707,3.8707,3.8707,3.8707,3.8707,3.8707,3.8707,3.8707,3.8719,3.8833,3.9402,3.9634,3.9757,4.0292,4.0593,4.0835,4.1566,0.0,0.0,0.0,0.0,4.5594,4.5594,4.5594,4.5633,4.5787,4.6451,4.7451,4.8836,4.9721,0.0,4.9336,4.9076,0.0,0.0,0.0,0.0,0.0,0.0,0.0,0.0,0.0,0.0,0.0,0.0,0.0,0.0,0.0,0.0,0.0,0.0,0.0,0.0,0.0,0.0,0.0,0.0,4.5594,4.5594,4.5594,4.5594,4.5594,4.5594,4.5594,4.5594,4.5594,4.5594,4.5594,4.5594,4.5594,4.5594,4.5594,4.5594,4.5729,4.7259,4.7971,4.8259,4.9856,5.0577,5.0712,5.0712,5.0712,5.0712,0.0,0.0,0.0,0.0,0.0,0.0,0.0,0.0,0.0,0.0,3.5538,3.56,0.0,0.0,0.0,0.0,0.0,0.0,0.0,0.0,0.0,0.0,0.0,0.0,0.0,0.0,0.0,0.0,3.8449,3.8707,3.8707,3.8707,3.8707,3.8707,3.8707,3.8707,3.8707,3.8707,3.8707,3.8707,3.8707,3.8844,3.909,3.9469,3.9786,4.0072,4.0389,4.0989,4.1643,4.175,4.2835,0.0,0.0,0.0,4.5594,4.5594,4.5594,4.5768,4.6528,4.7317,4.799,0.0,4.8355,4.8413,0.0,0.0,0.0,0.0,0.0,0.0,0.0,0.0,0.0,0.0,0.0,0.0,0.0,0.0,0.0,0.0,0.0,0.0,0.0,0.0,0.0,0.0,0.0,0.0,0.0,4.5594,4.5594,4.5594,4.5594,4.5594,4.5594,4.5594,4.5594,4.5594,4.5594,4.5594,4.5594,4.5594,4.5594,4.5594,4.5594,4.5594,4.5691,4.6663,4.7471,4.8202,4.9183,5.0029,5.0712,5.0712,5.0712,5.0712,0.0,0.0,0.0,0.0,0.0,0.0,0.0,0.0,0.0,0.0,0.0,3.56,0.0,0.0,0.0,0.0,0.0,0.0,0.0,0.0,0.0,0.0,0.0,0.0,0.0,0.0,0.0,3.7506,3.8015,3.8417,3.8707,3.8707,3.8707,3.8707,3.8707,3.8707,3.8707,3.8707,3.8707,3.8707,3.8707,3.8855,3.9125,3.9264,3.9645,0.0,0.0,0.0,4.1865,4.2354,4.3316,4.4393,4.4874,0.0,0.0,0.0,4.5594,4.5691,4.6067,4.6797,4.744,0.0,4.7843,4.8106,4.7694,0.0,0.0,0.0,0.0,0.0,0.0,0.0,0.0,0.0,0.0,0.0,0.0,0.0,0.0,0.0,0.0,0.0,0.0,0.0,0.0,0.0,0.0,0.0,4.5603,4.5594,4.5594,4.5594,4.5594,4.5594,4.5594,4.5594,4.5594,4.5594,4.5594,4.5594,4.5594,4.5594,4.5594,4.5594,4.5594,4.5594,4.5671,4.6547,4.7375,4.8202,4.9067,4.9933,5.0712,5.0712,5.0712,5.0712,0.0,0.0,0.0,0.0,0.0,0.0,0.0,0.0,0.0,0.0,0.0,0.0,0.0,0.0,0.0,0.0,0.0,0.0,0.0,0.0,0.0,0.0,0.0,0.0,0.0,0.0,3.6803,3.7209,3.7808,3.83,3.8707,3.8707,3.8707,3.8707,3.8707,3.8707,3.8707,3.8707,3.8707,3.8707,3.8707,3.8815,3.9027,3.9165,0.0,0.0,0.0,0.0,0.0,0.0,0.0,0.0,0.0,4.5594,0.0,0.0,0.0,4.5892,4.5701,0.0,4.6888,4.6758,4.7204,4.7545,0.0,0.0,0.0,0.0,0.0,0.0,0.0,0.0,0.0,0.0,0.0,0.0,0.0,0.0,0.0,0.0,0.0,0.0,0.0,0.0,0.0,0.0,0.0,0.0,4.5612,4.5594,4.5594,4.5594,4.5594,4.5594,4.5594,4.5594,4.5594,4.5594,4.5594,4.5594,4.5594,4.5594,4.5594,4.5594,4.5594,4.5594,4.5652,4.6297,4.7182,4.8163,4.8817,4.974,5.0712,5.0712,5.0712,5.0712,0.0,0.0,0.0,0.0,0.0,0.0,0.0,0.0,0.0,0.0,0.0,0.0,0.0,0.0,3.56,3.56,0.0,0.0,0.0,0.0,0.0,0.0,0.0,0.0,0.0,0.0,3.7154,3.7209,3.8168,3.8658,3.8707,3.8707,3.8707,3.8707,3.8707,3.8707,3.8707,3.8707,3.8707,0.0,0.0,0.0,0.0,0.0,0.0,0.0,0.0,0.0,0.0,0.0,0.0,0.0,0.0,0.0,0.0,0.0,0.0,0.0,0.0,4.6376,0.0,4.6129,4.5987,0.0,0.0,0.0,0.0,0.0,0.0,0.0,0.0,0.0,0.0,0.0,0.0,0.0,0.0,0.0,0.0,0.0,0.0,0.0,0.0,0.0,0.0,0.0,0.0,0.0,4.562,4.5594,4.5594,4.5594,4.5594,4.5594,4.5594,4.5594,4.5594,4.5594,4.5594,4.5594,4.5594,4.5594,4.5594,4.5594,4.5594,4.5594,4.5594,4.5652,4.6624,4.8105,4.8144,4.9202,5.0712,5.0712,5.0712,5.0712,0.0,0.0,0.0,0.0,0.0,0.0,0.0,0.0,0.0,0.0,0.0,0.0,0.0,3.56,3.56,3.56,3.56,0.0,0.0,0.0,0.0,0.0,0.0,0.0,0.0,3.6498,3.7001,3.7649,3.8015,3.8366,3.8707,3.8707,3.8707,3.8707,3.8707,3.8707,3.8707,3.8707,0.0,0.0,0.0,0.0,0.0,0.0,0.0,0.0,0.0,0.0,0.0,0.0,0.0,0.0,0.0,0.0,0.0,0.0,0.0,4.6139,0.0,0.0,0.0,4.607,4.6033,4.6045,0.0,0.0,0.0,0.0,0.0,0.0,0.0,0.0,0.0,0.0,0.0,0.0,0.0,0.0,0.0,0.0,0.0,0.0,0.0,0.0,0.0,0.0,0.0,0.0,4.562,4.5594,4.5594,4.5594,4.5594,4.5594,4.5594,4.5594,4.5594,4.5594,4.5594,4.5594,4.5594,4.5594,4.5594,4.5594,4.5594,4.5594,4.5594,4.5594,4.6586,4.8105,4.8105,4.9163,5.0712,5.0712,5.0712,5.0712,0.0,0.0,0.0,0.0,0.0,0.0,0.0,0.0,0.0,0.0,0.0,0.0,0.0,0.0,3.56,3.56,3.56,3.56,3.56,3.56,0.0,0.0,0.0,0.0,0.0,3.6726,3.723,3.7893,3.8082,3.835,3.8707,3.8707,3.8707,3.8707,3.8707,3.8707,3.8707,0.0,0.0,3.8707,0.0,0.0,3.8961,0.0,0.0,0.0,0.0,0.0,0.0,0.0,0.0,0.0,0.0,0.0,0.0,0.0,0.0,0.0,4.5783,0.0,0.0,0.0,4.6122,4.6198,0.0,0.0,0.0,0.0,0.0,0.0,0.0,0.0,0.0,0.0,0.0,0.0,0.0,0.0,0.0,0.0,0.0,0.0,0.0,0.0,0.0,0.0,0.0,0.0,4.562,4.5594,4.5594,4.5594,4.5594,4.5594,4.5594,4.5594,4.5594,4.5594,4.5594,4.5594,4.5594,4.5594,4.5594,4.5594,4.5594,4.5594,4.5594,4.5594,4.6586,4.8105,4.8105,4.9163,5.0712,5.0712,5.0712,5.0712,0.0,0.0,0.0,0.0,0.0,0.0,0.0,0.0,0.0,0.0,0.0,0.0,0.0,0.0,0.0,3.56,3.56,3.56,3.56,3.5622,0.0,0.0,0.0,0.0,0.0,3.7397,3.7893,3.7911,3.843,3.8707,3.8707,3.8707,3.8707,3.8707,3.8707,3.8707,3.8707,0.0,3.8707,3.8707,0.0,3.8707,3.8735,0.0,0.0,0.0,4.1995,4.3056,0.0,0.0,0.0,0.0,0.0,0.0,0.0,0.0,0.0,0.0,0.0,0.0,0.0,0.0,0.0,0.0,4.6308,0.0,0.0,0.0,0.0,0.0,0.0,0.0,0.0,0.0,0.0,0.0,0.0,0.0,0.0,0.0,0.0,0.0,0.0,0.0,0.0,0.0,0.0,4.5803,4.562,4.5594,4.5594,4.5594,4.5594,4.5594,4.5594,4.5594,4.5594,4.5594,4.5594,4.5594,4.5594,4.5594,4.5594,4.5594,4.5594,4.5594,4.5594,4.5594,4.6586,4.8105,4.8105,4.9163,5.0712,5.0712,5.0712,5.0712,0.0,0.0,0.0,0.0,0.0,0.0,0.0,0.0,0.0,0.0,0.0,0.0,0.0,0.0,3.56,3.56,3.56,3.56,3.56,3.5963,3.6182,3.6182,3.6684,0.0,0.0,0.0,0.0,0.0,0.0,0.0,0.0,0.0,0.0,0.0,3.8707,3.8707,3.8707,3.8707,0.0,3.8707,3.8707,3.8707,0.0,0.0,0.0,0.0,0.0,4.1789,4.3068,0.0,4.4882,4.5594,0.0,0.0,0.0,0.0,0.0,0.0,4.579,0.0,0.0,0.0,0.0,0.0,4.6289,4.6308,0.0,0.0,0.0,0.0,0.0,0.0,0.0,0.0,0.0,0.0,0.0,0.0,0.0,0.0,0.0,0.0,0.0,0.0,0.0,0.0,4.5899,4.5803,4.562,4.5594,4.5594,4.5594,4.5594,4.5594,4.5594,4.5594,4.5594,4.5594,4.5594,4.5594,4.5594,4.5594,4.5594,4.5594,4.5594,4.5594,4.5594,4.5594,4.6586,4.8105,4.8105,4.9163,5.0712,5.0712,5.0712,5.0712,0.0,0.0,0.0,0.0,0.0,0.0,0.0,0.0,0.0,0.0,0.0,0.0,0.0,0.0,0.0,3.56,3.5788,3.5941,3.5941,3.6437,3.6724,3.6724,3.7229,3.7614,3.7893,0.0,0.0,0.0,0.0,0.0,0.0,0.0,0.0,0.0,0.0,0.0,0.0,0.0,0.0,0.0,3.8707,0.0,0.0,3.8707,3.9006,0.0,0.0,0.0,4.2834,4.3812,4.4688,0.0,0.0,0.0,0.0,0.0,0.0,0.0,0.0,0.0,0.0,0.0,0.0,0.0,4.6115,4.6174,4.6222,0.0,0.0,0.0,0.0,0.0,0.0,0.0,0.0,0.0,0.0,0.0,0.0,0.0,0.0,0.0,0.0,0.0,0.0,0.0,4.5899,4.5803,4.562,4.5594,4.5594,4.5594,4.5594,4.5594,4.5594,4.5594,4.5594,4.5594,4.5594,4.5594,4.5594,4.5594,4.5594,4.5594,4.5594,4.5594,4.5594,4.5594,4.6586,4.8105,4.8105,4.9163,5.0712,5.0712,5.0712,5.0712,0.0,0.0,0.0,0.0,0.0,0.0,0.0,0.0,0.0,0.0,0.0,0.0,0.0,0.0,0.0,0.0,3.6207,3.6498,3.6498,3.6981,0.0,3.7267,3.772,3.798,3.798,0.0,0.0,0.0,0.0,0.0,0.0,0.0,0.0,0.0,0.0,0.0,0.0,0.0,0.0,3.8707,3.8707,3.8707,0.0,0.0,3.9148,0.0,4.1119,4.2027,4.2855,4.4154,4.4806,0.0,0.0,0.0,0.0,0.0,4.5594,0.0,0.0,0.0,0.0,0.0,0.0,0.0,4.5899,4.5998,4.6108,0.0,0.0,0.0,0.0,0.0,0.0,0.0,0.0,0.0,0.0,0.0,0.0,0.0,0.0,0.0,0.0,0.0,4.6174,4.5916,4.5876,4.5788,4.5612,4.5594,4.5594,4.5594,4.5594,4.5594,4.5594,4.5594,4.5594,4.5594,4.5594,4.5594,4.5594,4.5594,4.5594,4.5594,4.5594,4.5594,4.5594,4.5594,4.6586,4.8105,4.8105,4.9163,5.0712,5.0712,5.0712,5.0712,0.0,0.0,0.0,0.0,0.0,0.0,0.0,0.0,0.0,0.0,0.0,0.0,0.0,0.0,0.0,0.0,3.6981,3.7039,3.7039,3.7506,3.7755,3.7755,3.8267,3.8546,3.8546,3.8643,0.0,0.0,0.0,0.0,0.0,0.0,0.0,0.0,0.0,0.0,0.0,0.0,0.0,3.8707,3.8707,0.0,3.8707,3.8707,3.8799,3.9129,4.0657,4.1474,4.2109,0.0,4.4806,4.5107,0.0,0.0,0.0,0.0,0.0,0.0,0.0,0.0,0.0,0.0,0.0,0.0,4.5896,4.5998,4.6108,0.0,0.0,0.0,0.0,0.0,0.0,0.0,0.0,0.0,0.0,0.0,0.0,0.0,0.0,0.0,0.0,0.0,4.6077,4.5912,4.5738,4.5648,4.5594,4.5594,4.5594,4.5594,4.5594,4.5594,4.5594,4.5594,4.5594,4.5594,4.5594,4.5594,4.5594,4.5594,4.5594,4.5594,4.5594,4.5594,4.5594,4.5594,4.6586,4.8105,4.8105,4.9163,5.0712,5.0712,5.0712,5.0712,0.0,0.0,0.0,0.0,0.0,0.0,0.0,0.0,0.0,0.0,0.0,0.0,0.0,0.0,0.0,0.0,0.0,0.0,0.0,0.0,3.83,3.83,3.8562,3.8707,3.8707,3.8707,3.8707,0.0,0.0,0.0,0.0,0.0,0.0,0.0,0.0,0.0,0.0,0.0,3.8707,3.8707,3.8707,0.0,3.8707,3.8707,3.8707,3.8909,4.0508,4.1717,4.2727,4.3899,4.4414,0.0,0.0,4.5085,4.5342,0.0,4.5476,4.5594,0.0,0.0,0.0,4.5669,0.0,0.0,0.0,4.5845,4.5955,4.5988,0.0,0.0,0.0,0.0,0.0,0.0,0.0,0.0,0.0,0.0,0.0,0.0,0.0,0.0,0.0,0.0,4.5955,4.585,4.5696,4.5594,4.5594,4.5594,4.5594,4.5594,4.5594,4.5594,4.5594,4.5594,4.5594,4.5594,4.5594,4.5594,4.5594,4.5594,4.5594,4.5594,4.5594,4.5594,4.5594,4.5594,4.6586,4.8105,4.8105,4.9163,5.0712,5.0712,5.0712,5.0712,3.7247,0.0,0.0,0.0,0.0,0.0,0.0,0.0,0.0,0.0,0.0,0.0,0.0,0.0,0.0,0.0,0.0,0.0,0.0,0.0,0.0,0.0,3.8707,3.8707,3.8707,3.8707,3.8707,0.0,0.0,0.0,0.0,0.0,0.0,0.0,0.0,0.0,0.0,0.0,0.0,3.8707,0.0,3.8707,3.8707,3.8707,3.8707,3.8909,4.0508,4.2029,4.3327,4.3765,0.0,4.4061,4.4373,4.472,0.0,0.0,0.0,0.0,0.0,0.0,0.0,0.0,0.0,4.5594,0.0,0.0,0.0,4.5862,0.0,0.0,0.0,0.0,0.0,0.0,0.0,0.0,0.0,0.0,0.0,0.0,0.0,0.0,0.0,0.0,4.585,4.5763,4.5657,4.5594,4.5594,4.5594,4.5594,4.5594,4.5594,4.5594,4.5594,4.5594,4.5594,4.5594,4.5594,4.5594,4.5594,4.5594,4.5594,4.5594,4.5594,4.5594,4.5594,4.5594,4.6586,4.8105,4.8105,4.9163,5.0712,5.0712,5.0712,5.0712,3.7377,3.7542,0.0,0.0,0.0,0.0,0.0,0.0,0.0,3.8483,0.0,0.0,0.0,0.0,0.0,0.0,0.0,0.0,3.8611,0.0,0.0,0.0,0.0,0.0,3.8707,3.8707,3.8707,3.8707,0.0,0.0,0.0,0.0,0.0,0.0,3.8707,0.0,0.0,0.0,3.8707,0.0,3.8707,3.8707,0.0,3.8707,3.8707,3.8909,4.0508,4.168,4.256,0.0,4.374,4.4016,0.0,4.4332,0.0,0.0,0.0,0.0,0.0,0.0,0.0,0.0,4.5594,0.0,0.0,0.0,4.5803,4.5803,0.0,0.0,0.0,0.0,0.0,0.0,0.0,0.0,0.0,0.0,0.0,0.0,0.0,0.0,0.0,0.0,0.0,4.5627,4.5612,4.5594,4.5594,4.5594,4.5594,4.5594,4.5594,4.5594,4.5594,4.5594,4.5594,4.5594,4.5594,4.5594,4.5594,4.5594,4.5594,4.5594,4.5594,4.5594,4.5594,4.5594,4.6586,4.8105,4.8105,4.9163,5.0712,5.0712,5.0712,5.0712,3.8152,3.8234,0.0,0.0,0.0,0.0,0.0,0.0,0.0,0.0,0.0,0.0,0.0,0.0,0.0,0.0,0.0,3.8707,0.0,0.0,0.0,0.0,0.0,0.0,0.0,3.8707,3.8707,3.8707,3.8707,0.0,0.0,0.0,0.0,0.0,3.8707,0.0,3.8707,0.0,3.8707,0.0,0.0,0.0,0.0,3.8707,3.9001,3.9478,4.0157,4.1222,4.2359,0.0,4.2897,0.0,0.0,0.0,0.0,0.0,0.0,0.0,0.0,0.0,0.0,0.0,0.0,0.0,0.0,0.0,4.5708,0.0,0.0,0.0,0.0,0.0,0.0,0.0,0.0,0.0,0.0,0.0,0.0,0.0,0.0,0.0,0.0,0.0,0.0,0.0,0.0,4.5594,4.5594,4.5594,4.5594,4.5594,4.5594,4.5594,4.5594,4.5594,4.5594,4.5594,4.5594,4.5594,4.5594,4.5594,4.5594,4.5594,4.5594,4.5594,4.5633,4.6144,4.7048,4.8144,4.8663,4.9606,5.0712,5.0712,5.0712,5.0712,3.8707,0.0,0.0,0.0,0.0,0.0,0.0,0.0,0.0,0.0,0.0,0.0,3.8707,3.8707,0.0,0.0,3.8707,3.8707,0.0,0.0,3.8707,0.0,0.0,0.0,0.0,0.0,0.0,3.8707,0.0,0.0,0.0,0.0,0.0,0.0,0.0,3.8707,3.8707,0.0,3.8707,3.8707,3.8707,3.8707,3.8707,3.8707,3.9056,3.9588,3.9808,4.0653,4.168,4.1901,4.1974,0.0,4.291,0.0,0.0,0.0,0.0,0.0,4.4726,0.0,0.0,0.0,0.0,0.0,0.0,0.0,0.0,0.0,0.0,0.0,0.0,0.0,0.0,0.0,0.0,0.0,0.0,0.0,0.0,0.0,0.0,0.0,0.0,0.0,0.0,0.0,4.5594,0.0,4.5594,4.5594,4.5594,4.5594,4.5594,4.5594,4.5594,4.5594,4.5594,4.5594,4.5594,4.5594,4.5594,4.5594,4.5594,4.5594,4.5594,4.5594,4.5671,4.6547,4.7375,4.8202,4.9067,4.9933,5.0712,5.0712,5.0712,5.0712,3.8707,3.8707,0.0,0.0,0.0,0.0,0.0,0.0,0.0,0.0,0.0,0.0,0.0,0.0,0.0,0.0,0.0,3.8707,3.8707,0.0,3.8707,0.0,0.0,3.8707,0.0,0.0,0.0,0.0,0.0,0.0,0.0,0.0,0.0,0.0,0.0,3.8707,3.8707,3.8707,3.8707,3.8707,3.8707,3.8707,3.8707,0.0,3.8726,3.8836,3.9625,0.0,0.0,4.0891,4.1132,0.0,0.0,0.0,0.0,0.0,0.0,0.0,0.0,0.0,0.0,4.5041,0.0,0.0,0.0,0.0,4.5594,0.0,0.0,0.0,0.0,0.0,0.0,0.0,0.0,0.0,0.0,0.0,0.0,0.0,0.0,0.0,0.0,0.0,0.0,4.5594,4.5594,0.0,4.5594,4.5594,4.5594,4.5594,4.5594,4.5594,4.5594,4.5594,4.5594,4.5594,4.5594,4.5594,4.5594,4.5594,4.5594,4.5594,4.5594,4.5594,4.5671,4.6547,4.7375,4.8202,4.9067,4.9933,5.0712,5.0712,5.0712,5.0712,0.0,0.0,0.0,0.0,0.0,0.0,0.0,3.8707,0.0,0.0,0.0,0.0,0.0,0.0,3.8707,0.0,0.0,3.8707,3.8707,3.8707,0.0,0.0,0.0,3.8707,0.0,0.0,0.0,0.0,0.0,0.0,0.0,0.0,0.0,0.0,0.0,3.8707,0.0,0.0,0.0,0.0,0.0,3.9974,3.9441,0.0,0.0,3.8744,3.9019,3.9441,0.0,4.0212,4.0304,4.0451,4.1242,4.1499,4.1645,4.247,4.3175,0.0,0.0,0.0,4.429,4.467,0.0,0.0,0.0,0.0,0.0,0.0,0.0,0.0,0.0,0.0,0.0,0.0,0.0,0.0,0.0,0.0,0.0,0.0,0.0,0.0,0.0,0.0,0.0,4.5594,4.5594,4.5594,0.0,4.5594,4.5594,4.5594,4.5594,4.5594,4.5594,4.5594,4.5594,4.5594,4.5594,4.5594,4.5594,4.5594,4.5594,4.5594,4.5594,4.5932,4.6528,4.7355,4.8202,4.9048,4.9913,5.0442,5.0712,5.0712,5.0712,5.0712,3.9129,0.0,0.0,0.0,0.0,0.0,0.0,0.0,0.0,0.0,3.9313,0.0,3.9129,0.0,3.8707,0.0,3.8707,3.8817,3.9111,3.8854,0.0,3.9111,3.8854,0.0,0.0,0.0,0.0,0.0,0.0,3.8854,0.0,0.0,0.0,0.0,0.0,3.9536,3.9536,0.0,3.9863,0.0,0.0,4.0799,0.0,0.0,3.9203,3.8707,0.0,3.9038,3.946,3.946,3.946,3.9606,4.0414,4.0671,4.0836,4.1644,4.2433,4.3125,4.3349,4.3614,0.0,0.0,4.4392,0.0,4.4849,0.0,0.0,0.0,0.0,0.0,0.0,0.0,0.0,0.0,0.0,0.0,0.0,4.5594,0.0,0.0,0.0,0.0,0.0,0.0,4.5594,4.5594,4.5594,4.5594,0.0,0.0,4.5594,4.5594,4.5594,4.5594,4.5594,4.5594,4.5594,4.5594,4.5594,4.5594,4.5594,4.5594,4.5594,4.5614,4.5932,4.6374,4.6981,4.8105,4.8894,4.949,5.0366,5.0712,5.0712,5.0712,5.0712,5.0712,0.0,0.0,0.0,0.0,4.0648,0.0,0.0,0.0,4.1095,0.0,4.0432,3.9955,3.9955,3.9276,3.8817,3.8817,3.8817,0.0,3.99,3.9239,0.0,0.0,3.9239,3.8817,3.8817,0.0,0.0,0.0,0.0,0.0,0.0,0.0,0.0,0.0,4.1095,0.0,4.1095,4.1095,4.1113,4.115,4.1187,4.1187,4.115,4.115,0.0,3.8817,3.8781,3.8726,3.8707,3.8707,3.8707,3.8836,3.9588,3.9863,4.0047,4.0836,4.1644,4.2304,4.2304,4.2892,4.358,4.3896,0.0,0.0,0.0,0.0,4.5074,0.0,0.0,0.0,0.0,0.0,0.0,0.0,0.0,0.0,0.0,0.0,0.0,0.0,0.0,0.0,0.0,4.5594,4.5594,4.5594,4.5594,0.0,0.0,0.0,0.0,4.5671,4.5671,4.5691,4.5729,4.5729,4.5729,4.5729,4.5729,4.5729,4.5729,4.5729,4.5729,4.5768,4.6605,4.6981,4.7163,4.874,4.9433,4.9548,5.0385,5.0712,5.0712,5.0712,5.0712,5.0712,4.1163,4.2006,4.2672,0.0,4.1683,4.1095,0.0,0.0,0.0,0.0,4.0912,4.0799,4.0799,4.06,4.0471,4.0471,4.0471,0.0,0.0,0.0,0.0,4.0765,4.0581,4.0471,4.0471,4.0471,0.0,4.0471,0.0,0.0,4.0799,0.0,0.0,0.0,0.0,0.0,4.1095,4.1095,4.1444,4.2047,4.2635,4.2525,0.0,0.0,4.1352,4.0398,3.9808,3.9203,3.8707,3.8707,3.8707,3.8744,3.8946,3.9423,3.9937,4.0139,4.1203,4.2304,4.2304,4.2892,4.3513,4.3614,4.3629,4.3726,0.0,0.0,0.0,0.0,0.0,0.0,0.0,0.0,0.0,0.0,0.0,0.0,0.0,0.0,0.0,0.0,0.0,0.0,0.0,4.5594,4.5594,4.5594,4.5594,0.0,0.0,0.0,0.0,4.6547,4.6567,4.6855,4.7451,4.7451,4.7451,4.7451,4.7451,4.7451,4.7451,4.7451,4.7451,4.7471,4.7702,4.8163,4.8798,4.9221,4.9779,5.0385,5.0616,5.0712,5.0712,5.0712,5.0712,5.0712,4.234,0.0,0.0,4.3869,0.0,0.0,4.2361,0.0,0.0,4.2393,4.2063,0.0,4.1841,4.1409,4.1095,4.1095,4.1095,0.0,0.0,0.0,0.0,4.1625,4.1279,4.1095,4.1095,4.1095,0.0,4.1323,0.0,0.0,4.2058,4.1915,0.0,0.0,0.0,4.222,4.2345,4.2204,4.2415,4.2855,4.3331,0.0,0.0,4.2818,4.2323,4.157,4.1111,4.0212,3.9221,3.9221,3.9001,3.8707,3.8707,3.9019,3.9386,3.9386,4.0506,4.1791,4.1791,4.2616,4.3515,4.3515,4.3515,4.3548,4.3742,4.4209,4.4644,0.0,0.0,0.0,0.0,0.0,0.0,0.0,0.0,0.0,0.0,0.0,0.0,0.0,0.0,0.0,0.0,0.0,4.5594,0.0,0.0,0.0,0.0,0.0,0.0,4.7413,4.7432,4.7644,4.8105,4.8105,4.8105,4.8105,4.8105,4.8105,4.8105,4.8105,4.8105,4.8125,4.8509,4.8952,4.9433,4.9798,5.0269,5.0712,5.0712,5.0712,5.0712,5.0712,5.0712,5.0712,4.3899,0.0,0.0,0.0,0.0,0.0,0.0,4.4351,0.0,4.3971,0.0,4.2951,4.2951,4.2075,4.1487,4.1487,0.0,4.1717,4.2415,4.1809,4.1735,4.2433,4.1791,4.1407,4.1407,4.1407,0.0,0.0,0.0,4.2454,4.346,4.3175,0.0,0.0,0.0,0.0,0.0,4.3677,4.3548,0.0,4.3515,4.3515,4.3515,4.3515,4.3057,4.2451,4.2451,4.1423,4.0065,4.0065,3.9588,3.9019,3.9019,3.9019,3.9019,3.9019,4.0084,4.126,4.126,4.2359,4.3515,4.3515,4.3515,4.3515,4.3515,4.402,4.454,4.458,4.5107,0.0,0.0,0.0,0.0,0.0,0.0,0.0,0.0,0.0,0.0,0.0,0.0,0.0,0.0,0.0,0.0,0.0,0.0,0.0,0.0,0.0,0.0,0.0,4.8279,0.0,4.8432,0.0,4.8432,4.8432,4.8432,4.8432,4.8432,4.8432,4.8432,4.849,4.924,4.9567,4.9625,5.0385,5.0712,5.0712,5.0712,5.0712,5.0712,5.0712,5.0712,5.0712,0.0,0.0,0.0,0.0,0.0,4.5797,4.5534,4.446,4.3662,4.3597,4.3706,4.3793,4.3793,4.362,4.35,4.35,4.3238,0.0,0.0,0.0,0.0,4.3277,4.3149,4.3075,4.3075,4.3075,4.3238,0.0,0.0,4.3849,4.4366,4.4301,4.4408,0.0,0.0,0.0,4.4001,4.394,0.0,4.3515,4.3515,4.3515,4.3515,4.3515,4.3423,4.3277,4.3277,4.2268,4.0875,4.0875,4.0802,4.0673,4.0673,4.0673,4.0673,4.0673,4.135,4.2084,4.2084,4.2782,4.3515,4.3515,4.3515,4.3515,4.3515,4.382,4.419,4.4527,4.4919,4.5263,4.5559,0.0,0.0,0.0,0.0,0.0,0.0,0.0,0.0,0.0,0.0,0.0,0.0,0.0,0.0,0.0,0.0,0.0,0.0,0.0,0.0,0.0,0.0,0.0,0.0,0.0,0.0,5.025,5.025,5.025,5.025,5.025,5.025,5.025,5.0423,5.0481,5.0481,5.0635,5.0712,5.0712,5.0712,5.0712,5.0712,5.0712,5.0712,5.0712,0.0,0.0,0.0,0.0,0.0,0.0,0.0,4.4246,0.0,4.4035,4.4359,4.4574,4.4574,4.4414,4.4304,4.4304,4.4165,4.3974,4.3772,4.3756,4.3677,4.3515,4.3515,0.0,4.3515,4.3515,4.3758,4.4304,0.0,4.4587,4.5118,4.4943,4.4954,4.5088,0.0,4.4392,0.0,0.0,0.0,4.3515,4.3515,4.3515,4.3515,4.3515,4.3515,4.3515,4.3515,4.3002,4.2286,4.1864,4.1444,4.1095,4.1095,4.1095,4.1095,4.1095,4.168,4.2304,4.2304,4.2892,4.3515,4.3515,4.3515,4.3515,4.3515,4.3756,4.4043,4.4247,4.4574,4.4943,4.5292,4.5485,0.0,0.0,0.0,0.0,0.0,0.0,0.0,0.0,0.0,0.0,0.0,0.0,0.0,0.0,0.0,0.0,0.0,0.0,0.0,0.0,0.0,0.0,0.0,0.0,0.0,5.0712,5.0712,5.0712,5.0712,5.0712,5.0712,5.0712,5.0712,5.0712,5.0712,5.0712,5.0712,5.0712,5.0712,5.0712,5.0712,5.0712,5.0712,5.0712,0.0,4.8644,0.0,0.0,4.6654,0.0,4.4904,4.4453,4.429,4.446,4.4849,4.5096,4.5096,4.4861,4.4714,4.4714,4.4631,4.4474,4.4146,4.4117,4.4001,4.3761,4.3646,4.3614,4.3614,4.3531,4.3823,0.0,0.0,4.4908,4.5495,4.5302,4.5312,0.0,0.0,0.0,0.0,0.0,4.3582,4.3515,4.3515,4.3515,4.3515,4.3515,4.3515,4.3515,4.3515,4.3515,4.3387,4.2763,4.2139,4.1625,4.1625,4.1625,4.1625,4.1625,4.2066,4.2561,4.2561,4.302,4.3515,4.3515,4.3515,4.3515,4.3515,4.371,4.3943,4.4106,4.4495,4.4877,4.5169,4.5419,0.0,0.0,0.0,0.0,0.0,0.0,0.0,0.0,0.0,0.0,0.0,0.0,0.0,0.0,0.0,0.0,0.0,0.0,0.0,0.0,0.0,0.0,5.0712,0.0,5.0712,0.0,5.0712,5.0712,5.0712,5.0712,5.0712,5.0712,5.0712,5.0712,5.0712,5.0712,5.0712,5.0712,5.0712,5.0712,5.0712,5.0712,5.0712,5.0712,0.0,0.0,0.0,0.0,0.0,0.0,0.0,4.5982,4.4762,4.4132,4.4663,4.5096,4.5096,4.5074,4.5052,4.5052,4.4788,4.458,4.454,4.454,4.4527,4.4501,4.415,4.3955,4.3955,4.3662,4.3677,0.0,0.0,4.48,4.514,4.5429,4.541,0.0,0.0,0.0,0.0,4.3971,4.3772,4.3515,4.3515,4.3515,4.3515,4.3515,4.3515,4.3515,4.3515,4.3515,4.3496,4.3423,4.3332,4.3277,4.3277,4.3277,4.3277,4.3277,4.3331,4.3404,4.3404,4.3441,4.3515,4.3515,4.3515,4.3515,4.3515,4.3513,4.3744,4.4406,4.5055,4.5513,4.5559,4.5577,4.5594,0.0,0.0,0.0,0.0,0.0,0.0,0.0,0.0,0.0,0.0,4.7509,0.0,0.0,0.0,0.0,0.0,0.0,0.0,5.0712,0.0,5.0712,5.0712,5.0712,0.0,5.0712,5.0712,5.0712,5.0712,5.0712,5.0712,5.0712,5.0712,5.0712,5.0712,5.0712,5.0712,5.0712,5.0712,5.0712,5.0712,5.0712,5.0712,5.0712,0.0,0.0,0.0,0.0,0.0,0.0,0.0,4.6119,4.5533,4.4758,4.5088,4.54,4.54,4.54,4.54,4.54,4.5273,4.5118,4.4908,4.4896,4.4812,4.4624,4.4447,4.4346,4.4346,4.3986,4.4073,0.0,0.0,0.0,0.0,4.5332,0.0,0.0,0.0,4.429,4.3986,4.3788,4.3742,4.3772,4.358,4.3612,4.3772,4.358,4.3515,4.3515,4.3515,4.3515,4.3515,4.3515,4.3515,4.3515,4.3515,4.3515,4.3515,4.3515,4.3515,4.3515,4.3515,4.3515,4.3515,4.3515,4.3646,4.3804,4.3804,4.3989,4.4237,4.4527,4.4966,4.5302,4.5302,4.5457,4.5594,0.0,0.0,0.0,0.0,0.0,0.0,0.0,0.0,0.0,0.0,0.0,4.9029,0.0,0.0,0.0,0.0,0.0,0.0,5.0712,0.0,5.0712,5.0712,5.0712,5.0712,5.0712,5.0712,5.0712,5.0712,5.0712,5.0712,5.0712,5.0712,5.0712,5.0712,5.0712,5.0712,5.0712,5.0712,5.0712,5.0712,5.0712,5.0712,5.0712,5.0614,0.0,5.0422,0.0,4.9223,4.8476,4.6749,4.6481,4.6179,4.5357,4.5448,4.5594,4.5594,4.5594,4.5594,4.5594,4.5594,4.5504,4.5253,4.5243,4.514,4.4889,4.4793,0.0,4.4751,4.4373,4.4428,4.4943,4.4806,0.0,0.0,0.0,0.0,0.0,4.4136,4.4001,4.3967,4.3758,4.3852,4.4165,4.3931,4.3958,4.4146,4.3915,4.3823,4.3823,4.3823,4.3823,4.3823,4.3823,4.3823,4.3775,4.3582,4.3515,4.3515,4.3515,4.3515,4.3515,4.3515,4.3563,4.3646,4.3646,4.3912,4.4175,4.4175,4.4406,4.4618,4.4739,4.5011,4.5243,4.5243,4.5438,4.5594,0.0,0.0,0.0,0.0,0.0,0.0,0.0,0.0,4.7586,4.8394,0.0,0.0,0.0,0.0,0.0,0.0,0.0,0.0,0.0,0.0,0.0,0.0,5.0712,5.0712,5.0712,5.0712,5.0712,5.0712,5.0712,5.0712,5.0712,5.0712,5.0712,5.0712,5.0712,5.0712,5.0712,5.0712,5.0712,5.0712,5.0712,5.0712,5.0712,5.0614,5.0712,5.0712,5.0683,4.9971,4.9106,4.8212,4.7404,4.6577,4.5701,4.5594,4.5594,4.5594,4.5594,4.5594,4.5594,4.5594,4.5594,4.5586,4.5586,4.5586,0.0,0.0,4.5096,4.5096,4.4757,4.4612,4.4612,0.0,0.0,4.5096,0.0,4.4701,4.4016,4.3998,4.4001,4.4001,4.4001,4.4237,4.458,4.458,4.458,4.458,4.458,4.4599,4.4599,4.4599,4.4599,4.4599,4.4599,4.4599,4.446,4.3728,4.3515,4.3515,4.3515,4.3515,4.3515,4.3515,4.3742,4.3982,4.3982,4.4308,4.4593,4.4593,4.4612,4.4682,4.503,4.5352,4.5586,4.5586,4.5594,4.5594,4.5594,0.0,0.0,0.0,0.0,0.0,0.0,4.7605,4.8432,4.9298,0.0,0.0,0.0,0.0,0.0,0.0,0.0,0.0,5.0712,5.0712,0.0,5.0712,5.0712,5.0712,5.0712,5.0712,5.0712,5.0712,5.0712,5.0712,5.0712,5.0712,5.0712,5.0712,5.0712,5.0712,5.0712,5.0712,5.0712,5.0712,5.0712,5.0712,5.0712,5.0614,5.0712,5.0712,5.0712,5.0481,4.9779,4.8317,4.7875,4.7201,4.5787,4.5594,4.5594,4.5594,4.5594,4.5594,0.0,4.5594,4.5594,0.0,4.5594,4.5594,4.5594,4.5495,4.5438,4.5438,4.5107,4.5044,4.5273,0.0,0.0,0.0,4.5927,4.567,4.519,4.4645,4.4419,4.4419,4.4419,4.46,4.4919,4.4682,4.4751,4.4919,4.4701,4.4593,4.4593,4.4593,4.4593,4.4593,4.4593,4.4593,4.4553,4.4323,4.4237,4.4237,4.4237,4.4237,4.4237,4.4237,4.4323,4.4419,4.4419,4.4682,4.4943,4.4943,4.5118,4.5303,4.5419,4.5541,4.5594,4.5594,4.5594,4.5594,4.5594,0.0,0.0,0.0,0.0,0.0,0.0,0.0,4.9336,0.0,5.0289,0.0,0.0,0.0,0.0,0.0,0.0,0.0,0.0,5.0712,0.0,5.0712,5.0712,5.0712,5.0712,5.0712,5.0712,5.0712,5.0712,5.0712,5.0712,5.0712,5.0712,5.0712,5.0712,5.0712,5.0712,5.0712,5.0712,5.0712,5.0712,5.0712,5.0712,5.0614,5.0712,5.0712,5.0712,5.0712,5.0221,4.8798,4.8317,4.7625,4.6259,4.5806,4.5594,4.5594,4.5594,0.0,4.5594,4.5594,4.5594,4.5594,4.5594,4.5594,4.5594,4.5594,4.5594,4.5594,0.0,0.0,4.6086,4.6186,4.6418,4.6797,4.6797,4.6616,4.6248,4.5417,4.5123,4.5217,4.4914,4.4977,4.5263,4.5063,4.5107,4.5263,4.5063,4.4977,4.4977,4.4977,4.4977,4.4977,4.4977,4.4977,4.4977,4.4977,4.4977,4.4931,4.467,4.4593,4.4593,4.4593,4.4682,4.48,4.48,4.5052,4.5292,4.5292,4.5448,4.5594,4.5594,4.5594,4.5594,4.5594,4.5883,4.6086,4.6086,0.0,0.0,0.0,0.0,0.0,0.0,0.0,0.0,0.0,5.0712,0.0,0.0,0.0,0.0,0.0,0.0,0.0,5.0712,5.0712,0.0,5.0712,5.0712,5.0712,5.0712,5.0712,5.0712,5.0712,5.0712,5.0712,5.0712,5.0712,5.0712,5.0712,5.0712,5.0712,5.0712,5.0712,5.0712,5.0712,5.0712,5.0712,5.0712,5.0624,5.0712,0.0,0.0,5.0712,0.0,4.9529,4.8702,4.7875,4.7,4.6182,4.5671,4.5614,4.5594,4.5594,4.5594,0.0,0.0,0.0,4.5594,4.5594,4.5594,4.5594,0.0,4.5691,4.649,4.6923,4.6981,4.7798,4.8029,4.7708,4.7708,4.7569,4.721,4.6346,4.6132,4.6361,4.5568,4.5408,4.5691,4.5614,4.5594,4.5594,4.5594,4.5594,4.5594,4.5594,4.5594,4.5594,4.5594,4.5594,4.5594,4.5594,4.5594,4.5485,4.4842,4.467,4.467,4.467,4.4896,4.5129,4.5129,4.5362,4.5594,4.5594,4.5594,4.5594,4.5594,4.5652,4.5691,4.5691,4.6394,4.6981,4.6981,4.7663,4.8202,4.8202,0.0,0.0,0.0,0.0,0.0,0.0,5.0712,5.0712,0.0,0.0,0.0,0.0,0.0,5.0712,5.0712,5.0712,5.0712,5.0712,5.0712,5.0712,5.0712,5.0712,5.0712,5.0712,5.0712,5.0712,5.0712,5.0712,5.0712,5.0712,5.0712,5.0712,5.0712,5.0712,5.0712,5.0712,5.0712,5.0712,5.0712,0.0,0.0,5.0712,5.0712,5.0712,5.0423,4.9529,4.9221,4.8567,4.7077,4.6721,4.6336,4.5671,4.5594,4.5594,4.5594,4.5594,4.5594,4.5594,4.5594,4.5594,4.5594,4.5594,4.5913,4.6586,4.6797,4.7192,4.7817,4.8663,4.9058,4.8971,4.8971,4.8931,4.8822,4.7949,4.7596,4.7617,4.682,4.6512,4.6528,4.5883,4.5594,4.5594,4.5594,4.5594,4.5594,4.5594,4.5594,4.5594,4.5594,4.5594,4.5594,4.5594,4.5594,4.5568,4.5419,4.5362,4.5362,4.5362,4.5419,4.5485,4.5485,4.5531,4.5594,4.5594,4.5594,4.5594,4.5594,4.6124,4.6586,4.6586,4.7259,4.7817,4.7817,4.8529,4.9086,4.9086,0.0,0.0,0.0,5.0577,5.0712,5.0712,5.0712,5.0712,0.0,0.0,0.0,0.0,0.0,5.0712,5.0712,5.0712,5.0712,5.0712,5.0712,5.0712,5.0712,5.0712,5.0712,5.0712,5.0712,5.0712,5.0712,5.0712,5.0712,5.0712,5.0712,5.0712,5.0712,5.0712,5.0712,5.0712,5.0712,5.0712,5.0712,5.0712,5.0712,5.0712,5.0712,5.0712,5.0539,5.0067,4.9663,4.9067,4.8163,4.7375,4.6721,4.624,4.5845,4.5594,4.5594,4.5594,4.5594,4.5594,4.5594,4.5787,4.6182,4.6182,4.6586,4.7432,4.7836,4.8452,4.9298,4.976,4.999,4.999,4.999,4.999,4.9952,4.9086,4.8682,4.8644,4.7798,4.7451,4.7375,4.6528,4.6182,4.6144,4.5748,4.5594,4.5594,4.5594,4.5594,4.5594,4.5594,4.5594,4.5594,4.5594,4.5594,4.5594,4.5594,4.5594,4.5594,4.5594,4.5594,4.5594,4.5594,4.5594,4.5594,4.5594,4.5913,4.6182,4.6182,4.6855,4.7451,4.7451,4.8125,4.8682,4.8682,4.9433,4.999,4.999,5.0404,0.0,5.0712,5.0712,5.0712,5.0712,5.0712,5.0712,5.0712,0.0,0.0,5.0712,5.0712,5.0712,5.0712,5.0712,5.0712,5.0712,5.0712,5.0712,5.0712,5.0712,5.0712,5.0712,5.0712,5.0712,5.0712,5.0712,5.0712,5.0712,5.0712,5.0712,5.0712,5.0712,5.0712,5.0712,5.0712,5.0712,5.0712,5.0712,5.0712,5.0712,5.0712,5.0712,5.0712,5.0712,5.0067,4.9548,4.9413,4.8163,4.724,4.7096,4.6413,4.5979,4.5979,4.5979,4.5941,4.5806,4.5806,4.6182,4.7038,4.7077,4.7471,4.8279,4.9144,4.9952,5.0712,5.0712,5.0712,5.0712,5.0712,5.0712,5.0673,4.9933,4.9606,4.9529,4.8663,4.8298,4.824,4.7413,4.7077,4.7009,4.6259,4.5902,4.5806,4.5806,4.571,4.5594,4.5594,4.5594,4.5594,4.5594,4.5594,4.5594,4.5594,4.5691,4.5768,4.5633,4.5594,4.5594,4.5594,4.571,4.5806,4.5806,4.6451,4.7077,4.7077,4.774,4.8298,4.8298,4.9009,4.9606,4.9606,5.0231,5.0712,5.0712,0.0,5.0712,5.0712,5.0712,5.0712,5.0712,5.0712,5.0712,5.0712,5.0712,0.0,0.0,5.0712,5.0712,5.0712,5.0712,5.0712,5.0712,5.0712,5.0712,5.0712,5.0712,5.0712,5.0712,5.0712,5.0712,5.0712,5.0712,5.0712,5.0712,5.0712,5.0712,5.0712,5.0712,5.0712,5.0712,5.0712,5.0712,5.0712,5.0712,5.0712,5.0712,5.0712,5.0712,5.0712,5.0712,5.0596,5.0231,4.949,4.9163,4.8721,4.799,4.7798,4.7721,4.7721,4.7721,4.7413,4.674,4.6701,4.7067,4.7875,4.7913,4.8317,4.9183,5.0048,5.0558,5.0712,5.0712,5.0712,5.0712,5.0712,5.0712,5.0693,5.0558,5.05,5.0442,4.9567,4.9202,4.9125,4.8259,4.7913,4.7894,4.7759,4.7298,4.6701,4.6701,4.622,4.5594,4.5594,4.5594,4.5594,4.5594,4.5594,4.5594,4.5594,4.6124,4.6547,4.5806,4.5594,4.5594,4.5594,4.6144,4.6701,4.6701,4.7336,4.7913,4.7913,4.8606,4.9202,4.9202,4.9913,5.05,5.05,5.0616,5.0712,0.0,0.0,5.0712,5.0712,5.0712,5.0712,5.0712,5.0712,5.0712,5.0712,5.0712,5.0712,5.0712,5.0712,5.0712,5.0712,5.0712,5.0712,5.0712,5.0712,5.0712,5.0712,5.0712,5.0712,5.0712,5.0712,5.0712,5.0712,5.0712,5.0712,5.0712,5.0712,5.0712,5.0712,5.0712,5.0712,5.0712,5.0712,5.0712,5.0712,5.0663,5.0712,5.0712,5.0712,5.0712,5.0712,5.0712,5.0712,5.0558,5.0144,4.9683,4.924,4.8836,4.8375,4.8105,4.8105,4.8105,4.8144,4.824,4.7817,4.7932,4.8759,4.8798,4.9202,5.0067,5.05,5.0712,5.0712,5.0712,5.0712,5.0712,5.0712,5.0712,5.0712,5.0712,5.0712,5.0673,5.0269,5.0087,5.001,4.9144,4.8798,4.8759,4.8279,4.7875,4.7548,4.7548,4.7298,4.6951,4.6951,4.6951,4.6951,4.6951,4.6951,4.6951,4.6951,4.6913,4.6913,4.6932,4.6951,4.6951,4.6951,4.7259,4.7548,4.7548,4.8202,4.8798,4.8798,4.949,5.0087,5.0087,5.0442,5.0712,5.0712,5.0712,0.0,0.0,5.0712,5.0712,5.0712,5.0712,5.0856,5.1298,5.1356,5.1548,5.201,5.2049,5.2049,5.2049,5.2049,5.2049,5.2049,5.1164,5.0712,5.0712,5.0712,5.0712,5.0712,5.0712,5.0712,5.0712,5.0712,5.0712,5.0712,5.0712,5.0712,5.0712,5.0712,5.0712,5.0712,5.0712,5.0712,5.0712,5.0712,5.0712,5.0712,5.0614,5.0712,5.0712,5.0712,5.0712,5.0712,5.0712,5.0712,5.0712,5.0712,5.0106,4.9702,4.9702,4.9106,4.8702,4.8702,4.8702,4.899,4.9663,4.9086,4.899,4.9663,4.9702,5.001,5.0693,5.0712,5.0712,5.0712,5.0712,5.0712,5.0712,5.0712,5.0712,5.0712,5.0712,5.0712,5.0712,5.0712,5.0712,5.0635,4.9971,4.9702,4.9625,4.8952,4.8586,4.8394,4.8394,4.8279,4.8105,4.8105,4.8105,4.8105,4.8105,4.8105,4.8105,4.8105,4.7817,4.7567,4.799,4.8105,4.8105,4.8105,4.8259,4.8394,4.8394,4.9086,4.9702,4.9702,5.0231,5.0712,5.0712,5.0712,5.0712,5.0712,0.0,0.0,0.0,5.0856,5.0971,5.0971,5.1164,5.151,5.2135,5.2192,5.2481,5.3145,5.3203,5.3203,5.3203,5.3203,5.3203,5.3203,5.176,5.0894,5.0712,5.0712,5.0712,5.0712,5.0712,5.0712,5.0712,5.0712,5.0712,5.0712,5.0712,5.0712,5.0712,5.0712,5.0712,5.0712,5.0712,5.0712,5.0712,5.0712,5.0712,5.0712,5.0614,5.0712,5.0712,5.0712,5.0712,5.0712,5.0712,5.0712,5.0712,5.0712,5.0635,5.0596,5.0596,5.0558,5.0519,5.0519,5.0519,5.0539,5.0596,5.0539,5.0539,5.0596,5.0596,5.0635,5.0712,5.0712,5.0712,5.0712,5.0712,5.0712,5.0712,5.0712,5.0712,5.0712,5.0712,5.0712,5.0712,5.0712,5.0712,5.0693,5.0635,5.0596,5.0596,5.0539,5.001,4.9298,4.9298,4.8798,4.8105,4.8105,4.8105,4.8105,4.8105,4.8105,4.8105,4.8105,4.8625,4.9048,4.8298,4.8105,4.8105,4.8105,4.8702,4.9298,4.9298,4.9971,5.0596,5.0596,5.0654,5.0712,5.0712,5.0712,5.0712,5.0712,0.0,0.0,5.0712,5.1337,5.1808,5.1808,5.2529,5.3049,5.3106,5.3106,5.3126,5.3203,5.3203,5.3203,5.3203,5.3203,5.3203,5.3203,5.2288,5.1452,5.0712,5.0712,5.0712,5.0712,5.0712,5.0712,5.0712,5.0712,5.0712,5.0712,5.0712,5.0712,5.0712,5.0712,5.0712,5.0712,5.0712,5.0712,5.0712,5.0712,5.0712,5.0712,4.9885,4.9949,5.0043,5.0283,5.0336,5.041,5.0663,5.0712,5.0712,5.0712,5.0712,5.0712,5.0712,5.0712,5.0712,5.0712,5.0712,5.0712,5.0712,5.0712,5.0712,5.0712,5.0712,5.0712,5.0712,5.0712,5.0712,5.0712,5.0712,5.0712,5.0712,5.0712,5.0712,5.0712,5.0712,5.0712,5.0712,5.0712,5.0712,5.0712,5.0712,5.0712,5.0712,5.0712,5.05,5.0212,5.0212,4.999,4.9702,4.9702,4.9702,4.9702,4.9702,4.9702,4.9702,4.9702,4.9952,5.0125,4.9798,4.9702,4.9702,4.9702,4.9952,5.0212,5.0212,5.0462,5.0712,5.0712,5.0712,5.0712,5.0712,5.0712,5.0856,5.1356,0.0,5.1625,5.2164,5.251,5.2712,5.2712,5.301,5.3414,5.3953,5.401,5.4203,5.4703,5.4741,5.4741,5.4741,5.4741,5.4511,5.403,5.3683,5.2856,5.1471,5.1433,5.1183,5.0712,5.0712,5.0712,5.0712,5.0712,5.0712,5.0712,5.0712,5.0712,5.0712,5.0712,5.0712,5.0712,5.0712,5.0712,5.0712,5.0712,5.0712,5.077,4.9416,4.9489,4.9594,4.9853,4.9911,4.9999,5.0272,5.0325,5.0325,5.0325,5.0325,5.0358,5.0493,5.0504,5.0554,5.0683,5.0712,5.0712,5.0712,5.0712,5.0712,5.0712,5.0712,5.0712,5.0712,5.0712,5.0712,5.0712,5.0712,5.0712,5.0712,5.0712,5.0712,5.0712,5.0712,5.0712,5.0712,5.0712,5.0712,5.0712,5.0712,5.0712,5.0712,5.0712,5.0712,5.0712,5.0712,5.0712,5.0712,5.0712,5.0712,5.0712,5.0712,5.0712,5.0712,5.0712,5.0712,5.0712,5.0712,5.0712,5.0712,5.0712,5.0712,5.0712,5.0712,5.0712,5.0712,5.0712,5.0894,5.1087,5.1087,5.1298,5.1664,5.2212,5.2308,5.2519,5.3126,5.3433,5.3606,5.3606,5.3837,5.4222,5.4818,5.4876,5.5107,5.5665,5.5703,5.5703,5.5703,5.5703,5.5453,5.4895,5.4876,5.4184,5.2731,5.2173,5.1625,5.1068,5.0827,5.0712,5.0712,5.0712,5.0712,5.0712,5.0712,5.0712,5.0712,5.0712,5.0712,5.0712,5.0712,5.0712,5.0712,5.0712,5.0856,5.1164,4.9416,4.9489,4.9489,4.9489,4.9508,4.9489,4.9489,4.9504,4.9504,4.9504,4.9504,4.9664,5.0068,5.0092,5.026,5.0663,5.0712,5.0712,5.0712,5.0712,5.0712,5.0712,5.0712,5.0712,5.0712,5.0712,5.0712,5.0712,5.0712,5.0712,5.0712,5.0712,5.0712,5.0712,5.0712,5.0712,5.0712,5.0712,5.0712,5.0712,5.0712,5.0712,5.0712,5.0712,5.0712,5.0712,5.0712,5.0712,5.0712,5.0712,5.0712,5.0712,5.0712,5.0712,5.0712,5.0712,5.0712,5.0712,5.0712,5.0712,5.0712,5.0712,5.0712,5.0712,5.0712,5.0712,5.0712,5.0712,5.1356,5.1904,5.1904,5.2615,5.3203,5.3222,5.3222,5.3222,5.3222,5.3953,5.4511,5.4511,5.5203,5.5703,5.5703,5.5703,5.5703,5.5703,5.5703,5.5703,5.5703,5.5703,5.5703,5.5703,5.5703,5.5318,5.4511,5.2799,5.1904,5.1885,5.1087,5.0712,5.0712,5.0712,5.0712,5.0712,5.0712,5.0712,5.0712,5.0712,5.0712,5.0712,5.0712,5.0712,5.0712,5.0712,5.1202,5.1904,4.864,4.8658,4.8745,4.9027,4.9075,4.9171,4.946,4.9746,4.9924,4.9924,5.0171,5.0399,5.0504,5.0514,5.0565,5.0683,5.0712,5.0712,5.0712,5.0712,5.0712,5.0712,5.0712,5.0712,5.0712,5.0712,5.0712,5.0712,5.0712,5.0712,5.0712,5.0712,5.0712,5.0712,5.0712,5.0712,5.0712,5.0712,5.0712,5.0712,5.0712,5.0712,5.0712,5.0712,5.0712,5.0712,5.0712,5.0712,5.0712,5.0712,5.0712,5.0712,5.0712,5.0712,5.0712,5.0712,5.0712,5.0712,5.0712,5.0712,5.0712,5.0712,5.0712,5.0712,5.0712,5.1144,5.1548,5.1548,5.2222,5.2818,5.2818,5.3029,5.3395,5.401,5.4107,5.4318,5.4876,5.5184,5.5338,5.5338,5.5549,5.5703,5.5703,5.5703,5.5703,5.5703,5.5703,5.5703,5.5703,5.5703,5.5703,5.5703,5.5703,5.5568,5.5338,5.426,5.3106,5.1904,5.1654,5.1241,5.0712,5.0712,5.0712,5.0712,5.0712,5.0712,5.0712,5.0712,5.0712,5.0712,5.0712,5.0712,5.0712,5.0712,5.1202,5.1981,4.8513,4.855,4.8604,4.8846,4.8897,4.893,4.9013,4.9371,4.9631,4.9631,4.9974,5.0302,5.0462,5.0325,5.0283,5.0462,5.0472,5.0472,5.0472,5.0614,5.0712,5.0712,5.0712,5.0712,5.0712,5.0712,5.0712,5.0712,5.0712,5.0712,5.0712,5.0712,5.0712,5.0712,5.0712,5.0712,5.0712,5.0712,5.0712,5.0712,5.0712,5.0712,5.0712,5.0712,5.0712,5.0712,5.0712,5.0712,5.0712,5.0712,5.0712,5.0712,5.0712,5.0712,5.0712,5.0712,5.0712,5.077,5.1087,5.1164,5.126,5.1606,5.1433,5.126,5.1606,5.2068,5.2404,5.2404,5.3106,5.3703,5.3703,5.3972,5.4357,5.4895,5.4972,5.5145,5.5626,5.5703,5.5703,5.5703,5.5703,5.5703,5.5703,5.5703,5.5703,5.5703,5.5703,5.5703,5.5703,5.5703,5.5703,5.5703,5.5703,5.5703,5.5703,5.5222,5.4299,5.2933,5.2231,5.1664,5.1164,5.0846,5.0712,5.0712,5.0712,5.0712,5.0712,5.0712,5.0712,5.0712,5.0712,5.0712,5.075,5.1048,5.1702,5.2538,4.883,4.8863,4.8863,4.8947,4.893,4.8796,4.8458,4.8728,4.898,4.8994,4.9295,4.9678,5.0123,4.976,4.9678,5.0123,5.0116,5.0092,5.0092,5.0432,5.0663,5.0712,5.0712,5.0712,5.0712,5.0712,5.0712,5.0712,5.0712,5.0712,5.0712,5.0712,5.0712,5.0712,5.0712,5.0712,5.0712,5.0712,5.0712,5.0712,5.0712,5.0712,5.0712,5.0712,5.0712,5.0712,5.0712,5.0712,5.0712,5.0712,5.0712,5.0712,5.0712,5.075,5.0808,5.0808,5.0866,5.1068,5.1808,5.2019,5.2231,5.3106,5.2712,5.2308,5.3049,5.326,5.3318,5.3318,5.3991,5.4607,5.4607,5.5203,5.5703,5.5703,5.5703,5.5703,5.5703,5.5703,5.5703,5.5703,5.5703,5.5703,5.5703,5.5703,5.5703,5.5703,5.5703,5.5703,5.5703,5.5703,5.5703,5.5703,5.5703,5.5703,5.5703,5.5703,5.5299,5.4472,5.2895,5.2038,5.1885,5.1144,5.077,5.0712,5.0712,5.0712,5.0712,5.0712,5.0712,5.0712,5.0712,5.075,5.0894,5.1625,5.25,5.3433,4.883,4.8639,4.864,4.9265,4.9108,4.898,4.9202,4.9311,4.9489,4.98,4.9631,4.9773,5.0493,4.9936,4.9787,5.0504,5.0272,5.0092,5.0092,5.0183,5.0358,5.0683,5.0712,5.0712,5.0712,5.0712,5.0712,5.0712,5.0712,5.0712,5.0712,5.0712,5.0712,5.0712,5.0712,5.0712,5.0712,5.0712,5.0712,5.0712,5.0712,5.0712,5.0712,5.0712,5.0712,5.0712,5.0712,5.0712,5.0712,5.0712,5.0712,5.0712,5.0712,5.1125,5.1635,5.1635,5.2125,5.2702,5.2876,5.2933,5.3126,5.3991,5.4087,5.3818,5.3318,5.3722,5.4222,5.4222,5.4876,5.5434,5.5434,5.5568,5.5703,5.5703,5.5703,5.5703,5.5703,5.5703,5.5703,5.5703,5.5703,5.5703,5.5703,5.5703,5.5703,5.5703,5.5703,5.5703,5.5703,5.5703,5.5703,5.5703,5.5703,5.5703,5.5703,5.5703,5.5299,5.4491,5.4126,5.3222,5.1885,5.1712,5.1298,5.0712,5.0712,5.0712,5.0712,5.0712,5.0712,5.0712,5.0712,5.1087,5.1654,5.1846,5.2876,5.4337,4.883,4.8727,4.8779,4.9386,4.9171,4.9046,4.9431,4.9341,4.9356,4.976,4.9617,4.9664,5.008,4.9575,4.9311,4.9547,4.97,4.9813,4.9813,5.0171,5.0483,5.0683,5.0712,5.0712,5.0712,5.0712,5.0712,5.0712,5.0712,5.0712,5.0712,5.0712,5.0712,5.0712,5.0712,5.0712,5.0712,5.0712,5.0712,5.0712,5.0712,5.0712,5.0712,5.0712,5.0712,5.0712,5.0712,5.0712,5.077,5.1144,5.1279,5.1356,5.176,5.2183,5.2519,5.2519,5.2837,5.3299,5.3703,5.3818,5.403,5.4857,5.5068,5.4953,5.4491,5.4741,5.5068,5.5068,5.5415,5.5703,5.5703,5.5703,5.5703,5.5703,5.5703,5.5703,5.5703,5.5703,5.5703,5.5703,5.5703,5.5703,5.5703,5.5703,5.5703,5.5703,5.5703,5.5703,5.5703,5.5703,5.5703,5.5703,5.5703,5.5703,5.5703,5.5703,5.5491,5.5068,5.4684,5.403,5.3106,5.2269,5.1673,5.1241,5.0856,5.0712,5.0712,5.0712,5.0712,5.075,5.1125,5.1529,5.2,5.2837,5.3953,5.5126,4.883,4.8846,4.8947,4.9416,4.9171,4.9059,4.9532,4.9202,4.9059,4.9532,4.9416,4.9341,4.9475,4.9202,4.8813,4.8326,4.8963,4.9431,4.9508,5.0116,5.0554,5.0683,5.0712,5.0712,5.0712,5.0712,5.0712,5.0712,5.0712,5.0712,5.0712,5.0712,5.0712,5.0712,5.0712,5.0712,5.0712,5.0712,5.0712,5.0712,5.0712,5.0712,5.0712,5.0712,5.0712,5.0731,5.0866,5.0991,5.1221,5.1914,5.2115,5.225,5.2972,5.3299,5.3414,5.3414,5.353,5.378,5.4511,5.4703,5.4876,5.553,5.5703,5.5703,5.5703,5.5703,5.5703,5.5703,5.5703,5.5703,5.5703,5.5703,5.5703,5.5703,5.5703,5.5703,5.5703,5.5703,5.5703,5.5703,5.5703,5.5703,5.5703,5.5703,5.5703,5.5703,5.5703,5.5703,5.5703,5.5703,5.5703,5.5703,5.5703,5.5703,5.5703,5.5703,5.5703,5.5684,5.5011,5.4626,5.4453,5.301,5.2173,5.1865,5.1183,5.0827,5.0712,5.0712,5.0789,5.0971,5.1635,5.2077,5.2538,5.4126,5.5126,5.5703,4.883,4.8622,4.8622,4.9371,4.9171,4.9155,4.9892,4.9367,4.9171,4.9924,4.9108,4.8728,4.9416,4.9445,4.9126,4.8364,4.8728,4.9123,4.9475,4.9589,4.9962,5.0673,5.0712,5.0712,5.0712,5.0712,5.0712,5.0712,5.0712,5.0712,5.0712,5.0712,5.0712,5.0712,5.0712,5.0712,5.0712,5.0712,5.0712,5.0712,5.0712,5.0712,5.0712,5.0712,5.0712,5.0789,5.1491,5.2222,5.2876,5.2991,5.3029,5.3049,5.3164,5.3722,5.4318,5.4318,5.4818,5.5395,5.5511,5.553,5.5549,5.5665,5.5703,5.5703,5.5703,5.5703,5.5703,5.5703,5.5703,5.5703,5.5703,5.5703,5.5703,5.5703,5.5703,5.5703,5.5703,5.5703,5.5703,5.5703,5.5703,5.5703,5.5703,5.5703,5.5703,5.5703,5.5703,5.5703,5.5703,5.5703,5.5703,5.5703,5.5703,5.5703,5.5703,5.5703,5.5703,5.5703,5.5588,5.5164,5.4491,5.426,5.3337,5.1885,5.1769,5.1337,5.0712,5.0712,5.1106,5.175,5.1865,5.2818,5.426,5.5184,5.5607,5.5703,4.8532,4.8421,4.8477,4.9059,4.883,4.8847,4.9631,4.9075,4.8761,4.9337,4.8761,4.8439,4.8779,4.883,4.8675,4.8344,4.8863,4.9311,4.9489,4.9924,5.0336,5.0683,5.0712,5.0712,5.0712,5.0712,5.0712,5.0712,5.0712,5.0712,5.0712,5.0712,5.0712,5.0712,5.0712,5.0712,5.0712,5.0712,5.0712,5.0712,5.0712,5.0712,5.075,5.1202,5.1375,5.1491,5.2318,5.2876,5.328,5.376,5.3933,5.3991,5.4453,5.4857,5.5164,5.5164,5.5415,5.5703,5.5703,5.5703,5.5703,5.5703,5.5703,5.5703,5.5703,5.5703,5.5703,5.5703,5.5703,5.5703,5.5703,5.5703,5.5703,5.5703,5.5703,5.5703,5.5703,5.5703,5.5703,5.5703,5.5703,5.5703,5.5703,5.5703,5.5703,5.5703,5.5703,5.5703,5.5703,5.5703,5.5703,5.5703,5.5703,5.5703,5.5703,5.5703,5.5703,5.5703,5.5703,5.5511,5.5164,5.4703,5.4087,5.3337,5.2837,5.2414,5.2106,5.2106,5.2318,5.2673,5.3164,5.4107,5.5203,5.5568,5.5703,5.5703]}]]